     2.11           OBSERVATION DATA    G (GPS)             RINEX VERSION / TYPE
teqc 2010Oct21 OPUS Account 20111025 18:56:18UTC            PGM / RUN BY / DATE
3452                                                        MARKER NAME
1118                                                        MARKER NUMBER
CSMIDDLETON NGS                                             OBSERVER / AGENCY
4613K00970 TRIMBLE NETR5 4.17                               REC # / TYPE / VERS
60125046 TRM41249.00 NONE                                   ANT # / TYPE
  -738979.3679 -5482681.7335  3163679.6839                  APPROX POSITION XYZ
        2.0040        0.0000        0.0000                  ANTENNA: DELTA H/E/N
     1     1                                                WAVELENGTH FACT L1/2
     5    L1    L2    C1    P1    P2                        # / TYPES OF OBSERV
    15                                                      LEAP SECONDS
  2011     7    27    16    50    0.0000000     GPS         TIME OF FIRST OBS
                                                            END OF HEADER
 11  7 27 16 50  0.0000000  0 11G30G10G32G07G20G06G16G03G23G19G13
 122701655.22317  95611722.24453  23349353.781                    23349361.117
 126720638.64315  98743392.20853  24114137.492                    24114149.105
 126842780.76416  98838583.75653  24137384.750                    24137395.531
 122769575.93517  95664637.62417  23362273.078                    23362282.277
 121838039.17816  94938761.21254  23185008.703                    23185016.984
 115561545.16117  90047986.97255  21990630.688                    21990638.797
 112739029.43418  87848619.36755  21453524.242                    21453530.977
 110136846.06117  85820952.16255  20958344.914                    20958352.793
 104911424.06318  81749182.36456  19963980.508                    19963985.977
 118257409.03317  92148659.56355  22503635.859                    22503642.949
 109198240.55917  85089565.09056  20779734.258                    20779741.816
 11  7 27 16 50 30.0000000  0 11G30G10G32G07G20G06G16G03G23G19G13
 122802428.721 6  95690247.02843  23368529.906                    23368537.469
 126681205.771 5  98712665.37843  24106634.359                    24106644.813
 126937318.261 6  98912249.21343  24155375.125                    24155385.078
 122710021.577 6  95618231.663 6  23350939.773                    23350949.090
 121925535.627 6  95006940.18844  23201659.000                    23201667.203
 115563423.338 7  90049450.48745  21990987.891                    21990996.508
 112813694.379 8  87906799.82945  21467733.195                    21467739.445
 110105296.111 7  85796367.78345  20952340.773                    20952349.219
 104905360.335 8  81744457.38146  19962826.641                    19962831.898
 118173776.522 7  92083491.41645  22487721.039                    22487728.461
 109138652.002 8  85043132.44846  20768395.367                    20768402.156
 11  7 27 16 51  0.0000000  0 11G30G10G32G07G20G06G16G03G23G19G13
 122903283.884 6  95768835.40343  23387722.125                    23387730.453
 126642267.919 5  98682324.25643  24099224.500                    24099235.141
 127031840.137 6  98985902.46543  24173361.648                    24173372.488
 122650489.689 6  95571843.243 6  23339611.313                    23339620.422
 122013133.291 6  95075198.08344  23218328.359                    23218336.613
 115565852.330 7  90051343.20245  21991450.188                    21991458.535
 112888641.572 8  87965200.21045  21481994.945                    21482001.672
 110074323.365 7  85772233.18845  20946447.547                    20946455.008
 104899822.234 8  81740141.97846  19961772.961                    19961778.227
 118090397.879 7  92018521.10145  22471854.695                    22471861.563
 109079423.784 8  84996980.60246  20757124.727                    20757132.016
 11  7 27 16 51 30.0000000  0 11G30G10G32G07G20G06G16G03G23G19G13
 123004218.839 7  95847485.93343  23406929.281                    23406937.977
 126603826.101 6  98652369.67443  24091909.984                    24091919.855
 127126344.422 6  99059542.01343  24191345.711                    24191356.531
 122590980.497 7  95525472.469 6  23328287.813                    23328295.477
 122100829.372 6  95143532.62844  23235015.672                    23235024.445
 115568832.969 7  90053665.76045  21992017.063                    21992026.035
 112963868.214 8  88023818.36645  21496310.117                    21496316.512
 110043929.644 7  85748549.76245  20940663.531                    20940671.219
 104894811.280 8  81736237.33747  19960819.313                    19960824.457
 118007276.566 7  91953751.29445  22456037.492                    22456044.340
 109020558.518 7  84951111.58246  20745922.586                    20745929.938
 11  7 27 16 52  0.0000000  0 11G30G10G32G07G20G06G16G03G23G19G13
 123105231.954 6  95926197.38143  23426151.438                    23426159.926
 126565881.680 6  98622802.58643  24084689.750                    24084698.602
 127220828.893 6  99133166.16043  24209325.867                    24209336.594
 122531493.970 7  95479119.344 6  23316968.133                    23316976.145
 122188621.696 6  95211942.15644  23251722.750                    23251730.535
 115572366.083 7  90056418.83045  21992689.070                    21992698.020
 113039372.555 8  88082652.89345  21510677.930                    21510684.590
 110014116.883 7  85725319.04545  20934990.281                    20934997.965
 104890329.248 8  81732744.84046  19959966.391                    19959971.531
 117924416.183 7  91889184.81545  22440269.516                    22440276.305
 108962059.383 8  84905527.84846  20734790.414                    20734797.957
 11  7 27 16 52 30.0000000  0 11G30G10G32G07G20G06G16G03G23G19G13
 123206320.256 6  96004967.41443  23445388.086                    23445397.121
 126528434.619 6  98593623.05343  24077563.758                    24077571.965
 127315290.062 6  99206772.12643  24227301.156                    24227311.863
 122472029.187 6  95432783.180 6  23305651.570                    23305659.840
 122276506.347 6  95280423.64444  23268446.227                    23268454.734
 115576451.190 7  90059602.03045  21993466.750                    21993475.582
 113115150.977 8  88141700.99545  21525098.422                    21525104.844
 109984886.350 7  85702541.99445  20929428.125                    20929436.152
 104886376.706 8  81729664.92646  19959214.594                    19959219.449
 117841819.344 7  91824823.68445  22424551.656                    22424559.102
 108903927.891 8  84860230.58946  20723728.336                    20723735.801
 11  7 27 16 53  0.0000000  0 11G30G10G32G07G20G06G16G03G23G19G13
 123307481.765 7  96083794.48844  23464639.055                    23464647.688
 126491485.959 6  98564831.84743  24070532.531                    24070540.660
 127409725.961 6  99280358.34743  24245273.094                    24245282.613
 122412586.532 6  95386464.261 6  23294339.930                    23294348.691
 122364480.574 6  95348974.91643  23285187.539                    23285195.156
 115581088.991 7  90063215.89345  21994349.500                    21994357.555
 113191201.126 8  88200960.83945  21539569.727                    21539576.809
 109956240.107 7  85680220.24245  20923976.547                    20923985.098
 104882954.980 8  81726998.64146  19958563.125                    19958568.520
 117759489.790 7  91760670.84545  22408885.219                    22408891.816
 108846166.887 8  84815222.02746  20712737.445                    20712744.234
 11  7 27 16 53 30.0000000  0 11G30G10G32G07G20G06G16G03G23G19G13
 123408713.808 7  96162676.52143  23483902.594                    23483911.031
 126455036.315 6  98536429.53043  24063596.156                    24063605.125
 127504133.317 6  99353922.37743  24263237.172                    24263247.648
 122353165.382 6  95340162.106 6  23283032.078                    23283041.492
 122452540.837 6  95417593.22944  23301944.789                    23301953.074
 115586279.367 7  90067260.34645  21995337.445                    21995345.590
 113267519.734 8  88260429.86345  21554093.039                    21554099.652
 109928179.029 7  85658354.47545  20918637.109                    20918645.234
 104880064.910 8  81724746.63146  19958013.328                    19958018.223
 117677430.268 7  91696728.40845  22393269.641                    22393276.125
 108788778.460 8  84770503.77846  20701816.141                    20701823.340
 11  7 27 16 54  0.0000000  0 11G30G10G32G07G20G06G16G03G23G19G13
 123510014.517 7  96241612.08844  23503180.133                    23503188.594
 126419086.330 6  98508416.55143  24056755.188                    24056764.199
 127598510.048 6  99427462.55543  24281196.359                    24281207.082
 122293765.633 6  95293876.603 6  23271729.453                    23271737.855
 122540684.292 6  95486276.37043  23318718.617                    23318726.367
 115592022.842 7  90071735.77545  21996430.023                    21996438.551
 113344104.406 8  88320106.20945  21568666.758                    21568673.766
 109900705.078 7  85636946.20045  20913408.711                    20913416.715
 104877707.549 8  81722909.71946  19957564.734                    19957570.270
 117595644.010 7  91632998.89245  22377706.391                    22377712.898
 108731764.885 7  84726077.62546  20690967.188                    20690973.750
 11  7 27 16 54 30.0000000  0 11G30G10G32G07G20G06G16G03G23G19G13
 123611381.913 7  96320599.57444  23522469.023                    23522478.188
 126383636.953 6  98480793.70943  24050008.609                    24050018.918
 127692853.689 6  99500976.91443  24299150.195                    24299160.051
 122234387.516 6  95247607.954 6  23260430.820                    23260438.145
 122628908.600 6  95555022.51343  23335506.461                    23335514.477
 115598320.014 7  90076642.65445  21997628.789                    21997636.789
 113420952.896 8  88379988.13745  21583290.648                    21583296.945
 109873820.043 7  85615996.82845  20908293.078                    20908300.641
 104875884.306 8  81721488.98946  19957217.672                    19957223.176
 117514134.638 7  91569485.15645  22362195.750                    22362202.164
 108675129.741 7  84681946.35146  20680189.852                    20680196.801
 11  7 27 16 55  0.0000000  0 11G30G10G32G07G20G06G16G03G23G19G13
 123712814.062 7  96399637.51443  23541770.906                    23541780.691
 126348688.953 5  98453561.49343  24043358.359                    24043368.320
 127787161.912 6  99574463.70843  24317096.797                    24317106.828
 122175030.826 6  95201356.009 6  23249134.891                    23249142.988
 122717210.923 6  95623829.45244  23352310.547                    23352318.570
 115605171.093 7  90081981.15645  21998932.227                    21998940.773
 113498062.605 8  88440073.60045  21597964.047                    21597970.582
 109847525.728 7  85595507.75645  20903289.000                    20903297.145
 104874596.577 8  81720485.55646  19956972.766                    19956978.055
 117432905.878 7  91506190.05845  22346738.273                    22346745.488
 108618875.033 8  84638111.51846  20669485.008                    20669492.031
 11  7 27 16 55 30.0000000  0 11G30G10G32G07G20G06G16G03G23G19G13
 123814308.581 7  96478724.10443  23561085.680                    23561094.051
 126314243.118 6  98426720.66643  24036803.836                    24036813.707
 127881432.031 6  99647920.80043  24335035.289                    24335045.320
 122115695.282 6  95155120.578 6  23237843.070                    23237851.762
 122805587.939 6  95692694.58344  23369128.297                    23369135.965
 115612576.541 7  90087751.63245  22000341.234                    22000350.172
 113575430.842 7  88500360.52345  21612686.633                    21612693.156
 109821823.449 7  85575480.00445  20898398.336                    20898405.789
 104873845.485 8  81719900.27146  19956830.141                    19956835.004
 117351960.570 7  91443115.85745  22331335.094                    22331341.461
 108563003.406 8  84594575.19246  20658853.148                    20658860.059
 11  7 27 16 56  0.0000000  0 11G30G10G32G07G20G06G16G03G23G19G13
 123915862.715 6  96557857.13243  23580409.906                    23580419.117
 126280299.507 6  98400271.11543  24030344.469                    24030353.996
 127975660.90016  99721345.69953  24352966.547                    24352976.664
 122056380.323 6  95108901.180 6  23226556.102                    23226564.063
 122894036.362 6  95761615.34643  23385959.141                    23385967.082
 115620535.647 7  90093953.51645  22001856.055                    22001864.023
 113653054.512 7  88560846.46945  21627457.852                    21627464.969
 109796714.466 7  85555914.56945  20893620.117                    20893627.965
 104873631.172 8  81719733.26046  19956788.992                    19956793.988
 117271301.227 7  91380264.48245  22315985.695                    22315992.430
 108507516.683 8  84551338.79146  20648293.766                    20648301.043
 11  7 27 16 56 30.0000000  0 11G30G10G32G07G20G06G16G03G23G19G13
 124017475.523 6  96637035.85443  23599746.250                    23599755.449
 126246859.792 6  98374214.20043  24023981.875                    24023990.621
 128069847.081 6  99794737.38943  24370889.703                    24370900.332
 121997086.749 7  95062698.430 6  23215272.922                    23215281.105
 122982554.117 6  95830590.16843  23402803.578                    23402811.383
 115629049.656 7  90100587.82545  22003476.164                    22003484.551
 113730931.611 7  88621529.90445  21642277.539                    21642283.793
 109772200.742 8  85536812.96545  20888955.414                    20888962.793
 104873955.718 8  81719986.13647  19956850.758                    19956856.160
 117190932.152 7  91317639.28045  22300692.328                    22300699.012
 108452418.414 8  84508405.08746  20637809.000                    20637816.254
 11  7 27 16 57  0.0000000  0 11G30G10G32G07G20G06G16G03G23G19G13
 124119144.326 6  96716258.24443  23619092.953                    23619102.633
 126213924.066 6  98348549.99543  24017714.352                    24017722.988
 128163987.720 6  99868093.60643  24388804.422                    24388814.688
 121937814.012 7  95016511.908 6  23203993.586                    23204001.500
 123071137.942 6  95899616.43843  23419660.484                    23419668.754
 115638118.357 7  90107654.34145  22005201.320                    22005210.063
 113809058.996 8  88682408.35545  21657144.641                    21657151.348
 109748283.336 7  85518176.03645  20884404.000                    20884411.742
 104874819.993 8  81720659.57747  19957015.242                    19957020.301
 117110856.226 7  91255242.51045  22285454.906                    22285460.809
 108397710.418 8  84465775.48446  20627398.883                    20627405.766
 11  7 27 16 57 30.0000000  0 11G30G10G32G07G20G06G16G03G23G19G13
 124220866.902 6  96795522.52243  23638450.352                    23638459.789
 126181492.870 6  98323278.91843  24011542.836                    24011550.949
 128258079.709 6  99941411.86243  24406708.828                    24406720.316
 121878561.569 7  94970341.203 6  23192718.203                    23192726.109
 123159784.645 6  95968691.71644  23436529.609                    23436537.996
 115647741.792 7  90115153.12645  22007032.719                    22007041.266
 113887434.158 7  88743479.87845  21672058.625                    21672065.305
 109724963.885 8  85500005.03145  20879966.195                    20879974.457
 104876224.501 8  81721753.98446  19957282.711                    19957287.984
 117031076.648 7  91193076.65245  22270272.383                    22270279.090
 108343395.150 8  84423451.91546  20617062.648                    20617069.770
 11  7 27 16 58  0.0000000  0 11G30G10G32G07G20G06G16G03G23G19G13
 124322641.214 6  96874827.11943  23657818.477                    23657826.047
 126149566.917 6  98298401.49743  24005467.742                    24005474.848
 128352121.204 6 100014690.75343  24424604.344                    24424615.945
 121819329.787 6  94924186.623 6  23181446.547                    23181455.363
 123248491.529 6  96037813.87343  23453410.273                    23453418.375
 115657920.281 7  90123084.42545  22008969.742                    22008977.953
 113966054.820 8  88804742.71745  21687020.281                    21687026.703
 109702244.031 7  85482301.25645  20875642.922                    20875651.016
 104878170.699 8  81723270.48646  19957652.719                    19957658.020
 116951596.756 7  91131144.32545  22255147.922                    22255154.258
 108289475.399 7  84381436.53646  20606802.070                    20606808.844
 11  7 27 16 58 30.0000000  0 11G30G10G32G07G20G06G16G03G23G19G13
 124424465.126 6  96954170.38043  23677194.141                    23677202.699
 126118146.672 6  98273918.18343  23999488.797                    23999496.906
 128446109.391 5 100087928.20842  24442490.180                    24442501.180
 121760118.261 6  94878047.831 7  23170178.883                    23170187.996
 123337255.290 6  96106980.36144  23470300.820                    23470309.441
 115668653.502 7  90131447.95945  22011012.648                    22011020.984
 114044918.008 7  88866194.52045  21702026.898                    21702034.168
 109680124.437 7  85465065.20245  20871433.734                    20871441.660
 104880659.057 8  81725209.45947  19958126.555                    19958132.016
 116872419.391 7  91069447.71745  22240081.195                    22240087.848
 108235953.214 8  84339730.94646  20596617.023                    20596624.125
 11  7 27 16 59  0.0000000  0 11G30G10G32G07G20G06G16G03G23G19G13
 124526336.469 6  97033550.56743  23696579.602                    23696588.531
 126087232.858 6  98249829.49743  23993605.234                    23993615.023
 128540042.184 6 100161122.39443  24460364.117                    24460376.125
 121700927.081 7  94831924.880 6  23158915.898                    23158924.098
 123426073.520 6  96176189.28143  23487203.109                    23487211.078
 115679941.695 7  90140243.94945  22013160.328                    22013169.258
 114124021.304 7  88927833.43445  21717080.070                    21717086.594
 109658606.926 7  85448298.32445  20867339.047                    20867347.203
 104883690.779 8  81727571.81446  19958703.617                    19958708.898
 116793547.999 7  91007989.52445  22225072.430                    22225078.766
 108182831.175 7  84298337.16546  20586508.227                    20586515.723
 11  7 27 16 59 30.0000000  0 11G30G10G32G07G20G06G16G03G23G19G13
 124628253.278 6  97112966.20243  23715974.063                    23715982.676
 126056825.881 6  98226135.78943  23987818.914                    23987828.406
 128633916.323 6 100234270.91943  24478228.859                    24478239.254
 121641756.048 7  94785817.582 6  23147655.906                    23147663.836
 123514942.912 6  96245438.06143  23504114.219                    23504122.625
 115691784.865 7  90149472.39245  22015413.844                    22015422.535
 114203361.849 8  88989657.22045  21732178.078                    21732184.465
 109637692.736 7  85432001.56045  20863358.977                    20863367.699
 104887266.662 8  81730358.20347  19959384.211                    19959388.840
 116714985.845 7  90946772.30045  22210122.070                    22210128.336
 108130111.638 8  84257257.01746  20576476.109                    20576483.246
 11  7 27 17  0  0.0000000  0 11G30G10G32G07G20G06G16G03G23G19G13
 124730213.641 6  97192415.76543  23735376.039                    23735385.105
 126026926.403 5  98202837.50743  23982128.828                    23982139.109
 128727730.268 6 100307372.55443  24496081.281                    24496091.738
 121582605.142 7  94739725.978 6  23136399.133                    23136407.059
 123603860.975 6  96314724.78843  23521034.664                    23521043.395
 115704183.209 7  90159133.43445  22017773.508                    22017781.922
 114282937.318 7  89051664.05745  21747321.086                    21747327.898
 109617383.686 7  85416176.32445  20859494.844                    20859502.680
 104891387.913 8  81733569.54947  19960168.359                    19960173.523
 116636736.434 7  90885798.76945  22195232.258                    22195238.262
 108077797.298 7  84216492.60746  20566521.188                    20566528.625
 11  7 27 17  0 30.0000000  0 11G30G10G32G07G20G06G16G03G23G19G13
 124832215.668 6  97271897.79943  23754786.516                    23754795.734
 125997534.736 5  98179934.97643  23976534.859                    23976546.516
 128821481.408 6 100380425.23742  24513921.547                    24513932.406
 121523474.517 7  94693650.209 6  23125147.445                    23125155.293
 123692824.802 6  96384047.15543  23537964.102                    23537972.363
 115717137.028 7  90169227.32145  22020238.031                    22020246.379
 114362745.217 7  89113852.01245  21762507.750                    21762514.660
 109597680.957 7  85400823.54445  20855745.477                    20855753.254
 104896055.461 8  81737206.59646  19961056.602                    19961062.117
 116558802.874 7  90825071.35645  22180401.383                    22180408.344
 108025890.780 7  84176045.97846  20556643.727                    20556650.691
 11  7 27 17  1  0.0000000  0 11G30G10G32G07G20G06G16G03G23G19G13
 124934257.283 6  97351410.69043  23774204.852                    23774213.738
 125968651.362 6  98157428.49643  23971039.883                    23971050.074
 128915166.792 5 100453426.63242  24531749.641                    24531760.391
 121464364.109 7  94647590.177 6  23113899.039                    23113907.355
 123781831.425 6  96453402.88943  23554900.734                    23554910.375
 115730645.917 7  90179753.71545  22022808.922                    22022817.301
 114442782.893 8  89176219.00945  21777738.211                    21777745.063
 109578585.696 7  85385944.12345  20852111.383                    20852120.051
 104901269.879 8  81741269.76346  19962048.836                    19962053.820
 116481188.337 7  90764592.53245  22165632.164                    22165638.652
 107974394.143 7  84135918.73546  20546843.867                    20546850.926
 11  7 27 17  1 30.0000000  0 11G30G10G32G07G20G06G16G03G23G19G13
 125036336.345 6  97430952.76643  23793629.320                    23793638.395
 125940276.910 6  98135318.55643  23965639.961                    23965650.410
 129008784.403 6 100526375.27042  24549563.508                    24549575.000
 121405273.432 7  94601545.528 6  23102654.984                    23102662.363
 123870877.818 6  96522789.58543  23571846.945                    23571855.164
 115744709.713 7  90190712.52045  22025485.664                    22025493.535
 114523047.582 7  89238762.90445  21793012.195                    21793018.891
 109560098.914 7  85371538.84545  20848593.742                    20848601.172
 104907032.044 8  81745759.74446  19963145.305                    19963150.504
 116403895.676 7  90704364.51645  22150923.375                    22150929.703
 107923309.960 7  84096112.89146  20537123.008                    20537130.246
 11  7 27 17  2  0.0000000  0 11G30G10G32G07G20G06G16G03G23G19G13
 125138450.952 6  97510522.46543  23813061.781                    23813070.684
 125912411.612 6  98113605.34844  23960338.367                    23960347.668
 129102331.697 6 100599269.03642  24567366.234                    24567377.230
 121346202.874 7  94555516.556 6  23091413.469                    23091421.734
 123959961.444 6  96592205.31743  23588798.453                    23588807.098
 115759328.677 7  90202103.91745  22028267.438                    22028275.594
 114603536.838 7  89301481.78545  21808329.000                    21808335.789
 109542221.735 7  85357608.57645  20845191.547                    20845199.332
 104913342.891 8  81750677.27647  19964346.031                    19964351.242
 116326928.467 7  90644390.10445  22136277.305                    22136283.656
 107872640.637 7  84056630.30446  20527480.656                    20527488.055
 11  7 27 17  2 30.0000000  0 11G30G10G32G07G20G06G16G03G23G19G13
 125240598.622 6  97590117.97643  23832499.492                    23832508.543
 125885055.745 6  98092289.08344  23955132.414                    23955141.766
 129195805.748 6 100672105.85543  24585154.039                    24585164.430
 121287151.764 7  94509502.728 6  23080176.695                    23080184.746
 124049078.712 6  96661647.24443  23605756.844                    23605766.023
 115774502.132 7  90213927.38645  22031154.633                    22031162.883
 114684247.789 7  89364373.41445  21823687.797                    21823694.500
 109524954.910 7  85344153.90145  20841905.953                    20841913.984
 104920202.776 8  81756022.62646  19965651.680                    19965657.070
 116250289.546 7  90584671.49645  22121693.273                    22121700.051
 107822388.108 7  84017472.48746  20517918.242                    20517925.184
 11  7 27 17  3  0.0000000  0 11G30G10G32G07G20G06G16G03G23G19G13
 125342777.661 6  97669737.95043  23851943.758                    23851952.465
 125858209.959 6  98071370.28643  23950023.891                    23950033.215
 129289204.555 6 100744883.95542  24602926.758                    24602938.188
 121228120.232 7  94463504.163 6  23068943.477                    23068951.035
 124138227.297 6  96731113.57543  23622721.188                    23622730.195
 115790230.039 7  90226182.88745  22034147.188                    22034156.203
 114765178.037 7  89427435.92645  21839088.344                    21839094.848
 109508299.945 7  85331176.00645  20838736.453                    20838744.559
 104927612.668 8  81761796.55747  19967061.609                    19967067.082
 116173982.281 7  90525211.30545  22107172.844                    22107179.176
 107772554.864 8  83978641.38046  20508435.320                    20508442.258
 11  7 27 17  3 30.0000000  0 11G30G10G32G07G20G06G16G03G23G19G13
 125444985.919 6  97749380.71543  23871392.953                    23871402.480
 125831874.071 6  98050848.80543  23945012.547                    23945021.520
 129382525.426 6 100817601.34342  24620685.109                    24620696.992
 121169108.288 7  94417520.843 6  23057713.656                    23057721.609
 124227404.184 6  96800601.94943  23639691.797                    23639700.441
 115806512.380 7  90238870.42045  22037246.086                    22037254.469
 114846324.865 7  89490667.20445  21854530.313                    21854536.988
 109492258.176 7  85318675.93245  20835683.953                    20835691.652
 104935573.209 8  81767999.56246  19968576.664                    19968581.789
 116098009.796 7  90466011.99445  22092715.883                    22092722.098
 107723143.277 7  83940138.85346  20499032.477                    20499039.934
 11  7 27 17  4  0.0000000  0 11G30G10G32G07G20G06G16G03G23G19G13
 125547221.781 6  97829044.90243  23890848.250                    23890857.008
 125806048.721 6  98030725.14243  23940098.086                    23940106.957
 129475766.240 6 100890256.38242  24638429.016                    24638440.063
 121110116.143 7  94371552.986 7  23046487.227                    23046495.793
 124316606.429 6  96870110.10343  23656666.414                    23656675.441
 115823349.144 7  90251989.95845  22040449.883                    22040458.637
 114927685.892 7  89554065.37745  21870012.445                    21870019.320
 109476830.902 7  85306654.69545  20832748.125                    20832756.027
 104944085.381 8  81774632.41446  19970196.273                    19970201.523
 116022375.164 7  90407075.93445  22078322.617                    22078329.430
 107674156.350 7  83901967.22246  20489710.570                    20489717.738
 11  7 27 17  4 30.0000000  0 11G30G10G32G07G20G06G16G03G23G19G13
 125649483.397 6  97908729.16943  23910307.977                    23910317.316
 125780734.697 6  98010999.93543  23935281.375                    23935289.676
 129568924.692 6 100962847.18743  24656157.109                    24656168.379
 121051143.794 7  94325600.540 7  23035265.508                    23035274.031
 124405831.803 6  96939636.29343  23673644.781                    23673654.137
 115840740.114 7  90265541.34145  22043760.195                    22043768.219
 115009258.833 7  89617628.69245  21885535.438                    21885542.492
 109462018.697 7  85295112.72645  20829929.703                    20829937.793
 104953150.133 8  81781695.84347  19971921.477                    19971926.605
 115947081.850 7  90348405.83445  22063994.609                    22064001.281
 107625596.581 7  83864128.44946  20480469.852                    20480476.727
 11  7 27 17  5  0.0000000  0 11G30G10G32G07G20G06G16G03G23G19G13
 125751768.582 6  97988431.90343  23929772.898                    23929781.344
 125755931.751 6  97991672.93443  23930560.430                    23930570.199
 129661997.842 6 101035371.47443  24673868.352                    24673879.453
 120992190.849 7  94279663.207 7  23024047.625                    23024055.410
 124495076.762 6  97009177.70543  23690628.117                    23690636.559
 115858684.759 7  90279524.17145  22047173.992                    22047182.289
 115091040.877 7  89681354.93345  21901098.172                    21901104.922
 109447822.750 7  85284050.96345  20827228.086                    20827235.809
 104962767.472 8  81789189.86746  19973751.438                    19973756.684
 115872132.750 7  90290003.95945  22049733.000                    22049739.316
 107577465.570 8  83826623.77746  20471311.102                    20471318.203
 11  7 27 17  5 30.0000000  0 11G30G10G32G07G20G06G16G03G23G19G13
 125854075.661 6  98068151.66343  23949240.305                    23949249.551
 125731640.046 6  97972744.33143  23925937.484                    23925947.230
 129754983.856 6 101107827.91643  24691562.938                    24691574.328
 120933257.834 7  94233741.396 6  23012833.047                    23012840.883
 124584338.710 6  97078732.39443  23707613.406                    23707622.813
 115877182.971 7  90293938.34745  22050694.047                    22050702.375
 115173029.085 7  89745241.82845  21916699.656                    21916706.551
 109434244.213 7  85273470.29845  20824644.234                    20824652.063
 104972938.342 8  81797115.20746  19975686.664                    19975691.930
 115797531.209 7  90231872.90645  22035536.070                    22035542.793
 107529765.919 8  83789455.22646  20462233.773                    20462241.195
 11  7 27 17  6  0.0000000  0 11G30G10G32G07G20G06G16G03G23G19G13
 125956402.965 6  98147887.10743  23968713.930                    23968722.367
 125707860.499 6  97954214.82843  23921412.211                    23921422.809
 129847880.300 6 101180214.59943  24709241.328                    24709252.480
 120874344.379 7  94187834.828 7  23001621.797                    23001629.883
 124673615.053 6  97148298.27143  23724603.320                    23724611.477
 115896234.907 7  90308783.99945  22054319.719                    22054327.734
 115255221.987 7  89809288.22045  21932340.758                    21932347.477
 109421284.295 7  85263371.68045  20822177.742                    20822185.988
 104983663.603 8  81805472.54146  19977727.664                    19977733.230
 115723280.414 7  90174015.15845  22021406.711                    22021413.125
 107482500.444 7  83752624.98446  20453239.938                    20453247.090
 11  7 27 17  6 30.0000000  0 11G30G10G32G07G20G06G16G03G23G19G13
 126058748.083 6  98227636.47943  23988188.906                    23988198.285
 125684592.856 6  97936084.25543  23916984.180                    23916995.031
 129940684.831 6 101252529.56843  24726900.859                    24726912.590
 120815450.641 7  94141943.638 7  22990414.570                    22990423.023
 124762902.878 6  97217873.10443  23741593.789                    23741602.797
 115915839.983 7  90324060.67345  22058050.422                    22058058.805
 115337616.274 7  89873491.53545  21948019.750                    21948026.566
 109408943.626 7  85253755.59145  20819829.438                    20819837.719
 104994943.824 8  81814262.30946  19979874.625                    19979879.930
 115649383.389 7  90116433.07945  22007344.813                    22007351.094
 107435671.059 8  83716134.56646  20444328.438                    20444335.371
 11  7 27 17  7  0.0000000  0 11G30G10G32G07G20G06G16G03G23G19G13
 126161108.957 6  98307398.14543  24007667.398                    24007676.918
 125661837.101 6  97918352.53743  23912654.969                    23912664.754
 130033394.555 6 101324770.70643  24744542.773                    24744554.785
 120756576.281 7  94096067.553 7  22979211.328                    22979219.531
 124852198.967 6  97287454.35843  23758586.469                    23758595.336
 115935997.701 7  90339767.98445  22061886.438                    22061894.613
 115420209.423 7  89937849.80545  21963736.758                    21963743.734
 109397222.829 7  85244622.51945  20817598.938                    20817607.051
 105006779.223 8  81823484.67846  19982126.625                    19982131.609
 115575843.210 7  90059129.05945  21993350.430                    21993357.098
 107389280.011 7  83679985.70246  20435500.594                    20435507.703
 11  7 27 17  7 30.0000000  0 11G30G10G32G07G20G06G16G03G23G19G13
 126263483.986 6  98387170.80943  24027149.008                    24027158.430
 125639593.736 6  97901020.08743  23908422.180                    23908432.309
 130126007.531 6 101396936.46243  24762166.820                    24762178.945
 120697721.587 7  94050206.781 6  22968011.297                    22968019.406
 124941500.806 6  97357040.10543  23775580.477                    23775588.434
 115956707.699 7  90355905.63245  22065827.227                    22065835.500
 115502999.057 7  90002361.17645  21979491.320                    21979497.980
 109386123.310 7  85235973.55445  20815486.625                    20815494.977
 105019170.837 8  81833140.46346  19984484.625                    19984489.836
 115502663.119 7  90002105.62845  21979424.156                    21979431.152
 107343329.863 8  83644180.38846  20426756.297                    20426763.465
 11  7 27 17  8  0.0000000  0 10G30G10G07G20G06G16G03G23G19G13
 126365872.035 6  98466953.63443  24046632.875                    24046642.469
 125617863.667 6  97884087.55144  23904287.344                    23904297.512
 120638887.444 7  94004362.018 6  22956815.578                    22956823.535
 125030806.375 6  97426628.75643  23792574.602                    23792583.445
 115977970.519 7  90372474.05345  22069873.367                    22069881.980
 115585983.498 7  90067024.34845  21995282.766                    21995289.684
 109375646.425 7  85227809.76545  20813493.523                    20813501.215
 105032119.713 8  81843230.49046  19986948.547                    19986953.813
 115429846.717 7  89945365.59845  21965567.641                    21965574.383
 107297823.657 8  83608721.00946  20418097.094                    20418103.707
 11  7 27 17  8 30.0000000  0 10G30G10G07G20G06G16G03G23G19G13
 126468269.902 6  98546744.10343  24066118.281                    24066127.648
 125596645.561 7  97867553.95844  23900250.375                    23900259.176
 120580072.369 7  93958532.123 6  22945624.008                    22945631.176
 125120111.551 6  97496217.10943  23809569.172                    23809577.754
 115999784.497 7  90389471.95945  22074024.641                    22074033.520
 115669158.915 7  90131836.32245  22011110.414                    22011117.355
 109365791.531 7  85220130.63945  20811618.227                    20811625.875
 105045624.906 8  81853753.99246  19989518.844                    19989524.156
 115357395.988 7  89888910.49445  21951780.961                    21951787.570
 107252762.443 8  83573608.37646  20409521.938                    20409528.887
 11  7 27 17  9  0.0000000  0 10G30G10G07G20G06G16G03G23G19G13
 126570676.526 6  98626541.39643  24085605.969                    24085615.422
 125575940.377 6  97851420.05744  23896309.930                    23896319.445
 120521277.031 7  93912717.600 6  22934435.516                    22934443.301
 125209414.153 6  97565803.42443  23826563.109                    23826571.500
 116022149.786 7  90406899.45745  22078280.570                    22078289.398
 115752523.557 7  90196795.76145  22026974.641                    22026980.961
 109356560.635 7  85212937.74645  20809861.516                    20809869.098
 105059687.868 8  81864712.12946  19992194.938                    19992200.219
 115285314.786 7  89832743.34545  21938064.219                    21938071.344
 107208148.991 8  83538844.65746  20401032.383                    20401039.363
 11  7 27 17  9 30.0000000  0 10G30G10G07G20G06G16G03G23G19G13
 126673089.811 5  98706343.86243  24105093.930                    24105103.770
 125555747.663 6  97835685.47644  23892467.758                    23892477.113
 120462501.279 7  93866918.345 7  22923250.664                    22923258.672
 125298711.055 6  97635385.31043  23843555.734                    23843564.418
 116045065.657 7  90424755.98645  22082641.625                    22082649.105
 115836074.561 7  90261900.40245  22042873.195                    22042880.438
 109347953.892 7  85206231.20645  20808223.734                    20808231.313
 105074308.640 8  81876104.91846  19994977.219                    19994982.324
 115213605.824 7  89776866.24945  21924418.875                    21924425.012
 107163985.490 7  83504431.53846  20392628.695                    20392635.406
 11  7 27 17 10  0.0000000  0 10G30G10G07G20G06G16G03G23G19G13
 126775508.419 6  98786150.43443  24124584.078                    24124593.457
 125536067.883 7  97820350.57144  23888722.305                    23888731.238
 120403745.720 7  93821134.814 7  22912069.242                    22912077.414
 125387999.852 6  97704960.87843  23860547.531                    23860555.289
 116068531.956 7  90443041.42345  22087106.852                    22087115.035
 115919809.579 7  90327148.43245  22058807.453                    22058814.949
 109339972.003 7  85200011.56445  20806704.867                    20806712.297
 105089487.863 8  81887932.86446  19997865.688                    19997870.617
 115142272.471 7  89721281.82845  21910844.531                    21910850.926
 107120274.624 7  83470371.13146  20384310.672                    20384317.383
 11  7 27 17 10 30.0000000  0 10G30G10G07G20G06G16G03G23G19G13
 126877930.096 6  98865959.46043  24144074.602                    24144083.844
 125516900.823 7  97805415.18443  23885075.422                    23885084.008
 120345009.934 7  93775366.698 6  22900892.461                    22900900.422
 125477278.040 6  97774528.18843  23877535.250                    23877544.891
 116092547.992 7  90461755.21845  22091676.922                    22091685.504
 116003726.130 7  90392537.91745  22074776.461                    22074783.234
 109332615.922 7  85194279.56745  20805305.125                    20805312.496
 105105226.174 8  81900196.46446  20000860.594                    20000866.012
 115071317.389 7  89665992.16145  21897342.063                    21897347.773
 107077018.078 8  83436664.73746  20376078.969                    20376086.055
 11  7 27 17 11  0.0000000  0 10G30G10G07G20G06G16G03G23G19G13
 126980352.601 6  98945769.19043  24163565.070                    24163573.828
 125498246.357 6  97790879.22543  23881525.328                    23881534.207
 120286293.826 7  93729613.923 7  22889719.156                    22889727.133
 125566541.860 6  97844084.29443  23894522.906                    23894531.078
 116117112.893 7  90480896.70445  22096351.500                    22096359.980
 116087821.376 7  90458066.64745  22090779.242                    22090786.754
 109325886.147 8  85189035.60345  20804024.617                    20804032.242
 105121523.412 8  81912895.59146  20003961.555                    20003966.957
 115000743.590 7  89610999.59845  21883912.656                    21883918.488
 107034217.790 8  83403313.87146  20367934.703                    20367941.617
 11  7 27 17 11 30.0000000  0 10G30G10G07G20G06G16G03G23G19G13
 127082774.913 6  99025578.72343  24183055.578                    24183064.617
 125480104.942 6  97776743.00743  23878072.703                    23878081.453
 120227598.065 7  93683876.980 6  22878550.117                    22878557.684
 125655789.348 6  97913627.67143  23911505.531                    23911514.648
 116142226.653 7  90500465.88145  22101129.906                    22101138.453
 116172093.483 7  90523733.20445  22106815.617                    22106822.887
 109319783.618 7  85184280.38945  20802862.836                    20802871.000
 105138380.411 8  81926030.89946  20007169.344                    20007174.977
 114930554.923 7  89556307.15245  21870555.813                    21870562.285
 106991876.926 8  83370320.99446  20359877.195                    20359883.859
 11  7 27 17 12  0.0000000  0 10G30G10G07G20G06G16G03G23G19G13
 127185194.697 6  99105386.19843  24202545.000                    24202554.738
 125462476.080 6  97763006.20643  23874717.797                    23874726.391
 120168922.163 7  93638155.517 6  22867384.828                    22867391.930
 125745017.410 6  97983155.90243  23928484.945                    23928494.348
 116167888.333 7  90520462.01145  22106013.641                    22106022.063
 116256539.973 7  90589535.63345  22122884.961                    22122891.805
 109314308.593 7  85180014.13945  20801821.008                    20801829.051
 105155797.128 8  81939602.35146  20010483.727                    20010488.980
 114860753.430 7  89501916.39145  21857273.063                    21857279.559
 106949997.113 8  83337687.38746  20351908.250                    20351914.973
 11  7 27 17 12 30.0000000  0 10G30G10G07G20G06G16G03G23G19G13
 127287610.545 7  99185190.67043  24222034.633                    24222043.910
 125445359.958 6  97749668.97643  23871461.023                    23871469.488
 120110266.259 7  93592449.634 7  22856221.969                    22856230.391
 125834223.275 6  98052666.83043  23945460.781                    23945469.371
 116194097.533 7  90540884.76345  22111001.031                    22111009.461
 116341157.757 7  90655471.56545  22138988.008                    22138994.477
 109309462.048 7  85176237.61145  20800898.945                    20800906.547
 105173774.191 8  81953610.43746  20013904.766                    20013909.777
 114791342.679 7  89447830.10845  21844064.719                    21844070.980
 106908580.545 8  83305414.73846  20344026.578                    20344033.359
 11  7 27 17 13  0.0000000  0 11G30G10G08G07G20G06G16G03G23G19G13
 127390020.881 6  99264990.92743  24241521.906                    24241531.770
 125428757.063 6  97736731.60743  23868301.219                    23868310.832
 131299288.58516 102311153.00753  24985418.797                    24985429.293
 120051630.746 7  93546759.670 7  22845064.414                    22845072.223
 125923404.721 6  98122158.79043  23962431.391                    23962440.035
 116220853.980 7  90561733.95045  22116092.586                    22116100.988
 116425945.171 7  90721539.66245  22155122.219                    22155129.152
 109305244.715 7  85172951.37645  20800096.258                    20800103.922
 105192312.241 8  81968055.65446  20017432.289                    20017437.613
 114722325.729 7  89394050.69145  21830931.484                    21830937.387
 106867630.101 8  83273505.29746  20336233.891                    20336240.590
 11  7 27 17 13 30.0000000  0 11G30G10G08G07G20G06G16G03G23G19G13
 127492423.598 6  99344785.20543  24261008.594                    24261018.293
 125412666.625 6  97724193.60443  23865239.742                    23865249.129
 131233827.435 6 102260144.35642  24972961.750                    24972972.609
 119993015.447 7  93501085.427 7  22833909.797                    22833918.449
 126012558.624 6  98191629.24443  23979397.414                    23979405.813
 116248156.587 7  90583008.71445  22121288.547                    22121296.344
 116510899.319 7  90787737.67445  22171288.258                    22171295.184
 109301656.697 7  85170155.51545  20799413.633                    20799421.543
 105211410.974 8  81982937.76946  20021066.508                    20021072.121
 114653705.279 7  89340580.22845  21817873.023                    21817879.477
 106827147.537 8  83241960.43946  20328530.227                    20328537.316
 11  7 27 17 14  0.0000000  0 11G30G10G08G07G20G06G16G03G23G19G13
 127594817.458 6  99424572.60442  24280493.406                    24280503.207
 125397088.767 6  97712055.02343  23862275.281                    23862284.461
 131168323.357 6 102209102.26943  24960497.633                    24960507.715
 119934420.860 7  93455427.343 7  22822759.820                    22822767.762
 126101682.566 6  98261076.34043  23996356.195                    23996365.926
 116276004.890 7  90604708.69645  22126587.289                    22126595.426
 116596017.866 7  90854063.78745  22187485.945                    22187492.883
 109298698.806 7  85167850.67145  20798850.617                    20798858.363
 105231071.171 8  81998257.39146  20024807.828                    20024813.246
 114585484.718 7  89287421.37045  21804891.125                    21804897.656
 106787135.220 8  83210782.00846  20320916.117                    20320922.820
 11  7 27 17 14 30.0000000  0 11G30G10G08G07G20G06G16G03G23G19G13
 127697200.120 6  99504351.22542  24299976.133                    24299986.457
 125382022.807 6  97700315.31943  23859408.258                    23859417.699
 131102774.816 5 102158025.56443  24948023.555                    24948034.043
 119875846.837 7  93409785.238 6  22811613.367                    22811621.559
 126190773.284 6  98330497.59243  24013309.711                    24013319.203
 116304397.850 7  90626833.07545  22131990.648                    22131998.820
 116681298.257 7  90920516.01545  22203713.906                    22203720.559
 109296370.906 7  85166036.71445  20798407.719                    20798415.836
 105251292.387 8  82014014.15946  20028655.906                    20028661.203
 114517666.536 7  89234576.06745  21791985.594                    21791992.285
 106747594.866 8  83179971.34646  20313391.953                    20313398.473
 11  7 27 17 15  0.0000000  0 11G30G10G08G07G20G06G16G03G23G19G13
 127799570.399 6  99584120.18743  24319457.336                    24319467.008
 125367469.091 6  97688974.77644  23856638.969                    23856648.582
 131037182.354 5 102106914.65042  24935540.719                    24935552.313
 119817293.548 7  93364159.324 7  22800471.133                    22800478.965
 126279828.419 6  98399891.04943  24030256.695                    24030266.457
 116333335.190 7  90649381.66045  22137497.617                    22137505.898
 116766738.556 7  90987092.84844  22219973.023                    22219979.758
 109294674.086 7  85164714.50845  20798085.039                    20798093.008
 105272075.327 8  82030208.64546  20032610.898                    20032616.227
 114450254.130 7  89182046.94445  21779157.586                    21779164.191
 106708529.184 8  83149530.55646  20305958.172                    20305964.672
 11  7 27 17 15 30.0000000  0 11G30G10G08G07G20G06G16G03G23G19G13
 127901926.505 6  99663878.12243  24338934.930                    24338944.594
 125353427.425 7  97678033.19244  23853967.773                    23853976.813
 130971545.718 5 102055769.28742  24923051.359                    24923061.984
 119758761.415 7  93318549.892 7  22789333.125                    22789340.957
 126368845.367 6  98469254.81043  24047196.078                    24047205.379
 116362816.183 7  90672353.85444  22143106.680                    22143115.645
 116852336.223 7  91053792.27845  22236261.633                    22236268.730
 109293608.756 7  85163884.38345  20797882.078                    20797889.906
 105293420.310 8  82046841.07946  20036672.953                    20036678.285
 114383250.327 7  89129836.21345  21766407.211                    21766413.988
 106669940.422 8  83119461.40346  20298614.758                    20298621.492
 11  7 27 17 16  0.0000000  0 11G30G10G08G07G20G06G16G03G23G19G13
 128004266.070 6  99743623.16643  24358409.820                    24358419.422
 125339897.090 7  97667490.09743  23851392.844                    23851401.711
 130905863.642 5 102004588.52842  24910551.984                    24910562.629
 119700249.661 7  93272956.332 7  22778198.484                    22778206.484
 126457820.927 6  98538586.27743  24064127.781                    24064137.102
 116392839.530 7  90695748.65945  22148820.492                    22148828.355
 116938088.180 7  91120611.95844  22252579.742                    22252587.051
 109293174.769 7  85163546.20545  20797799.836                    20797808.121
 105315326.686 8  82063910.96946  20040841.172                    20040846.809
 114316657.508 7  89077945.72345  21753735.469                    21753741.621
 106631829.846 8  83089764.85046  20291362.461                    20291369.590
 11  7 27 17 16 30.0000000  0 11G30G10G08G07G20G06G16G03G23G19G13
 128106588.193 6  99823354.64643  24377881.672                    24377890.305
 125326878.585 7  97657345.78644  23848915.594                    23848924.785
 130840136.614 5 101953372.67942  24898045.094                    24898055.871
 119641759.354 7  93227379.507 7  22767067.820                    22767076.184
 126546753.100 6  98607883.94843  24081051.391                    24081060.711
 116423404.976 7  90719565.88345  22154636.859                    22154645.117
 117023992.796 7  91187550.58045  22268926.930                    22268933.664
 109293373.280 7  85163700.88245  20797837.688                    20797845.574
 105337795.407 8  82081419.03746  20045116.875                    20045122.480
 114250479.559 7  89026378.51245  21741141.516                    21741148.227
 106594200.308 8  83060443.13346  20284201.453                    20284208.789
 11  7 27 17 17  0.0000000  0 10G10G08G07G20G06G16G03G23G19G13
 125314370.956 7  97647599.57544  23846535.203                    23846544.629
 130774363.255 6 101902120.78742  24885528.945                    24885539.141
 119583290.061 7  93181819.042 7  22755941.555                    22755949.652
 126635638.348 6  98677145.06443  24097965.680                    24097975.617
 116454511.153 7  90743804.46345  22160556.258                    22160564.215
 117110047.249 7  91254605.96145  22285302.570                    22285309.516
 109294203.761 7  85164348.01445  20797995.313                    20798003.301
 105360825.778 8  82099364.76346  20049499.547                    20049504.813
 114184718.386 7  88975136.06345  21728628.039                    21728634.137
 106557053.177 8  83031497.31746  20277132.930                    20277139.910
 11  7 27 17 17 30.0000000  0 10G10G08G07G20G06G16G03G23G19G13
 125302374.489 7  97638251.66744  23844252.328                    23844261.605
 130708544.311 5 101850833.32242  24873004.219                    24873014.738
 119524842.429 7  93136275.459 6  22744819.820                    22744827.594
 126724474.836 6  98746368.17943  24114871.039                    24114880.219
 116486158.082 7  90768464.39844  22166578.117                    22166586.152
 117196249.555 7  91321776.54945  22301706.047                    22301713.746
 109295667.320 8  85165488.45045  20798274.039                    20798282.234
 105384419.135 8  82117749.17346  20053989.195                    20053994.848
 114119378.069 7  88924221.55045  21716194.008                    21716200.621
 106520391.530 8  83002929.80346  20270156.141                    20270163.168
 11  7 27 17 18  0.0000000  0 10G10G08G07G20G06G16G03G23G19G13
 125290888.633 7  97629301.64244  23842066.719                    23842076.266
 130642679.238 5 101799509.93142  24860469.469                    24860480.852
 119466416.240 7  93090748.590 7  22733701.328                    22733709.648
 126813259.419 6  98815550.85343  24131766.297                    24131775.270
 116518344.397 7  90793544.64844  22172702.938                    22172710.906
 117282597.139 7  91389060.33945  22318137.680                    22318144.617
 109297763.468 8  85167121.81345  20798672.602                    20798680.609
 105408574.906 8  82136571.83146  20058585.688                    20058591.348
 114054460.848 7  88873636.73045  21703840.406                    21703846.980
 106484216.929 8  82974741.79946  20263272.602                    20263279.781
 11  7 27 17 18 30.0000000  0 10G10G08G07G20G06G16G03G23G19G13
 125279913.029 7  97620749.20244  23839978.039                    23839987.371
 130576767.00416 101748149.81652  24847927.422                    24847938.016
 119408011.941 7  93045238.768 7  22722587.797                    22722595.492
 126901989.496 6  98884691.01943  24148650.836                    24148659.852
 116551069.194 7  90819044.49345  22178930.117                    22178938.105
 117369087.550 7  91456455.44145  22334595.867                    22334603.266
 109300492.662 7  85169248.46745  20799192.383                    20799199.918
 105433292.602 8  82155832.34946  20063289.469                    20063294.906
 113989969.334 7  88823383.62945  21691568.109                    21691574.250
 106448531.312 8  82946934.82246  20256481.695                    20256488.316
 11  7 27 17 19  0.0000000  0 10G10G08G07G20G06G16G03G23G19G13
 125269447.499 7  97612594.23944  23837987.172                    23837996.254
 130510807.997 5 101696753.16842  24835375.609                    24835385.246
 119349629.655 7  92999746.087 7  22711477.703                    22711485.660
 126990662.746 6  98953786.92443  24165524.477                    24165533.574
 116584331.659 7  90844963.27345  22185260.008                    22185268.578
 117455718.593 7  91523960.09845  22351082.016                    22351088.914
 109303855.514 7  85171868.87545  20799832.484                    20799840.535
 105458572.643 8  82175531.05946  20068100.023                    20068105.480
 113925906.928 7  88773464.89445  21679377.508                    21679384.016
 106413337.124 8  82919510.78246  20249784.813                    20249791.809
 11  7 27 17 19 30.0000000  0 10G10G08G07G20G06G16G03G23G19G13
 125259491.417 6  97604836.25143  23836092.055                    23836101.488
 130444801.428 5 101645319.55442  24822815.094                    24822825.004
 119291269.398 7  92954270.575 7  22700372.180                    22700380.125
 127079276.096 6  99022836.13643  24182387.070                    24182396.602
 116618130.852 7  90871300.29245  22191691.961                    22191700.461
 117542487.765 7  91591572.42045  22367593.070                    22367600.254
 109307851.754 7  85174982.82845  20800593.016                    20800600.688
 105484415.122 8  82195668.04046  20073018.117                    20073023.063
 113862276.083 7  88723882.44345  21667269.211                    21667275.246
 106378636.124 8  82892471.03746  20243181.508                    20243188.168
 11  7 27 17 20  0.0000000  0 10G10G08G07G20G06G16G03G23G19G13
 125250044.571 6  97597475.06344  23834294.188                    23834303.816
 130378747.247 6 101593848.76443  24810245.016                    24810255.258
 119232931.515 7  92908812.505 7  22689270.547                    22689278.750
 127167827.610 6  99091837.19643  24199237.938                    24199247.488
 116652466.006 7  90898054.94945  22198225.969                    22198234.254
 117629393.089 7  91659290.80444  22384131.430                    22384138.758
 109312481.860 8  85178590.70545  20801473.406                    20801481.234
 105510820.248 8  82216243.44146  20078042.961                    20078048.109
 113799079.930 7  88674638.71045  21655243.195                    21655249.176
 106344430.500 8  82865817.29546  20236672.547                    20236679.258
 11  7 27 17 20 30.0000000  0 10G10G08G07G20G06G16G03G23G19G13
 125241106.539 6  97590510.38243  23832592.859                    23832603.293
 130312644.966 6 101542340.55242  24797666.883                    24797676.121
 119174616.353 7  92863372.138 7  22678173.539                    22678181.836
 127256313.866 6  99160787.38543  24216076.938                    24216086.293
 116687335.971 7  90925226.34445  22204861.023                    22204869.621
 117716431.993 7  91727113.29344  22400693.930                    22400701.125
 109317745.852 8  85182692.51945  20802475.117                    20802483.148
 105537787.672 8  82237257.00046  20083174.406                    20083179.641
 113736321.038 7  88625735.70145  21643300.125                    21643307.020
 106310722.100 8  82839551.00446  20230257.758                    20230264.582
 11  7 27 17 21  0.0000000  0 10G10G08G07G20G06G16G03G23G19G13
 125232676.759 6  97583941.69143  23830988.992                    23830998.254
 130246494.352 6 101490794.70742  24785077.539                    24785088.188
 119116324.018 7  92817949.562 7  22667080.625                    22667089.098
 127344732.661 6  99229684.99643  24232902.359                    24232911.668
 116722739.936 7  90952813.82844  22211598.609                    22211606.934
 117803602.454 7  91795038.29344  22417281.813                    22417289.316
 109323643.801 8  85187288.31945  20803597.836                    20803605.438
 105565317.373 8  82258708.69846  20088413.078                    20088418.652
 113674002.670 7  88577175.95545  21631441.648                    21631447.727
 106277513.103 8  82813673.85946  20223938.516                    20223945.332
 11  7 27 17 21 30.0000000  0 10G10G08G07G20G06G16G03G23G19G13
 125224754.473 6  97577768.47243  23829480.492                    23829490.543
 130180294.864 6 101439210.76442  24772481.102                    24772490.906
 119058054.633 7  92772544.864 7  22655992.445                    22655999.969
 127433081.102 6  99298527.79143  24249715.773                    24249724.109
 116758676.824 7  90980816.56645  22218436.820                    22218445.844
 117890901.963 7  91863063.82645  22433894.500                    22433901.539
 109330175.624 8  85192378.05545  20804840.492                    20804848.660
 105593409.061 8  82280598.30146  20093758.805                    20093763.918
 113612127.315 7  88528961.41545  21619667.336                    21619673.371
 106244805.424 7  82788187.35246  20217713.828                    20217721.023
 11  7 27 17 22  0.0000000  0 10G10G08G07G20G06G16G03G23G19G13
 125217339.885 6  97571990.85942  23828069.750                    23828079.984
 130114046.712 6 101387588.86243  24759873.883                    24759883.656
 118999808.738 7  92727158.466 7  22644908.789                    22644916.695
 127521356.811 6  99367313.89143  24266512.430                    24266522.660
 116795145.770 7  91009233.90645  22225376.875                    22225385.160
 117978328.394 7  91931188.29244  22450531.305                    22450538.750
 109337341.778 8  85197962.05446  20806204.617                    20806212.156
 105622062.842 8  82302925.90146  20099211.625                    20099216.785
 113550697.728 7  88481094.24545  21607977.430                    21607983.629
 106212601.314 7  82763093.24546  20211585.789                    20211592.832
 11  7 27 17 22 30.0000000  0 10G10G08G07G20G06G16G03G23G19G13
 125210432.239 5  97566608.31142  23826754.828                    23826765.438
 130047749.355 6 101335928.63643  24747258.398                    24747268.105
 118941586.460 7  92681790.479 7  22633829.453                    22633837.598
 127609557.362 6  99436041.43043  24283297.281                    24283306.613
 116832145.529 7  91038064.87145  22232418.070                    22232425.781
 118065879.455 7  91999409.83945  22467192.063                    22467199.219
 109345142.315 8  85204040.39845  20807688.344                    20807695.758
 105651278.556 8  82325691.37046  20104771.172                    20104776.289
 113489716.547 7  88433576.46645  21596372.758                    21596379.281
 106180902.372 8  82738392.75846  20205553.484                    20205560.707
 11  7 27 17 23  0.0000000  0 10G10G08G07G20G06G16G03G23G19G13
 125204030.664 5  97561620.02842  23825536.883                    23825547.254
 129981402.427 6 101284229.80943  24734632.820                    24734642.852
 118883387.844 7  92636440.933 7  22622754.398                    22622762.324
 127697679.847 6  99504708.08643  24300066.813                    24300075.895
 116869674.837 7  91067308.48945  22239559.047                    22239567.297
 118153552.253 7  92067726.28244  22483875.242                    22483882.215
 109353576.890 7  85210612.78445  20809293.398                    20809301.270
 105681055.932 8  82348894.49546  20110437.633                    20110443.070
 113429186.872 7  88386410.52045  21584854.797                    21584860.766
 106149710.346 7  82714087.28146  20199618.227                    20199625.016
 11  7 27 17 23 30.0000000  0 10G10G08G07G20G06G16G03G23G19G13
 125198134.932 6  97557025.98242  23824414.578                    23824424.758
 129915005.654 6 101232492.11043  24721997.813                    24722007.848
 118825213.499 6  92591110.297 7  22611684.508                    22611692.242
 127785721.844 6  99573312.10742  24316820.281                    24316830.441
 116907733.230 7  91096964.35245  22246801.969                    22246809.727
 118241345.235 7  92136136.36544  22500581.680                    22500589.344
 109362645.448 8  85217679.17845  20811019.492                    20811027.348
 105711394.744 8  82372535.10846  20116211.023                    20116216.066
 113369111.536 7  88339598.59945  21573422.516                    21573428.867
 106119027.998 7  82690178.95746  20193779.664                    20193786.457
 11  7 27 17 24  0.0000000  0 10G10G08G07G20G06G16G03G23G19G13
 125192744.732 6  97552825.78242  23823389.398                    23823397.637
 129848558.761 6 101180715.37843  24709353.070                    24709363.535
 118767063.537 7  92545798.659 7  22600619.094                    22600626.586
 127873681.074 5  99641851.56043  24333559.352                    24333568.109
 116946319.079 7  91127031.23345  22254144.508                    22254152.891
 118329256.138 7  92204638.32344  22517310.555                    22517317.707
 109372347.888 7  85225239.50745  20812865.797                    20812873.219
 105742295.012 8  82396613.21846  20122090.875                    20122096.379
 113309493.022 7  88293142.64646  21562077.703                    21562084.539
 106088856.607 7  82666668.78246  20188038.180                    20188045.039
 11  7 27 17 24 30.0000000  0 10G10G08G07G20G06G16G03G23G19G13
 125187858.822 6  97549018.56942  23822459.375                    23822467.191
 129782061.068 6 101128899.04543  24696698.773                    24696709.469
 118708937.696 7  92500505.810 7  22589557.906                    22589565.441
 127961554.200 6  99710323.98543  24350279.766                    24350290.414
 116985431.336 7  91157508.29245  22261586.320                    22261595.398
 118417282.384 7  92273230.17344  22534061.438                    22534068.945
 109382684.200 8  85233293.75845  20814832.797                    20814840.844
 105773755.980 8  82421128.23046  20128077.508                    20128083.059
 113250333.806 7  88247044.58845  21550819.797                    21550826.605
 106059197.754 7  82643557.98646  20182394.133                    20182401.238
 11  7 27 17 25  0.0000000  0 10G10G08G07G20G06G16G03G23G19G13
 125183476.778 6  97545603.90142  23821625.820                    23821633.660
 129715512.588 6 101077043.17343  24684035.547                    24684046.059
 118650836.786 7  92455232.404 7  22578501.539                    22578509.574
 128049338.916 6  99778727.47243  24366986.148                    24366995.270
 117025068.608 7  91188394.46045  22269129.344                    22269138.195
 118505421.468 7  92341909.94144  22550834.109                    22550841.137
 109393653.786 8  85241841.47245  20816919.727                    20816927.980
 105805777.664 8  82446080.16046  20134170.992                    20134176.504
 113191636.674 7  88201306.61646  21539650.508                    21539656.648
 106030053.404 7  82620848.11246  20176848.859                    20176855.258
 11  7 27 17 25 30.0000000  0 10G10G08G07G20G06G16G03G23G19G13
 125179597.951 6  97542581.37742  23820888.320                    23820895.844
 129648913.205 6 101025147.56643  24671362.320                    24671372.578
 118592761.005 7  92409978.585 7  22567449.852                    22567458.039
 128137032.865 6  99847060.26643  24383673.328                    24383682.941
 117065229.890 7  91219688.93844  22276772.570                    22276779.852
 118593671.615 7  92410676.25044  22567627.445                    22567633.914
 109405256.840 8  85250882.80045  20819128.492                    20819135.918
 105838359.726 8  82471468.76046  20140371.414                    20140376.652
 113133404.530 7  88155930.94145  21528569.047                    21528575.320
 106001425.787 8  82598540.88046  20171400.938                    20171407.594
 11  7 27 17 26  0.0000000  0 10G10G08G07G20G06G16G03G23G19G13
 125176221.647 6  97539950.46543  23820245.141                    23820254.629
 129582262.778 6 100973212.22443  24658678.320                    24658689.039
 118534710.480 7  92364744.419 7  22556403.172                    22556411.047
 128224633.582 6  99915320.35943  24400342.859                    24400353.508
 117105914.171 7  91251390.98345  22284514.125                    22284522.301
 118682030.438 7  92479527.24944  22584441.617                    22584449.215
 109417493.134 7  85260417.56045  20821456.305                    20821464.543
 105871501.730 8  82497293.66846  20146678.055                    20146683.570
 113075639.745 7  88110919.46046  21517576.656                    21517582.980
 105973316.360 8  82576637.43546  20166051.570                    20166058.629
 11  7 27 17 26 30.0000000  0 10G10G08G07G20G06G16G03G23G19G13
 125173347.333 6  97537710.72243  23819698.945                    23819708.406
 129515560.543 6 100921236.52743  24645985.852                    24645995.602
 118476685.618 7  92319530.255 7  22545361.984                    22545369.324
 128312138.425 6  99983505.72743  24416995.422                    24417005.664
 117147120.038 7  91283499.43945  22292355.602                    22292363.703
 118770495.873 7  92548461.30044  22601276.313                    22601283.066
 109430362.556 8  85270445.65145  20823905.820                    20823913.570
 105905203.588 8  82523554.83746  20153091.438                    20153097.055
 113018345.050 7  88066274.28046  21506674.188                    21506680.332
 105945727.050 7  82555139.26346  20160801.430                    20160808.637
 11  7 27 17 27  0.0000000  0 10G10G08G07G20G06G16G03G23G19G13
 125170974.336 6  97535861.62143  23819247.672                    23819256.473
 129448806.530 6 100869220.46643  24633282.922                    24633293.086
 118418687.104 7  92274336.629 7  22534324.906                    22534333.254
 128399544.933 6 100051614.53443  24433627.906                    24433637.953
 117188846.547 7  91316013.56945  22300296.023                    22300304.070
 118859065.664 7  92617476.71344  22618130.000                    22618137.430
 109443864.894 8  85280966.94145  20826475.211                    20826483.125
 105939464.935 8  82550251.96346  20159611.344                    20159616.684
 112961523.456 7  88021997.73945  21495861.070                    21495867.316
 105918660.100 7  82534048.13446  20155650.945                    20155657.980
 11  7 27 17 27 30.0000000  0 10G10G08G07G20G06G16G03G23G19G13
 125169101.610 6  97534402.33443  23818891.547                    23818900.605
 129382000.221 6 100817163.67643  24620570.352                    24620580.930
 118360715.001 7  92229163.574 7  22523293.414                    22523301.156
 128486850.670 6 100119644.79443  24450240.945                    24450252.074
 117231092.201 7  91348932.23445  22308335.367                    22308343.000
 118947737.522 7  92686571.62344  22635004.336                    22635011.188
 109457999.647 8  85291981.01345  20829164.852                    20829172.770
 105974285.152 8  82577384.58146  20166237.258                    20166242.813
 112905177.059 7  87978091.48346  21485138.820                    21485145.180
 105892116.846 7  82513365.08046  20150600.078                    20150606.957
 11  7 27 17 28  0.0000000  0 10G10G08G07G20G06G16G03G23G19G13
 125167728.324 6  97533332.21943  23818630.203                    23818639.273
 129315141.624 6 100765066.13043  24607847.031                    24607857.945
 118302769.242 7  92184011.055 7  22512266.727                    22512274.406
 128574052.792 6 100187594.28743  24466837.258                    24466847.059
 117273855.457 7  91382254.24045  22316472.594                    22316480.750
 119036509.197 7  92755744.32944  22651897.094                    22651903.805
 109472766.397 8  85303487.55745  20831974.852                    20831982.816
 106009663.706 8  82604952.25746  20172969.500                    20172974.805
 112849308.584 7  87934557.64346  21474507.289                    21474513.695
 105866099.118 7  82493091.52246  20145648.945                    20145655.883
 11  7 27 17 28 30.0000000  0 10G10G08G07G20G06G16G03G23G19G13
 125166853.997 6  97532650.91344  23818463.969                    23818472.980
 129248230.902 6 100712927.95443  24595113.953                    24595124.816
 118244850.684 7  92138879.721 7  22501244.984                    22501252.594
 128661149.158 6 100255461.39843  24483409.758                    24483420.520
 117317135.489 7  91415978.91545  22324708.805                    22324716.652
 119125378.851 7  92824993.37044  22668808.469                    22668815.637
 109488164.905 8  85315486.37145  20834904.977                    20834913.234
 106045600.698 8  82632955.08646  20179808.133                    20179813.668
 112793920.879 7  87891398.41245  21463967.461                    21463973.664
 105840608.937 7  82473229.03646  20140798.305                    20140805.414
 11  7 27 17 29  0.0000000  0 10G10G08G07G20G06G16G03G23G19G13
 125166477.457 6  97532357.50643  23818393.031                    23818402.035
 129181267.344 6 100660748.61643  24582371.195                    24582381.645
 118186959.423 7  92093769.660 7  22490228.313                    22490236.332
 128748137.075 6 100323243.97243  24499963.297                    24499974.336
 117360930.531 7  91450104.89145  22333042.477                    22333050.762
 119214343.765 7  92894316.64644  22685738.047                    22685744.934
 109504194.443 8  85327976.91845  20837955.594                    20837963.555
 106082094.629 8  82661391.88946  20186753.047                    20186758.648
 112739016.097 7  87848615.49945  21453519.172                    21453525.504
 105815647.550 7  82453778.60046  20136048.133                    20136055.152
 11  7 27 17 29 30.0000000  0 10G10G08G07G20G06G16G03G23G19G13
 125166598.285 6  97532451.62044  23818414.766                    23818424.789
 129114250.693 6 100608527.90643  24569618.617                    24569629.055
 118129095.937 7  92048681.280 7  22479217.469                    22479225.363
 128835014.225 6 100390940.24943  24516496.680                    24516506.105
 117405239.484 7  91484631.31345  22341474.273                    22341482.664
 119303402.270 7  92963712.83744  22702684.531                    22702691.996
 109520855.141 7  85340959.26145  20841125.898                    20841134.367
 106119145.795 8  82690262.90746  20193803.273                    20193809.125
 112684596.975 7  87806211.00845  21443163.992                    21443169.844
 105791216.707 7  82434741.58246  20131398.875                    20131406.238
 11  7 27 17 30  0.0000000  0 10G10G08G07G20G06G16G03G23G19G13
 125167215.634 6  97532932.67144  23818532.414                    23818541.926
 129047180.645 6 100556265.57743  24556855.656                    24556865.938
 118071260.658 7  92003614.833 7  22468212.258                    22468219.570
 128921777.864 6 100458548.10843  24533006.008                    24533016.863
 117450061.186 7  91519557.29044  22350003.461                    22350011.316
 119392552.144 7  93033180.22744  22719649.070                    22719656.641
 109538146.403 7  85354432.95345  20844416.102                    20844424.648
 106156753.779 8  82719567.81146  20200960.031                    20200965.723
 112630666.063 7  87764186.94945  21432900.695                    21432906.758
 105767318.531 8  82416119.61846  20126851.719                    20126858.738
 11  7 27 17 30 30.0000000  0 10G10G08G07G20G06G16G03G23G19G13
 125168328.578 6  97533799.87444  23818744.539                    23818753.891
 128980057.384 6 100503961.79143  24544082.008                    24544092.387
 118013453.797 7  91958570.536 7  22457211.461                    22457219.332
 129008425.898 6 100526065.80443  24549495.125                    24549505.949
 117495394.057 7  91554881.58144  22358629.797                    22358638.270
 119481791.225 7  93102717.13144  22736631.102                    22736637.871
 109556067.802 8  85368397.65945  20847826.828                    20847834.539
 106194917.568 8  82749305.79646  20208222.211                    20208227.781
 112577226.000 7  87722545.35445  21422731.703                    21422737.984
 105743954.634 8  82397913.97546  20122405.547                    20122412.594
 11  7 27 17 31  0.0000000  0 10G10G08G07G20G06G16G03G23G19G13
 125169936.537 6  97535052.80944  23819050.344                    23819060.051
 128912880.606 6 100451616.27342  24531298.742                    24531308.180
 117955676.212 7  91913549.059 7  22446216.656                    22446224.453
 129094955.739 6 100593491.43542  24565961.617                    24565972.211
 117541236.764 7  91590603.14744  22367353.867                    22367361.586
 119571117.528 7  93172322.02544  22753629.094                    22753636.375
 109574618.944 8  85382853.08945  20851356.805                    20851364.367
 106233637.168 8  82779476.88746  20215590.938                    20215595.852
 112524279.391 7  87681288.27745  21412656.055                    21412662.289
 105721127.077 8  82380126.26746  20118061.836                    20118068.898
 11  7 27 17 31 30.0000000  0 10G10G08G07G20G06G16G03G23G19G13
 125172038.691 7  97536690.84644  23819450.797                    23819460.055
 128845650.454 6 100399229.18943  24518505.016                    24518515.457
 117897928.198 7  91868550.625 7  22435227.563                    22435235.887
 129181365.463 6 100660823.48442  24582405.117                    24582415.496
 117587588.386 7  91626721.26645  22376174.406                    22376182.750
 119660529.281 7  93241993.48044  22770644.461                    22770650.980
 109593799.625 8  85397799.07945  20855006.742                    20855014.664
 106272912.385 8  82810080.92546  20223064.523                    20223070.086
 112471828.935 7  87640417.81845  21402674.805                    21402681.266
 105698837.118 8  82362757.46046  20113820.102                    20113826.891
 11  7 27 17 32  0.0000000  0 10G10G08G07G20G06G16G03G23G19G13
 125174632.815 6  97538712.20644  23819944.820                    23819953.539
 128778365.381 6 100346799.32943  24505702.109                    24505711.496
 117840209.105 7  91823574.705 7  22424243.680                    22424251.637
 129267651.185 6 100728058.89842  24598825.023                    24598835.367
 117634446.191 7  91663233.81844  22385091.008                    22385099.488
 119750023.128 7  93311728.90744  22787674.289                    22787681.094
 109613608.295 7  85413234.39045  20858776.000                    20858784.238
 106312740.987 8  82841116.16446  20230643.820                    20230649.137
 112419875.664 7  87599934.75945  21392788.672                    21392794.551
 105677085.592 7  82345808.21746  20109680.805                    20109687.887
 11  7 27 17 32 30.0000000  0 10G10G08G07G20G06G16G03G23G19G13
 125177719.384 7  97541117.31444  23820531.617                    23820541.203
 128711026.513 6 100294327.52243  24492887.570                    24492897.727
 117782520.580 7  91778622.620 7  22413266.797                    22413274.484
 129353811.925 6 100795196.86643  24615220.438                    24615231.820
 117681809.880 7  91700140.56944  22394103.344                    22394112.422
 119839598.145 7  93381527.57544  22804719.859                    22804726.598
 109634045.424 7  85429159.42245  20862665.039                    20862672.988
 106353123.775 8  82872583.24946  20238328.414                    20238333.734
 112368423.579 7  87559842.25046  21382997.836                    21383004.273
 105655875.229 8  82329280.65146  20105644.750                    20105651.277
 11  7 27 17 33  0.0000000  0 10G10G08G07G20G06G16G03G23G19G13
 125181296.614 7  97543904.74644  23821212.594                    23821221.941
 128643633.201 6 100241813.27343  24480062.602                    24480072.539
 117724862.664 7  91733694.382 7  22402294.477                    22402302.457
 129439844.624 6 100862235.14342  24631593.102                    24631603.613
 117729677.606 7  91737440.07944  22403213.055                    22403220.996
 119929251.979 7  93451387.70444  22821779.711                    22821787.223
 109655109.840 7  85445573.23545  20866673.930                    20866681.594
 106394059.521 8  82904481.19946  20246117.883                    20246123.574
 112317474.479 7  87520141.66945  21373302.656                    21373308.699
 105635206.898 8  82313175.45646  20101711.531                    20101718.453
 11  7 27 17 33 30.0000000  0 10G10G08G07G20G06G16G03G23G19G13
 125185363.774 6  97547073.95344  23821986.703                    23821996.230
 128576185.315 6 100189256.54943  24467228.188                    24467237.887
 117667235.635 7  91688790.200 7  22391328.375                    22391335.828
 129525747.323 6 100929172.10342  24647940.172                    24647949.574
 117778047.823 7  91775131.12244  22412417.297                    22412425.605
 120018982.431 7  93521307.47644  22838855.344                    22838862.578
 109676801.039 8  85462475.47045  20870800.953                    20870809.328
 106435547.630 8  82936809.56546  20254012.992                    20254018.320
 112267030.855 7  87480834.96546  21363703.188                    21363709.559
 105615082.636 7  82297494.19646  20097882.070                    20097889.129
 11  7 27 17 34  0.0000000  0 10G10G08G07G20G06G16G03G23G19G13
 125189919.634 7  97550623.94644  23822853.273                    23822862.898
 128508682.288 6 100136656.80943  24454382.578                    24454392.328
 117609639.942 7  91643910.454 7  22380368.695                    22380376.133
 129611516.923 6 100996005.34343  24664261.461                    24664271.199
 117826918.905 7  91813212.47944  22421717.313                    22421725.680
 120108787.355 7  93591285.31844  22855944.148                    22855952.074
 109699118.237 7  85479865.47745  20875048.320                    20875056.426
 106477587.036 8  82969567.51846  20262013.000                    20262018.496
 112217094.693 7  87441923.67745  21354200.680                    21354207.094
 105595503.525 8  82282237.74246  20094156.352                    20094163.629
 11  7 27 17 34 30.0000000  0 10G10G08G07G20G06G16G03G23G19G13
 125194963.371 7  97554554.11244  23823813.328                    23823822.840
 128441124.634 6 100084014.53043  24441526.094                    24441536.102
 117552076.362 7  91599055.733 7  22369414.313                    22369422.129
 129697151.621 5 101062733.41942  24680556.172                    24680567.039
 117876289.569 7  91851683.08445  22431112.477                    22431120.570
 120198665.042 7  93661319.80544  22873048.164                    22873055.547
 109722060.824 7  85497742.80445  20879414.109                    20879422.148
 106520177.548 8  83002754.90246  20270117.609                    20270122.891
 112167668.873 7  87403410.06345  21344795.188                    21344801.465
 105576471.544 8  82267407.61946  20090534.617                    20090541.504
 11  7 27 17 35  0.0000000  0 10G10G08G07G20G06G16G03G23G19G13
 125200493.426 7  97558863.21244  23824865.570                    23824874.676
 128373511.826 6 100031329.28043  24428660.766                    24428669.824
 117494544.726 7  91554225.902 7  22358465.961                    22358474.355
 129782648.467 6 101129354.09742  24696827.258                    24696837.195
 117926157.964 7  91890541.57044  22440602.094                    22440609.969
 120288612.613 7  93731408.76844  22890164.219                    22890172.051
 109745627.694 7  85516106.58745  20883898.523                    20883906.867
 106563317.860 8  83036370.70046  20278326.930                    20278332.180
 112118755.172 7  87365295.50446  21335487.336                    21335493.711
 105557987.625 8  82253004.55446  20087017.250                    20087024.496
 11  7 27 17 35 30.0000000  0 10G10G08G07G20G06G16G03G23G19G13
 125206509.858 6  97563551.33044  23826010.781                    23826020.012
 128305844.137 6  99978601.25943  24415783.484                    24415792.758
 117437046.496 7  91509422.090 7  22347524.945                    22347532.383
 129868005.915 6 101195866.19743  24713069.711                    24713080.617
 117976523.264 7  91929787.23244  22450185.805                    22450194.027
 120378629.258 7  93801551.53944  22907294.008                    22907301.680
 109769819.328 7  85534957.20045  20888502.391                    20888510.219
 106607008.329 8  83070415.18046  20286641.078                    20286646.594
 112070356.986 7  87327582.65046  21326277.383                    21326283.586
 105540053.992 7  82239030.29046  20083605.023                    20083611.492
 11  7 27 17 36  0.0000000  0 10G10G08G07G20G06G16G03G23G19G13
 125213010.321 7  97568616.59644  23827246.945                    23827256.836
 128238120.440 6  99925829.53243  24402896.477                    24402905.160
 117379580.948 7  91464643.746 7  22336589.063                    22336597.230
 129953220.827 6 101262267.24842  24729285.500                    24729296.523
 118027382.976 7  91969418.16344  22459864.172                    22459872.707
 120468711.897 7  93871745.75644  22924435.898                    22924443.922
 109794633.637 8  85554293.00445  20893224.055                    20893232.480
 106651246.731 8  83104886.63646  20295059.328                    20295064.605
 112022475.387 7  87290272.31246  21317166.195                    21317171.922
 105522671.512 8  82225485.49346  20080297.055                    20080303.777
 11  7 27 17 36 30.0000000  0 10G10G08G07G20G06G16G03G23G19G13
 125219994.903 6  97574059.10844  23828576.445                    23828586.266
 128170341.432 6  99873014.74043  24389998.617                    24390007.613
 117322149.284 7  91419891.821 7  22325660.047                    22325668.055
 130038291.499 6 101328555.85943  24745473.891                    24745485.781
 118078736.057 7  92009433.52844  22469636.594                    22469644.852
 120558859.401 7  93941990.49444  22941591.109                    22941598.617
 109820070.461 7  85574113.87945  20898064.883                    20898073.082
 106696033.063 8  83139785.04346  20303581.961                    20303587.465
 111975113.343 7  87253366.84446  21308153.352                    21308159.582
 105505842.281 7  82212371.78946  20077094.484                    20077101.586
 11  7 27 17 37  0.0000000  0 10G10G08G07G20G06G16G03G23G19G13
 125227461.706 7  97579877.38444  23829997.570                    23830007.195
 128102506.938 6  99820156.70043  24377090.109                    24377098.945
 117264752.315 7  91375166.919 7  22314738.352                    22314745.926
 130123215.539 6 101394730.19843  24761634.500                    24761646.563
 118130581.010 7  92049832.16245  22479502.016                    22479510.766
 120649069.417 7  94012283.96544  22958757.430                    22958764.676
 109846129.050 8  85594419.26945  20903023.672                    20903031.836
 106741366.483 8  83175109.75346  20312208.406                    20312213.984
 111928273.374 7  87216868.18245  21299239.883                    21299245.879
 105489567.411 8  82199690.06746  20073997.305                    20074004.203
 11  7 27 17 37 30.0000000  0 10G10G08G07G20G06G16G03G23G19G13
 125235409.552 7  97586070.49344  23831510.102                    23831519.387
 128034616.527 7  99767255.12743  24364171.016                    24364180.453
 117207389.729 7  91330468.816 7  22303822.617                    22303830.176
 130207989.908 6 101460787.90343  24777767.805                    24777778.652
 118182915.515 7  92090612.28545  22489461.344                    22489469.930
 120739339.610 7  94082624.33844  22975935.531                    22975941.996
 109872808.001 7  85615208.05745  20908100.641                    20908108.184
 106787245.569 8  83210859.66146  20320938.977                    20320944.480
 111881956.721 7  87180777.29846  21290425.930                    21290432.148
 105473848.016 7  82187441.17446  20071006.227                    20071012.957
 11  7 27 17 38  0.0000000  0  9G10G08G07G06G16G03G23G19G13
 125243837.479 7  97592637.68244  23833113.617                    23833123.180
 127966670.684 6  99714310.36043  24351241.078                    24351251.055
 117150062.937 7  91285798.616 7  22292913.430                    22292921.316
 118235738.619 7  92131773.11144  22499512.406                    22499521.508
 120829668.695 7  94153010.60644  22993124.609                    22993131.219
 109900107.263 7  85636480.18345  20913295.289                    20913303.223
 106833670.257 8  83247034.71546  20329773.570                    20329779.109
 111836166.796 7  87145096.85246  21281712.617                    21281718.473
 105458685.852 8  82175626.49546  20068120.617                    20068127.844
 11  7 27 17 38 30.0000000  0  9G10G08G07G06G16G03G23G19G13
 125252744.113 7  97599577.88544  23834808.445                    23834817.965
 127898668.891 6  99661322.05243  24338299.992                    24338311.145
 117092771.802 7  91241156.185 7  22282011.195                    22282019.191
 118289048.338 7  92173313.12844  22509657.563                    22509665.828
 120920054.361 7  94223440.97644  23010324.125                    23010330.621
 109928025.342 7  85658234.52245  20918608.117                    20918615.949
 106880639.141 8  83283633.81446  20338711.094                    20338716.563
 111790905.125 7  87109828.02646  21273099.461                    21273105.496
 105444082.136 8  82164246.96746  20065341.938                    20065349.078
 11  7 27 17 39  0.0000000  0  9G10G08G07G06G16G03G23G19G13
 125262127.805 7  97606889.82744  23836594.461                    23836604.023
 127830610.582 6  99608289.64843  24325349.711                    24325359.539
 117035516.605 7  91196541.760 7  22271116.188                    22271123.844
 118342842.666 7  92215230.74545  22519894.305                    22519902.867
 121010494.021 7  94293913.39744  23027534.352                    23027541.207
 109956561.140 7  85680470.20245  20924037.813                    20924045.988
 106928150.620 8  83320655.72146  20347752.281                    20347758.270
 111746173.417 7  87074972.16846  21264587.250                    21264593.352
 105430037.491 7  82153303.08046  20062669.445                    20062676.027
 11  7 27 17 39 30.0000000  0  9G10G08G07G06G16G03G23G19G13
 125271987.921 7  97614572.99644  23838470.359                    23838479.609
 127762496.044 6  99555213.47743  24312387.070                    24312397.340
 116978298.393 7  91151956.161 7  22260228.219                    22260235.680
 118397120.202 7  92257524.91544  22530222.820                    22530231.883
 121100986.321 6  94364426.84443  23044753.305                    23044761.262
 109985713.670 7  85703186.44345  20929586.078                    20929593.457
 106976204.449 8  83358100.22946  20356896.727                    20356902.434
 111701974.518 7  87040531.47846  21256176.086                    21256182.625
 105416553.779 7  82142796.28646  20060103.453                    20060110.531
 11  7 27 17 40  0.0000000  0  9G10G08G07G06G16G03G23G19G13
 125282323.460 7  97622626.63844  23840437.305                    23840447.234
 127694325.418 6  99502093.53643  24299415.430                    24299424.953
 116921117.769 7  91107399.846 7  22249346.898                    22249353.902
 118451879.460 7  92300194.43445  22540643.625                    22540652.238
 121191529.729 6  94434980.09544  23061983.867                    23061991.168
 110015482.229 8  85726382.71245  20935250.547                    20935258.156
 107024800.079 8  83395966.92946  20366144.164                    20366150.004
 111658310.497 7  87006507.59245  21247867.281                    21247874.230
 105403632.894 8  82132728.06946  20057644.500                    20057651.492
 11  7 27 17 40 30.0000000  0  9G10G08G07G06G16G03G23G19G13
 125293132.563 7  97631049.28544  23842494.492                    23842504.043
 127626098.149 6  99448929.45243  24286432.195                    24286441.398
 116863974.908 7  91062872.953 7  22238472.742                    22238480.520
 118507118.318 7  92343237.67045  22551155.164                    22551164.117
 121282122.163 7  94505571.56043  23079223.102                    23079230.242
 110045865.519 7  85750058.00045  20941032.203                    20941039.992
 107073935.718 8  83434254.41146  20375494.656                    20375500.145
 111615183.227 7  86972901.93545  21239660.484                    21239666.816
 105391275.569 7  82123098.97946  20055293.313                    20055300.230
 11  7 27 17 41  0.0000000  0  9G10G08G07G06G16G03G23G19G13
 125304414.057 7  97639840.03944  23844641.195                    23844650.730
 127557815.017 6  99395721.84043  24273437.906                    24273447.668
 116806870.691 7  91018376.181 7  22227606.508                    22227613.730
 118562835.404 7  92386653.54845  22561757.492                    22561766.465
 121372761.164 6  94576199.28444  23096471.836                    23096478.867
 110076862.751 7  85774211.67145  20946930.523                    20946939.016
 107123610.919 8  83472962.33546  20384947.477                    20384953.250
 111572595.040 7  86939716.35946  21231555.953                    21231562.637
 105379483.439 8  82113910.31146  20053049.242                    20053056.301
 11  7 27 17 41 30.0000000  0  9G10G08G07G06G16G03G23G19G13
 125316166.449 7  97648997.72744  23846877.672                    23846887.309
 127489475.338 6  99342470.16143  24260433.813                    24260443.055
 116749805.664 7  90973909.942 7  22216746.992                    22216754.469
 118619028.621 7  92430440.43644  22572450.664                    22572459.230
 121463444.929 7  94646861.91744  23113727.977                    23113734.656
 110108472.984 7  85798842.99345  20952946.195                    20952953.641
 107173824.116 8  83512089.47446  20394502.445                    20394508.008
 111530547.843 7  86906952.31946  21223555.414                    21223561.023
 105368257.132 8  82105162.53546  20050912.883                    20050919.578
 11  7 27 17 42  0.0000000  0  9G10G08G07G06G16G03G23G19G13
 125328388.329 7  97658521.23744  23849203.203                    23849212.953
 127421078.664 6  99289174.09843  24247417.781                    24247427.773
 116692779.959 7  90929474.336 7  22205895.602                    22205903.191
 118675696.106 7  92474596.89444  22583234.617                    22583242.867
 121554171.556 6  94717557.96544  23130992.867                    23131000.332
 110140694.501 7  85823950.66445  20959077.578                    20959085.207
 107224574.051 8  83551634.84746  20404159.828                    20404165.676
 111489043.527 7  86874611.32045  21215656.711                    21215663.004
 105357597.807 7  82096856.55946  20048884.555                    20048891.211
 11  7 27 17 42 30.0000000  0  9G10G08G07G06G16G03G23G19G13
 125341078.799 7  97668409.87544  23851617.805                    23851627.691
 127352625.568 6  99235834.08043  24234390.641                    24234401.344
 116635794.955 7  90885070.458 7  22195051.617                    22195058.848
 118732836.532 7  92519121.89144  22594107.398                    22594116.047
 121644939.674 6  94788286.29944  23148265.258                    23148272.668
 110173526.698 7  85849534.18845  20965325.609                    20965333.246
 107275860.410 8  83591598.21946  20413919.406                    20413925.230
 111448084.639 7  86842695.32946  21207862.914                    21207868.715
 105347507.255 7  82088993.78846  20046964.391                    20046971.012
 11  7 27 17 43  0.0000000  0  9G10G08G07G06G16G03G23G19G13
 125354235.565 7  97678661.86844  23854122.305                    23854131.539
 127284115.176 6  99182449.47243  24221354.219                    24221364.441
 116578850.174 7  90840697.903 7  22184215.047                    22184222.547
 118790447.179 7  92564013.27144  22605070.922                    22605079.027
 121735746.371 6  94859044.73444  23165544.938                    23165552.680
 110206967.683 7  85875592.07945  20971688.898                    20971697.102
 107327681.240 8  83631978.05146  20423780.609                    20423786.352
 111407672.409 7  86811205.30246  21200172.359                    21200178.445
 105337985.747 7  82081574.42646  20045152.367                    20045159.695
 11  7 27 17 43 30.0000000  0  9G10G08G07G06G16G03G23G19G13
 125367858.684 7  97689277.24044  23856714.203                    23856724.039
 127215549.017 6  99129021.34643  24208306.766                    24208316.789
 116521947.788 7  90796358.388 7  22173386.922                    22173394.641
 118848527.470 7  92609270.61344  22616123.250                    22616131.445
 121826591.457 6  94929833.04644  23182832.281                    23182840.063
 110241017.733 7  85902124.55745  20978168.461                    20978177.098
 107380036.393 8  83672774.24446  20433743.938                    20433749.566
 111367809.740 7  86780143.49746  21192587.078                    21192592.902
 105329036.143 8  82074600.70646  20043449.391                    20043456.348
 11  7 27 17 44  0.0000000  0  9G10G08G07G06G16G03G23G19G13
 125381945.678 7  97700254.08843  23859395.422                    23859404.355
 127146926.046 6  99075548.93243  24195247.883                    24195257.668
 116465087.541 7  90752051.718 7  22162567.109                    22162574.609
 118907074.697 7  92654891.79044  22627264.398                    22627272.805
 121917471.908 6  95000648.92144  23200127.391                    23200134.969
 110275674.394 8  85929129.73145  20984763.539                    20984771.207
 107432923.843 8  83713985.21346  20443807.445                    20443812.965
 111328498.024 7  86749511.01846  21185106.117                    21185112.004
 105320658.059 7  82068072.32646  20041855.156                    20041861.980
 11  7 27 17 44 30.0000000  0  9G10G08G07G06G16G03G23G19G13
 125396495.284 6  97711591.39843  23862163.469                    23862173.047
 127078246.439 6  99022032.38743  24182178.281                    24182189.012
 116408269.891 7  90707778.231 7  22151755.344                    22151762.539
 118966087.271 7  92700875.58944  22638494.453                    22638502.957
 122008386.192 6  95071491.16644  23217426.758                    23217434.461
 110310937.041 8  85956607.11945  20991473.719                    20991481.559
 107486342.686 8  83755610.25846  20453973.188                    20453978.727
 111289739.283 7  86719309.42546  21177730.906                    21177736.828
 105312853.083 8  82061990.52146  20040369.992                    20040376.918
 11  7 27 17 45  0.0000000  0  9G10G08G07G06G16G03G23G19G13
 125411505.574 7  97723287.71943  23865020.359                    23865029.871
 127009509.435 6  98968471.14243  24169098.672                    24169108.285
 116351495.221 7  90663538.245 7  22140950.992                    22140958.629
 119025562.751 7  92747220.08644  22649811.969                    22649819.883
 122099332.018 7  95142358.01044  23234734.109                    23234741.824
 110346803.773 7  85984555.20345  20998298.766                    20998306.859
 107540291.426 8  83797648.20446  20464239.180                    20464244.828
 111251534.896 7  86689539.79345  21170460.586                    21170466.605
 105305621.681 8  82056355.65446  20038993.711                    20039001.055
 11  7 27 17 45 30.0000000  0  9G10G08G07G06G16G03G23G19G13
 125426976.101 6  97735342.65943  23867963.414                    23867973.246
 126940716.425 6  98914866.25643  24156008.086                    24156017.715
 116294765.254 7  90619333.089 7  22130156.000                    22130163.098
 119085500.415 7  92793924.74144  22661217.805                    22661226.523
 122190308.625 7  95213248.78844  23252045.672                    23252054.156
 110383274.500 7  86012973.93145  21005239.367                    21005247.473
 107594769.480 8  83840098.60046  20474605.984                    20474612.109
 111213887.783 7  86660204.39545  21163296.648                    21163302.609
 105298965.989 8  82051169.39546  20037727.211                    20037734.141
 11  7 27 17 46  0.0000000  0  9G10G08G07G06G16G03G23G19G13
 125442904.454 6  97747754.33043  23870995.297                    23871003.941
 126871866.425 6  98861216.94743  24142906.609                    24142916.094
 116238079.594 7  90575162.459 7  22119368.641                    22119376.438
 119145897.133 7  92840987.08444  22672710.484                    22672719.422
 122281313.132 7  95284161.36144  23269363.430                    23269370.832
 110420346.667 8  86041861.31845  21012293.820                    21012302.645
 107649774.918 8  83882959.93946  20485073.320                    20485078.816
 111176799.001 7  86631304.05446  21156238.344                    21156244.578
 105292886.167 8  82046431.85946  20036569.914                    20036577.543
 11  7 27 17 46 30.0000000  0  9G10G08G07G06G16G03G23G19G13
 125459289.340 6  97760521.72943  23874112.211                    23874122.551
 126802959.679 6  98807523.41643  24129794.789                    24129803.434
 116181439.268 7  90531027.158 7  22108590.578                    22108598.133
 119206751.563 7  92888406.09644  22684291.258                    22684299.453
 122372343.999 7  95355094.45444  23286686.320                    23286694.203
 110458019.514 7  86071216.76545  21019462.461                    21019470.793
 107705306.716 8  83926231.43946  20495640.758                    20495646.371
 111140270.533 7  86602840.32545  21149287.625                    21149293.879
 105287383.453 8  82042144.01846  20035523.188                    20035529.934
 11  7 27 17 47  0.0000000  0  9G10G08G07G06G16G03G23G19G13
 125476129.233 6  97773643.68943  23877317.836                    23877326.758
 126733996.089 6  98753785.54543  24116670.000                    24116679.605
 116124844.934 7  90486927.685 7  22097820.945                    22097828.484
 119268061.503 7  92936180.05444  22695958.320                    22695966.426
 122463399.384 6  95426046.61544  23304013.703                    23304021.094
 110496291.179 7  86101038.83045  21026745.484                    21026753.543
 107761363.260 8  83969911.83246  20506307.781                    20506313.750
 111104304.039 7  86574814.49345  21142443.328                    21142449.340
 105282458.491 8  82038306.37146  20034586.188                    20034592.879
 11  7 27 17 47 30.0000000  0  9G10G08G07G06G16G03G23G19G13
 125493422.769 6  97787119.13143  23880607.930                    23880617.594
 126664975.950 6  98700003.60043  24103535.688                    24103545.348
 116068297.412 7  90442864.708 7  22087060.344                    22087067.984
 119329825.289 7  92984307.66444  22707711.438                    22707720.059
 122554478.010 7  95497016.96043  23321345.000                    23321352.813
 110535160.650 8  86131326.71945  21034142.391                    21034150.117
 107817943.743 8  84014000.47846  20517074.844                    20517080.656
 111068901.834 7  86547228.37146  21135706.930                    21135712.613
 105278112.945 8  82034920.22046  20033759.227                    20033765.988
 11  7 27 17 48  0.0000000  0  9G10G08G07G06G16G03G23G19G13
 125511168.280 6  97800946.78043  23883985.000                    23883994.266
 126595898.799 6  98646177.30343  24090390.305                    24090400.688
 116011797.393 7  90398838.740 7  22076308.391                    22076316.262
 119392040.929 7  93032787.37744  22719550.461                    22719558.801
 122645577.757 7  95568003.70844  23338681.094                    23338688.898
 110574626.557 8  86162079.36645  21041652.359                    21041660.246
 107875046.565 8  84058496.15146  20527940.781                    20527946.766
 111034065.532 7  86520083.20946  21129077.734                    21129083.449
 105274347.389 8  82031986.00846  20033042.719                    20033049.504
 11  7 27 17 48 30.0000000  0  9G10G08G07G06G16G03G23G19G13
 125529363.995 7  97815125.22443  23887447.820                    23887456.633
 126526764.805 7  98592306.74344  24077235.563                    24077245.504
 115955345.356 7  90354850.157 7  22065566.508                    22065573.723
 119454706.249 7  93081617.44544  22731475.250                    22731484.180
 122736696.812 6  95639005.53644  23356020.273                    23356028.020
 110614687.368 8  86193295.56645  21049275.164                    21049283.648
 107932670.529 8  84103397.90746  20538906.320                    20538912.488
 110999796.686 7  86493380.22146  21122556.289                    21122562.281
 105271162.604 8  82029504.34146  20032436.984                    20032443.703
 11  7 27 17 49  0.0000000  0  9G10G08G07G06G16G03G23G19G13
 125548008.575 6  97829653.42843  23890995.539                    23891004.586
 126457574.695 7  98538392.41944  24064068.805                    24064078.930
 115898942.580 7  90310899.951 7  22054832.914                    22054840.324
 119517819.665 7  93130796.70344  22743485.305                    22743494.352
 122827833.717 6  95710021.24943  23373363.031                    23373370.359
 110655342.043 8  86224974.51245  21057012.172                    21057020.316
 107990814.397 8  84148704.77746  20549971.172                    20549977.012
 110966097.209 7  86467120.89646  21116143.453                    21116149.461
 105268559.923 7  82027476.26346  20031940.992                    20031948.012
 11  7 27 17 49 30.0000000  0  9G10G08G07G06G16G03G23G19G13
 125567099.682 6  97844529.64243  23894628.453                    23894637.047
 126388327.823 7  98484433.87044  24050892.461                    24050901.859
 115842588.919 7  90266988.032 7  22044109.203                    22044116.934
 119581378.469 7  93180323.00744  22755580.563                    22755588.871
 122918986.469 6  95781049.30243  23390709.359                    23390716.324
 110696588.577 8  86257114.66145  21064860.664                    21064868.516
 108049476.104 8  84194415.16046  20561134.195                    20561140.285
 110932968.245 7  86441306.12946  21109839.609                    21109845.277
 105266539.269 8  82025901.71546  20031556.695                    20031563.672
 11  7 27 17 50  0.0000000  0 10G28G10G08G07G06G16G03G23G19G13
 129709681.82016 101072549.59553  24682940.070                    24682948.723
 125586636.222 6  97859752.85543  23898346.266                    23898354.586
 126319024.247 6  98430431.17043  24037703.125                    24037713.375
 115786285.107 7  90223114.945 7  22033395.016                    22033402.691
 119645380.779 7  93230194.91444  22767759.414                    22767768.344
 123010153.235 6  95852088.27944  23408057.805                    23408064.883
 110738425.279 7  86289714.68345  21072822.133                    21072829.789
 108108654.329 8  84240528.03346  20572394.813                    20572401.113
 110900411.612 7  86415937.32746  21103643.883                    21103650.180
 105265101.772 7  82024781.57646  20031283.000                    20031290.578
 11  7 27 17 50 30.0000000  0 10G28G10G08G07G06G16G03G23G19G13
 129634622.558 5 101014061.94842  24668656.508                    24668667.086
 125606616.557 6  97875321.94443  23902148.133                    23902156.422
 126249664.116 6  98376384.32342  24024503.641                    24024513.883
 115730032.650 7  90179281.880 7  22022690.172                    22022697.875
 119709824.983 7  93280411.13244  22780023.031                    22780031.832
 123101332.514 6  95923136.98343  23425408.102                    23425415.211
 110780851.052 7  86322773.69945  21080895.602                    21080903.551
 108168347.554 8  84287042.19846  20583754.867                    20583760.594
 110868429.233 7  86391016.00046  21097557.898                    21097564.121
 105264248.714 8  82024116.84646  20031120.828                    20031127.664
 11  7 27 17 51  0.0000000  0 10G28G10G08G07G06G16G03G23G19G13
 129559767.853 5 100955733.68343  24654410.953                    24654422.559
 125627038.791 6  97891235.33043  23906034.266                    23906043.273
 126180247.515 7  98322293.47543  24011295.031                    24011303.965
 115673831.829 7  90135489.040 7  22011995.547                    22012003.172
 119774708.672 7  93330969.80244  22792369.688                    22792378.652
 123192522.553 6  95994194.13643  23442761.188                    23442768.711
 110823864.053 7  86356290.30945  21089080.695                    21089088.422
 108228554.401 8  84333956.58646  20595211.617                    20595217.793
 110837022.430 7  86366543.16546  21091581.445                    21091587.863
 105263980.485 7  82023907.81946  20031069.930                    20031076.906
 11  7 27 17 51 30.0000000  0 10G28G10G08G07G06G16G03G23G19G13
 129485118.442 6 100897565.36942  24640206.320                    24640216.863
 125647901.193 6  97907491.72543  23910003.977                    23910013.770
 126110774.807 7  98268158.90144  23998075.531                    23998084.148
 115617683.572 7  90091737.173 7  22001311.273                    22001318.426
 119840030.033 7  93381869.54544  22804800.359                    22804808.293
 123283721.756 6  96065258.34543  23460115.500                    23460123.648
 110867462.945 8  86390263.47045  21097376.813                    21097384.344
 108289274.151 8  84381270.63746  20606766.203                    20606771.789
 110806193.114 7  86342520.33046  21085714.656                    21085720.754
 105264298.141 8  82024155.33546  20031130.648                    20031137.789
 11  7 27 17 52  0.0000000  0 10G28G10G08G07G06G16G03G23G19G13
 129410674.313 6 100839556.97842  24626040.227                    24626050.465
 125669201.872 6  97924089.59743  23914056.641                    23914066.574
 126041245.655 7  98213980.39744  23984844.398                    23984853.855
 115561588.544 7  90048026.770 7  21990636.586                    21990644.047
 119905786.616 7  93433108.40344  22817313.805                    22817322.219
 123374928.259 6  96136328.27943  23477472.469                    23477479.281
 110911645.930 7  86424691.75545  21105784.875                    21105793.039
 108350504.655 8  84428982.67946  20618418.008                    20618423.617
 110775942.519 7  86318948.44846  21079958.672                    21079964.309
 105265202.071 7  82024859.67646  20031302.383                    20031308.973
 11  7 27 17 52 30.0000000  0 10G28G10G08G07G06G16G03G23G19G13
 129336436.706 6 100781709.49043  24611913.164                    24611922.781
 125690939.683 6  97941028.09043  23918193.086                    23918203.496
 125971660.787 6  98159758.48243  23971601.938                    23971612.316
 115505547.817 7  90004358.683 7  21979972.625                    21979980.543
 119971976.874 7  93484685.18144  22829908.133                    22829917.609
 123466140.835 6  96207402.96443  23494828.953                    23494836.227
 110956411.734 7  86459574.16945  21114303.586                    21114311.645
 108412244.600 8  84477091.69246  20630166.547                    20630172.336
 110746272.749 7  86295829.16346  21074312.297                    21074318.238
 105266693.583 7  82026021.88446  20031586.125                    20031593.039
 11  7 27 17 53  0.0000000  0 10G28G10G08G07G06G16G03G23G19G13
 129262405.673 6 100724023.01743  24597825.102                    24597835.496
 125713112.541 6  97958305.59543  23922413.250                    23922422.512
 125902020.326 6  98105493.34543  23958348.672                    23958359.824
 115449562.517 7  89960733.765 7  21969318.961                    21969326.539
 120038598.640 7  93536598.21344  22842586.250                    22842595.098
 123557357.906 6  96278481.13843  23512187.359                    23512194.684
 111001758.510 7  86494909.30445  21122932.609                    21122941.203
 108474492.670 7  84525596.64246  20642012.500                    20642017.930
 110717185.164 7  86273163.52746  21068776.977                    21068783.387
 105268773.223 7  82027642.37546  20031981.758                    20031988.848
 11  7 27 17 53 30.0000000  0 10G28G10G08G07G06G16G03G23G19G13
 129188581.788 6 100666498.00442  24583777.266                    24583787.352
 125735718.826 6  97975920.85643  23926714.938                    23926725.047
 125832323.937 7  98051184.47742  23945087.484                    23945096.219
 115393632.784 7  89917152.180 7  21958675.492                    21958683.414
 120105649.681 7  93588845.74644  22855346.000                    22855354.645
 123648577.359 6  96349561.17743  23529545.383                    23529553.344
 111047684.766 7  86530695.98745  21131672.328                    21131679.992
 108537246.730 8  84574495.86946  20653953.883                    20653959.559
 110688681.026 7  86250952.52046  21063352.727                    21063359.180
 105271441.503 8  82029721.54246  20032489.711                    20032496.813
 11  7 27 17 54  0.0000000  0 10G28G10G08G07G06G16G03G23G19G13
 129114965.390 6 100609134.66743  24569768.352                    24569779.328
 125758756.699 6  97993872.34843  23931099.484                    23931109.000
 125762571.773 7  97996832.03643  23931814.234                    23931821.355
 115337759.492 7  89873614.577 7  21948043.414                    21948051.074
 120173127.856 7  93641426.12344  22868186.992                    22868195.047
 123739797.626 6  96420641.86643  23546905.156                    23546912.152
 111094188.720 7  86566932.81945  21140521.727                    21140529.152
 108600505.149 8  84623788.10546  20665991.422                    20665997.289
 110660761.617 7  86229197.14546  21058040.133                    21058046.016
 105274698.861 7  82032259.72746  20033109.484                    20033116.523
 11  7 27 17 54 30.0000000  0 10G28G10G08G07G06G16G03G23G19G13
 129041557.290 6 100551933.65742  24555799.609                    24555810.012
 125782224.433 6  98012158.86943  23935565.438                    23935575.191
 125692764.378 7  97942436.66944  23918530.320                    23918539.707
 115281943.876 7  89830121.901 7  21937422.180                    21937429.777
 120241031.135 7  93694337.74944  22881108.617                    22881116.781
 123831017.429 6  96491722.18343  23564263.898                    23564270.895
 111141268.496 7  86603618.34745  21149480.773                    21149489.535
 108664266.850 8  84673472.51046  20678124.992                    20678130.848
 110633429.093 7  86207899.09046  21052838.617                    21052844.672
 105278546.444 7  82035257.83246  20033841.539                    20033849.070
 11  7 27 17 55  0.0000000  0 11G28G10G08G07G11G06G16G03G23G19G13
 128968357.814 7 100494895.14943  24541870.039                    24541880.332
 125806119.548 6  98030778.33643  23940112.633                    23940122.488
 125622901.223 6  97887997.92643  23905234.891                    23905245.512
 115226186.030 7  89786674.243 7  21926812.047                    21926819.316
 130110325.57116 101384720.58952  24759172.203                    24759184.563
 120309357.142 6  93747578.77144  22894110.039                    22894118.977
 123922234.920 6  96562800.69444  23581621.836                    23581628.891
 111188922.250 7  86640751.11445  21158548.977                    21158557.508
 108728529.877 8  84723547.55946  20690353.953                    20690360.094
 110606684.108 7  86187058.84746  21047749.422                    21047755.871
 105282984.232 8  82038715.83946  20034686.109                    20034693.555
 11  7 27 17 55 30.0000000  0 11G28G10G08G07G11G06G16G03G23G19G13
 128895366.943 6 100438019.18542  24527980.320                    24527990.105
 125830440.115 6  98049729.38843  23944741.484                    23944750.891
 125552982.702 6  97833516.11943  23891929.180                    23891940.703
 115170487.117 7  89743272.507 7  21916212.648                    21916220.016
 130034200.993 6 101325402.86942  24744687.000                    24744699.324
 120378103.571 7  93801147.37644  22907191.883                    22907201.137
 124013448.184 6  96633875.91043  23598979.047                    23598986.184
 111237148.156 7  86678329.71045  21167726.297                    21167734.277
 108793292.541 8  84774011.94046  20702678.086                    20702683.637
 110580528.006 7  86166677.49346  21042772.133                    21042778.344
 105288012.719 7  82042634.13146  20035643.164                    20035650.246
 11  7 27 17 56  0.0000000  0 11G28G10G08G07G11G06G16G03G23G19G13
 128822585.120 6 100381306.06543  24514130.633                    24514139.633
 125855184.977 6  98069011.04943  23949450.258                    23949459.832
 125483009.106 7  97778991.30144  23878614.492                    23878624.465
 115114847.973 7  89699917.336 7  21905624.742                    21905632.285
 129957937.045 6 101265976.42042  24730174.367                    24730185.707
 120447268.282 7  93855041.91844  22920353.602                    22920362.574
 124104655.917 6  96704946.81544  23616335.328                    23616343.137
 111285944.456 7  86716352.79045  21177011.531                    21177019.691
 108858552.917 8  84824864.14645  20715096.477                    20715102.266
 110554962.369 8  86146756.22146  21037906.891                    21037912.793
 105293632.549 8  82047013.20746  20036712.492                    20036719.160
 11  7 27 17 56 30.0000000  0 11G28G10G08G07G11G06G16G03G23G19G13
 128750013.030 6 100324756.48743  24500319.930                    24500330.203
 125880352.332 6  98088621.91944  23954239.016                    23954249.309
 125412980.668 7  97724423.66243  23865289.055                    23865297.469
 115059269.682 7  89656609.595 7  21895048.266                    21895056.016
 129881536.050 5 101206443.30342  24715635.164                    24715647.797
 120516849.582 7  93909261.07244  22933595.055                    22933603.465
 124195856.771 6  96776012.35043  23633689.602                    23633698.219
 111335309.715 7  86754819.20145  21186405.594                    21186413.777
 108924309.589 8  84876103.07145  20727609.586                    20727615.496
 110529988.717 7  86127296.24846  21033154.586                    21033160.680
 105299844.589 7  82051853.74546  20037894.516                    20037901.477
 11  7 27 17 57  0.0000000  0 11G28G10G08G07G11G06G16G03G23G19G13
 128677650.806 6 100268370.44543  24486550.422                    24486560.797
 125905939.462 6  98108559.89444  23959108.500                    23959118.473
 125342897.133 7  97669813.06343  23851952.188                    23851960.426
 115003752.776 7  89613349.685 7  21884484.125                    21884491.125
 129805000.325 6 101146805.04442  24701071.352                    24701083.539
 120586844.633 7  93963802.64344  22946915.195                    22946923.176
 124287048.806 6  96847070.97343  23651043.555                    23651051.426
 111385241.526 7  86793727.09345  21195906.852                    21195915.863
 108990560.643 8  84927727.23446  20740217.016                    20740222.496
 110505607.894 7  86108298.21246  21028514.969                    21028520.980
 105306648.784 8  82057155.69746  20039189.469                    20039196.141
 11  7 27 17 57 30.0000000  0 11G28G10G08G07G11G06G16G03G23G19G13
 128605499.665 6 100212148.90543  24472820.125                    24472830.488
 125931945.380 6  98128824.16644  23964057.477                    23964067.414
 125272759.465 6  97615160.33043  23838605.063                    23838614.145
 114948298.830 7  89570138.831 7  21873931.281                    21873938.852
 129728332.610 6 101087064.13842  24686481.617                    24686493.621
 120657252.245 6  94018665.69444  22960312.898                    22960321.172
 124378230.945 6  96918121.92844  23668395.211                    23668403.309
 111435739.161 7  86833075.87145  21205516.711                    21205524.781
 109057305.099 8  84979735.85946  20752917.781                    20752924.070
 110481822.133 7  86089763.86746  21023988.656                    21023994.645
 105314046.422 8  82062920.07646  20040597.172                    20040604.402
 11  7 27 17 58  0.0000000  0 11G28G10G08G07G11G06G16G03G23G19G13
 128533559.334 6 100156091.62243  24459130.211                    24459140.406
 125958367.482 6  98149412.76043  23969085.602                    23969095.820
 125202567.485 6  97560465.38144  23825247.938                    23825258.121
 114892907.955 7  89526977.114 7  21863390.813                    21863398.074
 129651534.701 6 101027221.63342  24671867.086                    24671879.863
 120728069.187 6  94073847.69444  22973788.109                    22973797.344
 124469401.146 6  96989163.56743  23685743.227                    23685751.941
 111486799.625 7  86872863.22645  21215233.406                    21215241.875
 109124540.333 8  85032126.90846  20765712.844                    20765718.148
 110458631.485 7  86071693.24146  21019575.859                    21019581.883
 105322037.031 7  82069146.51946  20042117.844                    20042124.727
 11  7 27 17 58 30.0000000  0 11G28G10G08G07G11G06G16G03G23G19G13
 128461830.288 6 100100198.97442  24445479.672                    24445490.629
 125985204.307 7  98170324.52644  23974192.383                    23974202.438
 125132321.581 7  97505728.39044  23811880.992                    23811890.945
 114837581.512 7  89483865.619 7  21852862.719                    21852869.902
 129574609.377 6 100967279.85742  24657229.617                    24657240.898
 120799293.663 6  94129347.21344  22987341.719                    22987351.574
 124560558.462 6  97060195.15043  23703090.961                    23703098.449
 111538421.737 7  86913088.22645  21225056.805                    21225064.672
 109192265.093 8  85084899.41245  20778599.797                    20778606.078
 110436037.867 7  86054087.83646  21015276.188                    21015282.406
 105330621.597 8  82075835.77846  20043751.398                    20043758.359
 11  7 27 17 59  0.0000000  0 11G28G10G08G07G11G06G16G03G23G19G13
 128390312.763 6 100044471.05642  24431870.813                    24431880.641
 126012453.500 6  98191557.61644  23979377.672                    23979387.598
 125062021.415 7  97450949.08444  23798503.469                    23798513.125
 114782319.754 7  89440804.515 7  21842346.547                    21842354.125
 129497558.665 6 100907240.57442  24642567.227                    24642579.418
 120870923.145 6  94185162.36144  23000973.055                    23000981.629
 124651700.873 6  97131215.15643  23720434.688                    23720442.566
 111590602.897 7  86953748.85345  21234986.539                    21234994.348
 109260477.018 8  85138051.52046  20791580.227                    20791586.508
 110414042.184 8  86036948.35346  21011090.727                    21011096.934
 105339800.206 8  82082987.92846  20045497.961                    20045505.398
 11  7 27 17 59 30.0000000  0 11G28G10G08G07G11G06G16G03G23G19G13
 128319007.267 6  99988908.37942  24418302.711                    24418311.805
 126040113.562 6  98213110.86244  23984641.320                    23984651.504
 124991667.974 7  97396128.27043  23785115.359                    23785124.688
 114727124.754 7  89397795.445 7  21831843.414                    21831850.832
 129420385.606 6 100847105.73943  24627881.609                    24627892.637
 120942956.109 6  94241291.90544  23014679.992                    23014688.641
 124742826.878 6  97202222.38243  23737775.086                    23737782.652
 111643341.974 7  86994844.22145  21245022.133                    21245030.211
 109329175.022 8  85191582.38745  20804653.391                    20804659.078
 110392646.059 7  86020276.05846  21007019.563                    21007025.133
 105349573.565 8  82090603.51946  20047357.969                    20047364.863
 11  7 27 18  0  0.0000000  0 11G28G10G08G07G11G06G16G03G23G19G13
 128247913.947 6  99933511.07443  24404773.477                    24404783.691
 126068181.889 6  98234982.21544  23989982.250                    23989992.227
 124921260.810 6  97341265.54543  23771717.945                    23771726.480
 114671996.361 7  89354838.272 7  21821353.023                    21821360.074
 129343091.700 6 100786876.85442  24613172.086                    24613183.883
 121015389.507 6  94297733.47244  23028463.422                    23028472.961
 124833935.046 7  97273215.69543  23755112.961                    23755120.746
 111696636.166 7  87036372.14045  21255164.164                    21255171.809
 109398356.949 8  85245490.33346  20817817.891                    20817824.383
 110371849.866 7  86004071.23546  21003061.719                    21003067.641
 105359941.510 8  82098682.42546  20049330.594                    20049337.254
 11  7 27 18  0 30.0000000  0 11G28G10G08G07G11G06G16G03G23G19G13
 128177033.436 6  99878279.56143  24391285.313                    24391295.398
 126096656.507 6  98257170.15643  23995401.234                    23995410.758
 124850800.193 6  97286361.19643  23758308.828                    23758318.012
 114616936.000 7  89311934.103 7  21810875.039                    21810882.633
 129265679.848 6 100726555.97343  24598441.328                    24598453.102
 121088221.452 6  94354485.58144  23042323.234                    23042332.520
 124925024.139 6  97344194.15243  23772446.820                    23772454.246
 111750484.175 7  87078331.61745  21265411.125                    21265418.785
 109468020.959 8  85299773.93946  20831074.852                    20831081.094
 110351655.218 7  85988335.16046  20999218.680                    20999224.902
 105370904.545 8  82107225.03646  20051417.055                    20051424.031
 11  7 27 18  1  0.0000000  0 11G28G10G08G07G11G06G16G03G23G19G13
 128106366.018 6  99823214.16543  24377836.820                    24377848.484
 126125535.600 6  98279673.29843  24000896.586                    24000906.719
 124780286.910 6  97231415.84643  23744890.109                    23744900.195
 114561944.725 7  89269083.775 7  21800410.648                    21800418.125
 129188152.819 6 100666145.51543  24583689.383                    24583700.820
 121161449.618 6  94411546.43844  23056258.180                    23056267.426
 125016092.655 6  97415156.59043  23789776.563                    23789783.547
 111804884.027 7  87120721.09245  21275762.852                    21275770.480
 109538165.271 8  85354431.79345  20844423.563                    20844428.563
 110332063.539 7  85973068.92546  20995490.539                    20995496.965
 105382463.293 8  82116231.82746  20053616.586                    20053623.523
 11  7 27 18  1 30.0000000  0 11G28G10G08G07G11G06G16G03G23G19G13
 128035911.941 6  99768314.99342  24364429.508                    24364441.496
 126154817.187 6  98302490.05843  24006468.555                    24006478.238
 124709721.191 7  97176429.59344  23731462.797                    23731471.625
 114507023.516 7  89226288.036 7  21789959.352                    21789966.758
 129110512.509 5 100605646.65142  24568912.875                    24568925.188
 121235071.964 7  94468914.45744  23070267.977                    23070277.680
 125107139.354 6  97486102.01943  23807102.078                    23807109.723
 111859833.391 7  87163538.75945  21286219.500                    21286227.016
 109608788.033 8  85409462.46945  20857861.898                    20857867.652
 110313075.714 7  85958273.22746  20991877.336                    20991882.996
 105394617.862 7  82125702.90946  20055929.641                    20055936.684
 11  7 27 18  2  0.0000000  0 11G28G10G08G07G11G06G16G03G23G19G13
 127965671.220 6  99713582.11043  24351063.844                    24351074.133
 126184499.058 6  98325618.71243  24012116.766                    24012127.281
 124639102.777 7  97121402.29044  23718024.539                    23718034.301
 114452172.562 7  89183547.048 7  21779521.578                    21779529.367
 129032760.915 6 100545061.14943  24554119.234                    24554129.809
 121309085.574 7  94526587.36444  23084352.703                    23084361.543
 125198162.133 6  97557028.81543  23824422.961                    23824430.578
 111915329.941 7  87206782.82745  21296780.313                    21296787.785
 109679886.914 8  85464864.15046  20871391.898                    20871397.531
 110294691.845 8  85943948.13546  20988378.953                    20988385.602
 105407367.844 7  82135637.94046  20058355.641                    20058362.840
 11  7 27 18  2 30.0000000  0 11G28G10G08G07G11G06G16G03G23G19G13
 127895644.632 7  99659015.94343  24337739.461                    24337748.438
 126214579.531 6  98349057.96143  24017841.352                    24017850.895
 124568432.580 7  97066334.65044  23704576.313                    23704585.426
 114397393.783 8  89140862.294 7  21769097.547                    21769104.973
 128954901.382 6 100484391.52742  24539302.016                    24539312.797
 121383488.696 7  94584563.78744  23098511.063                    23098520.035
 125289160.281 6  97627936.39543  23841739.563                    23841747.145
 111971372.569 7  87250452.37745  21307443.898                    21307452.590
 109751460.655 8  85520635.84446  20885011.742                    20885017.629
 110276913.848 7  85930095.16046  20984995.805                    20985002.258
 105420714.086 7  82146037.59246  20060895.633                    20060902.488
 11  7 27 18  3  0.0000000  0 11G28G10G08G07G11G06G16G03G23G19G13
 127825831.835 7  99604616.37443  24324454.930                    24324463.082
 126245055.702 6  98372805.59643  24023640.273                    24023650.480
 124497710.269 6  97011226.47443  23691116.844                    23691127.727
 114342687.191 7  89098233.787 7  21758687.547                    21758694.859
 128876935.678 6 100423639.13743  24524465.602                    24524476.352
 121458278.428 7  94642841.45444  23112743.289                    23112751.910
 125380131.272 6  97698822.80443  23859051.648                    23859058.398
 112027958.117 7  87294544.98645  21318212.383                    21318220.570
 109823506.428 8  85576775.36246  20898721.906                    20898727.680
 110259742.121 7  85916714.60046  20981728.359                    20981734.465
 105434656.155 8  82156901.51946  20063548.656                    20063555.680
 11  7 27 18  3 30.0000000  0 11G28G10G08G07G11G06G16G03G23G19G13
 127756233.761 6  99550384.14843  24311209.156                    24311218.453
 126275926.248 6  98396860.51143  24029514.727                    24029524.809
 124426936.681 7  96956078.27043  23677650.688                    23677659.254
 114288054.797 7  89055663.083 7  21748290.820                    21748298.473
 128798866.840 6 100362806.41143  24509609.461                    24509620.449
 121533453.196 7  94701419.17544  23127048.891                    23127056.957
 125471074.567 6  97769687.58043  23876357.023                    23876364.191
 112085085.379 7  87339059.73145  21329083.297                    21329091.359
 109896023.070 8  85633281.78846  20912521.180                    20912527.098
 110243178.058 7  85903807.53746  20978576.602                    20978582.336
 105449194.904 7  82168230.39646  20066315.055                    20066322.227
 11  7 27 18  4  0.0000000  0 11G28G10G08G07G11G06G16G03G23G19G13
 127686850.207 6  99496319.17442  24298005.203                    24298015.777
 126307188.520 6  98421220.65643  24035464.000                    24035473.734
 124356111.602 7  96900889.86143  23664173.250                    23664180.289
 114233497.188 7  89013150.669 7  21737909.094                    21737916.961
 128720697.050 6 100301895.05243  24494733.672                    24494745.820
 121609010.305 6  94760294.81544  23141427.102                    23141435.918
 125561988.816 6  97840529.78343  23893658.125                    23893665.301
 112142751.481 7  87383994.33145  21340056.813                    21340065.250
 109969008.226 8  85690153.29146  20926409.852                    20926416.172
 110227222.414 7  85891374.56846  20975540.094                    20975546.355
 105464330.066 7  82180024.00546  20069195.305                    20069202.391
 11  7 27 18  4 30.0000000  0 11G28G10G08G07G11G06G16G03G23G19G13
 127617681.550 6  99442421.61943  24284843.070                    24284853.105
 126338840.815 6  98445884.72543  24041487.023                    24041496.277
 124285235.419 7  96845661.65144  23650685.703                    23650694.438
 114179015.066 7  88970697.067 7  21727541.242                    21727548.773
 128642428.851 6 100240906.94542  24479840.555                    24479850.707
 121684947.299 6  94819466.44044  23155877.414                    23155885.941
 125652872.305 6  97911348.03643  23910951.672                    23910959.965
 112200954.817 7  87429347.55245  21351133.141                    21351141.215
 110042460.185 7  85747388.53546  20940387.398                    20940393.414
 110211876.062 7  85879416.37946  20972619.586                    20972625.863
 105480061.715 8  82192282.41146  20072189.281                    20072195.641
 11  7 27 18  5  0.0000000  0 11G28G10G08G07G11G06G16G03G23G19G13
 127548728.287 7  99388691.83443  24271722.336                    24271731.254
 126370880.741 6  98470850.86942  24047584.109                    24047593.477
 124214308.634 6  96790394.14043  23637188.180                    23637198.375
 114124609.735 7  88928303.330 7  21717188.508                    21717196.051
 128564064.593 6 100179844.00642  24464926.578                    24464938.156
 121761262.239 6  94878932.59644  23170399.047                    23170407.891
 125743723.696 6  97982141.24743  23928240.297                    23928248.254
 112259693.233 7  87475117.71545  21362310.250                    21362319.023
 110116376.844 8  85804985.87646  20954453.250                    20954459.254
 110197140.045 7  85867933.77146  20969815.688                    20969821.820
 105496390.060 7  82205005.77246  20075296.422                    20075303.238
 11  7 27 18  5 30.0000000  0 11G28G10G08G07G11G06G16G03G23G19G13
 127479990.521 6  99335129.93243  24258642.453                    24258651.688
 126403306.482 6  98496117.64842  24053755.469                    24053763.637
 124143331.613 6  96735087.44744  23623682.375                    23623691.734
 114070282.591 8  88885970.492 7  21706850.141                    21706857.902
 128485607.248 6 100118708.59943  24449998.172                    24450008.934
 121837952.485 7  94938691.17744  23184993.594                    23185002.426
 125834541.864 6  98052908.56943  23945522.773                    23945530.512
 112318964.738 7  87521303.27545  21373589.484                    21373597.609
 110190756.365 8  85862943.89846  20968607.141                    20968613.262
 110183015.026 7  85856927.27246  20967127.844                    20967133.758
 105513315.239 8  82218194.20846  20078517.086                    20078523.922
 11  7 27 18  6  0.0000000  0 11G28G10G08G07G11G06G16G03G23G19G13
 127411468.026 6  99281735.83643  24245603.148                    24245612.469
 126436115.084 6  98521682.75143  24059998.344                    24060006.254
 124072304.737 6  96679741.82843  23610166.398                    23610175.273
 114016033.947 8  88843698.820 7  21696527.383                    21696534.965
 128407058.753 6 100057502.11242  24435049.773                    24435060.895
 121915015.245 6  94998740.06644  23199657.625                    23199665.711
 125925325.031 6  98123648.64543  23962798.266                    23962806.531
 112378766.664 7  87567902.14745  21384969.453                    21384977.582
 110265596.099 8  85921260.52145  20982848.789                    20982854.797
 110169501.555 7  85846397.28946  20964556.172                    20964562.277
 105530836.790 8  82231847.33946  20081851.281                    20081858.629
 11  7 27 18  6 30.0000000  0 11G28G10G08G07G11G06G16G03G23G19G13
 127343161.445 6  99228510.03143  24232603.891                    24232613.949
 126469305.162 6  98547545.06842  24066313.328                    24066322.934
 124001228.669 6  96624357.88443  23596640.359                    23596648.258
 113961865.234 8  88801489.425 7  21686219.578                    21686226.988
 128328421.639 6  99996226.60842  24420085.203                    24420097.066
 121992448.922 6  95059077.95844  23214392.430                    23214401.543
 126016072.191 6  98194360.65543  23980066.875                    23980074.633
 112439097.089 7  87614912.83745  21396449.625                    21396458.215
 110340894.459 7  85979934.51645  20997177.805                    20997183.613
 110156600.904 7  85836344.84046  20962101.258                    20962106.984
 105548955.332 7  82245965.66646  20085299.047                    20085306.121
 11  7 27 18  7  0.0000000  0 11G28G10G08G07G11G06G16G03G23G19G13
 127275070.713 6  99175452.41943  24219646.594                    24219657.000
 126502873.923 6  98573702.50943  24072701.094                    24072711.082
 123930103.080 6  96568935.37944  23583105.625                    23583115.613
 113907777.075 8  88759342.803 7  21675926.484                    21675934.098
 128249698.477 6  99934883.96143  24405105.125                    24405116.492
 122070250.547 7  95119702.58743  23229197.445                    23229205.449
 126106781.625 7  98265043.27043  23997327.164                    23997335.520
 112499953.468 7  87662333.36045  21408030.266                    21408038.633
 110416648.944 8  86038963.93345  21011592.867                    21011598.656
 110144313.053 7  85826769.89146  20959762.813                    20959769.180
 105567670.037 7  82260548.52946  20088860.180                    20088867.613
 11  7 27 18  7 30.0000000  0 11G28G10G08G07G11G06G16G03G23G19G13
 127207196.448 6  99122563.49243  24206731.195                    24206740.789
 126536819.372 6  98600153.44843  24079161.016                    24079170.891
 123858928.836 6  96513475.00343  23569561.750                    23569571.523
 113853771.173 8  88717260.287 7  21665649.445                    21665657.375
 128170891.925 6  99873476.45142  24390107.914                    24390119.859
 122148418.066 6  95180612.31543  23244072.508                    23244081.012
 126197452.483 6  98335695.84843  24014581.953                    24014590.629
 112561333.979 7  87710162.29845  21419710.438                    21419719.250
 110492858.171 7  86098347.69445  21026095.102                    21026101.168
 110132639.331 7  85817673.49546  20957541.273                    20957547.758
 105586981.366 8  82275596.29346  20092535.406                    20092542.465
 11  7 27 18  8  0.0000000  0 11G28G10G08G07G11G06G16G03G23G19G13
 127139538.823 6  99069843.30742  24193855.375                    24193864.773
 126571139.337 6  98626896.19343  24085692.492                    24085701.938
 123787706.148 6  96457976.86343  23556008.031                    23556017.625
 113799848.828 8  88675242.878 7  21655388.148                    21655396.141
 128092004.712 6  99812005.91042  24375097.063                    24375107.844
 122226949.345 6  95241805.46444  23259016.586                    23259025.559
 126288083.585 6  98406317.38643  24031829.023                    24031837.086
 112623236.170 7  87758397.74345  21431490.477                    21431498.945
 110569519.746 7  86158083.93545  21040683.641                    21040689.430
 110121580.641 7  85809056.33946  20955437.008                    20955443.109
 105606889.621 7  82291109.19146  20096323.594                    20096331.141
 11  7 27 18  8 30.0000000  0 11G28G10G08G07G11G06G16G03G23G19G13
 127072097.715 5  99017291.80042  24181020.797                    24181030.813
 126605831.679 6  98653929.14943  24092293.625                    24092303.828
 123716435.615 6  96402441.37943  23542446.289                    23542455.023
 113746010.489 8  88633290.932 7  21645143.484                    21645150.754
 128013039.195 6  99750474.49642  24360070.313                    24360081.355
 122305841.761 6  95303280.02643  23274029.766                    23274038.258
 126378673.244 6  98476906.71543  24049067.586                    24049075.219
 112685657.931 7  87807038.05045  21443368.484                    21443377.078
 110646631.736 8  86218171.14945  21055357.336                    21055363.445
 110111137.427 7  85800918.78346  20953449.750                    20953456.199
 105627394.184 8  82307086.75246  20100225.391                    20100232.707
 11  7 27 18  9  0.0000000  0 11G28G10G08G07G11G06G16G03G23G19G13
 127004873.129 6  98964909.13643  24168229.813                    24168239.055
 126640893.621 6  98681250.08043  24098966.453                    24098976.148
 123645117.168 6  96346868.57043  23528874.781                    23528883.609
 113692257.276 8  88591405.320 7  21634914.148                    21634921.660
 127933997.874 6  99688883.94842  24345028.336                    24345040.270
 122385092.460 6  95365033.77444  23289110.773                    23289119.105
 126469219.820 6  98547462.38343  24066298.461                    24066305.430
 112748596.616 7  87856081.15145  21455345.484                    21455353.613
 110724191.441 8  86278607.22745  21070116.734                    21070122.785
 110101310.080 7  85793261.10946  20951579.570                    20951585.957
 105648494.616 8  82323528.61846  20104240.703                    20104247.961
 11  7 27 18  9 30.0000000  0 11G28G10G08G07G11G06G16G03G23G19G13
 126937865.758 7  98912695.68143  24155479.320                    24155488.340
 126676323.469 6  98708857.65043  24105707.773                    24105718.688
 123573751.598 6  96291259.08943  23515293.344                    23515303.477
 113638590.927 8  88549587.406 7  21624702.031                    21624709.730
 127854883.640 6  99627236.72842  24329972.219                    24329984.969
 122464699.772 6  95427065.40644  23304259.367                    23304267.547
 126559722.851 6  98617984.16843  24083520.609                    24083527.867
 112812050.664 7  87905525.83645  21467420.016                    21467428.816
 110802197.182 8  86339390.86845  21084960.586                    21084967.258
 110092099.435 7  85786083.99346  20949827.023                    20949833.141
 105670191.456 8  82340435.22346  20108369.633                    20108377.016
 11  7 27 18 10  0.0000000  0 11G28G10G08G07G11G06G16G03G23G19G13
 126871075.091 6  98860651.07444  24142769.813                    24142779.316
 126712118.699 6  98736749.98043  24112520.289                    24112530.488
 123502339.236 6  96235613.15044  23501704.008                    23501714.137
 113585011.397 8  88507837.132 7  21614505.977                    21614513.773
 127775698.522 6  99565534.11143  24314905.813                    24314916.082
 122544660.627 6  95489372.54144  23319475.336                    23319484.023
 126650180.586 6  98688470.66843  24100734.211                    24100741.922
 112876016.981 7  87955369.68645  21479593.094                    21479601.363
 110880646.459 8  86400520.11945  21099889.102                    21099895.383
 110083505.581 7  85779387.48346  20948191.656                    20948197.602
 105692483.740 8  82357805.80546  20112611.961                    20112618.961
 11  7 27 18 10 30.0000000  0 11G28G10G08G07G11G06G16G03G23G19G13
 126804501.867 6  98808775.90243  24130099.719                    24130110.000
 126748277.355 6  98764925.48643  24119400.742                    24119411.023
 123430880.978 7  96179931.39544  23488106.820                    23488115.824
 113531521.055 8  88466156.355 7  21604327.320                    21604334.969
 127696445.482 6  99503778.64142  24299824.438                    24299835.230
 122624973.026 6  95551953.58244  23334758.406                    23334767.285
 126740592.045 6  98758921.08943  24117938.078                    24117946.586
 112940493.684 7  88005611.23445  21491862.477                    21491870.586
 110959537.586 8  86461993.67645  21114901.500                    21114907.934
 110075529.882 7  85773172.66346  20946673.898                    20946679.977
 105715372.047 8  82375640.82346  20116967.414                    20116974.305
 11  7 27 18 11  0.0000000  0 11G28G10G08G07G11G06G16G03G23G19G13
 126738145.573 6  98757069.81843  24117472.508                    24117481.844
 126784796.456 6  98793381.85343  24126349.906                    24126361.289
 123359376.442 6  96124213.60043  23474500.359                    23474509.379
 113478119.879 7  88424545.067 7  21594165.234                    21594172.961
 127617126.754 6  99441971.92243  24284731.281                    24284741.496
 122705634.076 6  95614806.30544  23350107.594                    23350116.746
 126830955.251 6  98829333.91043  24135135.414                    24135141.906
 113005478.082 7  88056248.41345  21504228.789                    21504236.652
 111038867.548 8  86523809.17445  21129997.484                    21130003.996
 110068172.093 7  85767439.31846  20945273.875                    20945280.094
 105738855.223 8  82393939.37346  20121435.898                    20121443.094
 11  7 27 18 11 30.0000000  0 11G28G10G08G07G11G06G16G03G23G19G13
 126672006.798 6  98705533.11243  24104886.672                    24104896.535
 126821674.163 6  98822117.62444  24133368.500                    24133378.078
 123287826.502 6  96068460.46543  23460883.836                    23460893.520
 113424809.852 8  88383004.795 7  21584020.797                    21584028.711
 127537745.268 6  99380116.28142  24269623.734                    24269634.477
 122786641.827 6  95677929.17744  23365523.039                    23365531.859
 126921269.854 6  98899708.88443  24152320.484                    24152328.313
 113070968.200 7  88107279.62845  21516690.438                    21516699.238
 111118634.894 7  86585965.49045  21145176.875                    21145183.320
 110061433.022 7  85762188.09246  20943991.023                    20943997.207
 105762933.750 8  82412701.84046  20126017.906                    20126024.926
 11  7 27 18 12  0.0000000  0 11G28G10G08G07G11G06G16G03G23G19G13
 126606085.659 7  98654166.01943  24092342.586                    24092352.207
 126858907.925 6  98851130.87443  24140453.906                    24140463.418
 123216231.769 7  96012672.37244  23447261.422                    23447269.477
 113371591.739 8  88341536.150 7  21573893.828                    21573901.336
 127458303.830 6  99318214.05643  24254507.602                    24254518.520
 122867993.718 6  95741320.20044  23381003.727                    23381012.504
 127011534.169 6  98970044.63043  24169497.984                    24169505.309
 113136961.469 7  88158702.91945  21529249.469                    21529257.258
 111198837.238 7  86648460.76445  21160438.906                    21160445.121
 110055313.247 7  85757419.43746  20942827.047                    20942832.922
 105787607.142 8  82431927.82846  20130713.344                    20130720.500
 11  7 27 18 12 30.0000000  0 11G28G10G08G07G11G06G16G03G23G19G13
 126540381.936 6  98602968.35443  24079839.633                    24079849.586
 126896495.549 6  98880419.84743  24147605.867                    24147616.238
 123144592.506 7  95956849.59043  23433628.516                    23433637.020
 113318466.952 8  88300140.213 7  21563784.336                    21563792.000
 127378804.922 6  99256266.97542  24239378.023                    24239390.211
 122949687.052 6  95804977.31544  23396549.633                    23396558.145
 127101746.964 6  99040340.25343  24186663.789                    24186673.109
 113203455.489 7  88210516.42245  21541902.445                    21541910.348
 111279472.140 8  86711293.10145  21175783.352                    21175789.844
 110049812.916 8  85753133.45846  20941780.328                    20941786.121
 105812874.742 8  82451616.84346  20135521.477                    20135528.953
 11  7 27 18 13  0.0000000  0 11G28G10G08G07G11G06G16G03G23G19G13
 126474895.705 6  98551940.17443  24067378.492                    24067388.027
 126934434.341 6  98909982.47243  24154826.148                    24154835.910
 123072908.902 7  95900992.30744  23419986.977                    23419996.258
 113265436.477 7  88258817.775 7  21553693.203                    21553700.379
 127299250.515 6  99194276.61243  24224240.086                    24224250.117
 123031719.450 6  95868898.62744  23412159.023                    23412168.375
 127191907.133 6  99110594.81043  24203821.422                    24203829.887
 113270447.542 7  88262717.99944  21554650.625                    21554658.855
 111360537.161 8  86774460.58845  21191209.570                    21191215.715
 110044932.193 7  85749330.29246  20940851.461                    20940857.590
 105838735.980 8  82471768.43546  20140442.891                    20140449.891
 11  7 27 18 13 30.0000000  0 11G28G10G08G07G11G06G16G03G23G19G13
 126409627.237 6  98501081.74543  24054957.031                    24054967.266
 126972722.705 6  98939817.45843  24162111.695                    24162121.953
 123001181.881 7  95845101.16244  23406337.211                    23406347.176
 113212501.585 8  88217569.810 7  21543620.258                    21543627.398
 127219644.063 6  99132245.72143  24209091.484                    24209101.945
 123114088.829 6  95933082.49643  23427833.273                    23427843.191
 127282013.768 6  99180807.74943  24220968.125                    24220976.719
 113337936.235 7  88315306.56545  21567493.313                    21567502.109
 111442030.417 8  86837961.77045  21206717.289                    21206723.438
 110040672.059 8  85746010.70646  20940041.031                    20940046.695
 105865191.112 8  82492382.79946  20145477.203                    20145484.211
 11  7 27 18 14  0.0000000  0 11G28G10G08G07G11G06G16G03G23G19G13
 126344576.184 6  98450392.62743  24042579.055                    24042587.898
 127011357.199 6  98969922.19143  24169463.852                    24169474.309
 122929411.501 7  95789176.20444  23392680.828                    23392688.723
 113159662.872 8  88176396.795 7  21533565.078                    21533572.598
 127139987.765 6  99070176.01443  24193933.148                    24193944.105
 123196792.011 6  95997526.49243  23443572.930                    23443581.258
 127372064.952 6  99250977.42743  24238104.141                    24238112.457
 113405917.960 7  88368279.30745  21580429.820                    21580438.238
 111523949.249 8  86901794.56345  21222306.008                    21222312.168
 110037032.185 7  85743174.44146  20939347.727                    20939353.930
 105892238.866 8  82513458.94746  20150623.938                    20150631.309
 11  7 27 18 14 30.0000000  0 11G28G10G08G07G11G06G16G03G23G19G13
 126279743.454 6  98399873.57243  24030241.898                    24030250.445
 127050336.313 6  99000295.43343  24176881.063                    24176891.500
 122857598.955 7  95733218.37744  23379015.141                    23379023.320
 113106922.518 7  88135300.423 7  21523528.922                    21523536.191
 127060284.555 6  99008069.66843  24178765.555                    24178776.449
 123279827.298 6  96062229.26743  23459372.820                    23459382.500
 127462060.366 6  99321103.63543  24255230.406                    24255238.988
 113474391.107 7  88421634.96845  21593460.070                    21593468.395
 111606292.083 8  86965957.75245  21237975.320                    21237981.762
 110034013.575 7  85740822.27646  20938773.883                    20938779.730
 105919880.072 8  82534997.52546  20155884.258                    20155891.297
 11  7 27 18 15  0.0000000  0 11G28G10G08G07G11G06G16G03G23G19G13
 126215128.557 6  98349524.35043  24017946.008                    24017955.723
 127089657.201 6  99030935.05043  24184363.969                    24184374.598
 122785744.021 7  95677227.57844  23365341.453                    23365350.887
 113054281.089 7  88094281.142 7  21513511.695                    21513519.598
 126980536.799 6  98945928.70943  24163591.219                    24163601.055
 123363191.719 6  96127188.50443  23475237.328                    23475245.977
 127551998.386 6  99391185.14643  24272344.469                    24272353.008
 113543352.578 7  88475371.14045  21606583.430                    21606591.406
 111689055.783 8  87030448.87745  21253724.602                    21253731.098
 110031616.164 7  85738954.15446  20938317.453                    20938323.730
 105948113.368 8  82556997.47246  20161256.656                    20161264.059
 11  7 27 18 15 30.0000000  0 11G28G10G08G07G11G06G16G03G23G19G13
 126150731.400 5  98299344.87043  24005689.852                    24005700.512
 127129317.394 6  99061839.05542  24191910.609                    24191920.473
 122713847.566 7  95621204.45244  23351659.719                    23351669.180
 113001740.057 7  88053340.086 7  21503513.313                    21503520.914
 126900747.393 6  98883755.21143  24148406.086                    24148417.898
 123446883.002 6  96192402.43643  23491162.695                    23491171.980
 127641877.906 6  99461221.05643  24289447.953                    24289457.129
 113612800.054 7  88529486.02745  21619798.516                    21619806.984
 111772238.471 8  87095266.50445  21269554.008                    21269560.652
 110029840.179 8  85737570.27046  20937979.414                    20937985.434
 105976938.440 8  82579458.54346  20166741.672                    20166749.297
 11  7 27 18 16  0.0000000  0 11G28G10G08G07G11G06G16G03G23G19G13
 126086552.623 6  98249335.59643  23993478.883                    23993488.637
 127169315.202 6  99093006.07043  24199522.602                    24199531.543
 122641910.676 7  95565149.76543  23337970.648                    23337979.082
 112949301.035 7  88012478.512 7  21493534.695                    21493542.125
 126820919.249 6  98821551.59543  24133216.227                    24133226.434
 123530898.988 6  96257869.42443  23507150.688                    23507159.438
 127731698.265 6  99531210.89643  24306540.289                    24306549.199
 113682731.523 7  88583978.04145  21633105.852                    21633114.203
 111855838.094 8  87160409.00045  21285462.742                    21285469.219
 110028686.151 7  85736671.02046  20937760.148                    20937766.098
 106006355.143 8  82602380.62546  20172339.883                    20172346.707
 11  7 27 18 16 30.0000000  0 11G28G10G08G07G11G06G16G03G23G19G13
 126022591.716 6  98199496.00443  23981307.523                    23981316.906
 127209647.438 6  99124433.70642  24207197.797                    24207207.055
 122569933.315 7  95509063.50544  23324274.375                    23324282.570
 112896964.687 7  87971696.954 7  21483575.352                    21483582.883
 126741054.826 6  98759319.67643  24118018.313                    24118028.926
 123615236.716 7  96323587.07343  23523200.211                    23523208.723
 127821457.793 6  99601153.32043  24323620.688                    24323629.391
 113753144.202 7  88638845.02945  21646505.211                    21646513.199
 111939851.674 8  87225874.05545  21301449.688                    21301456.066
 110028154.003 7  85736256.35146  20937658.547                    20937664.867
 106036362.566 8  82625763.00646  20178049.969                    20178057.102
 11  7 27 18 17  0.0000000  0 11G28G10G08G07G11G06G16G03G23G19G13
 125958848.508 6  98149825.94442  23969178.000                    23969185.672
 127250311.580 6  99156119.95042  24214936.109                    24214944.680
 122497915.944 7  95452946.12244  23310568.531                    23310577.945
 112844732.090 8  87930996.239 7  21473635.648                    21473643.043
 126661156.537 6  98697061.35043  24102814.430                    24102823.648
 123699893.521 7  96389553.38243  23539309.852                    23539318.160
 127911155.169 6  99671047.30042  24340689.383                    24340698.281
 113824035.365 7  88694084.88045  21659995.203                    21660003.512
 112024276.722 8  87291659.73645  21317515.609                    21317521.922
 110028243.592 7  85736326.15846  20937675.789                    20937681.891
 106066959.996 8  82649605.13746  20183872.742                    20183879.438
 11  7 27 18 17 30.0000000  0 11G28G10G08G07G11G06G16G03G23G19G13
 125895323.353 6  98100325.72143  23957088.180                    23957097.543
 127291305.648 6  99188063.36443  24222736.648                    24222745.859
 122425859.652 7  95396798.41944  23296857.148                    23296866.258
 112792605.052 8  87890377.777 7  21463716.156                    21463723.738
 126581227.662 6  98634779.26542  24087603.266                    24087614.281
 123784867.368 7  96455766.75744  23555479.461                    23555488.656
 128000789.855 6  99740892.42243  24357746.883                    24357755.852
 113895402.632 7  88749695.68145  21673575.531                    21673584.461
 112109111.655 8  87357764.80845  21333658.695                    21333665.441
 110028955.642 7  85736880.98646  20937810.938                    20937817.324
 106098147.245 8  82673906.85946  20189806.984                    20189814.375
 11  7 27 18 18  0.0000000  0 11G28G10G08G07G11G06G16G03G23G19G13
 125832015.899 6  98050995.43943  23945040.656                    23945051.891
 127332626.843 6  99220261.62243  24230600.203                    24230609.820
 122353764.021 7  95340620.03144  23283138.266                    23283147.398
 112740584.118 7  87849842.001 7  21453817.109                    21453824.520
 126501270.039 6  98572474.63343  24072388.031                    24072398.480
 123870155.413 7  96522224.91843  23571709.031                    23571718.352
 128090360.297 6  99810687.56142  24374792.039                    24374799.742
 113967243.389 7  88805675.45345  21687246.836                    21687255.434
 112194353.268 8  87424186.77245  21349879.898                    21349886.105
 110030289.648 7  85737920.45446  20938065.141                    20938070.922
 106129923.136 8  82698667.27046  20195853.906                    20195861.094
 11  7 27 18 18 30.0000000  0 11G28G10G08G07G11G06G16G03G23G19G13
 125768926.935 6  98001835.32944  23933036.414                    23933046.621
 127374273.003 7  99252713.11643  24238525.086                    24238535.246
 122281630.477 7  95284412.10144  23269411.125                    23269420.473
 112688671.679 8  87809390.751 7  21443938.625                    21443945.824
 126421287.552 6  98510150.66943  24057167.148                    24057178.496
 123955755.648 6  96588926.34943  23587998.750                    23588006.930
 128179866.350 6  99880432.46643  24391824.516                    24391832.211
 114039555.938 7  88862022.86545  21701006.977                    21701015.207
 112280000.167 7  87490924.54745  21366178.000                    21366184.984
 110032246.480 7  85739445.24646  20938437.375                    20938443.430
 106162287.751 8  82723886.42446  20202012.523                    20202020.262
 11  7 27 18 19  0.0000000  0 11G28G10G08G07G11G06G16G03G23G19G13
 125706055.405 7  97952844.61744  23921071.852                    23921081.555
 127416240.992 7  99285415.36143  24246511.734                    24246521.867
 122209459.044 7  95228174.65444  23255677.383                    23255686.695
 112636867.573 8  87769023.938 7  21434080.703                    21434088.078
 126341281.963 6  98447808.69643  24041944.773                    24041954.742
 124041664.775 6  96655868.50143  23604346.703                    23604355.254
 128269305.830 5  99950125.49642  24408844.242                    24408851.703
 114112336.374 7  88918734.85144  21714857.094                    21714865.266
 112366048.844 7  87557975.39245  21382552.781                    21382559.297
 110034825.312 7  85741454.72346  20938928.133                    20938934.102
 106195239.523 8  82749563.10446  20208283.250                    20208290.254
 11  7 27 18 19 30.0000000  0 11G28G10G08G07G11G06G16G03G23G19G13
 125643401.566 6  97904023.50543  23909149.406                    23909158.414
 127458528.465 6  99318366.58544  24254558.547                    24254568.977
 122137251.007 7  95171908.65844  23241937.023                    23241945.402
 112585173.694 8  87728743.009 7  21424243.523                    21424251.070
 126261255.983 6  98385450.83643  24026715.250                    24026725.094
 124127880.550 6  96723049.55544  23620753.055                    23620761.992
 128358677.869 6 100019765.98643  24425851.242                    24425859.578
 114185582.607 7  88975809.80044  21728795.469                    21728803.836
 112452497.279 7  87625337.73245  21399003.328                    21399009.980
 110038026.309 8  85743948.98746  20939537.602                    20939543.430
 106228777.974 8  82775696.93446  20214665.734                    20214672.793
 11  7 27 18 20  0.0000000  0 11G28G10G08G07G11G06G16G03G23G19G13
 125580965.910 6  97855372.35543  23897267.180                    23897276.875
 127501133.988 6  99351565.59343  24262666.211                    24262676.371
 122065007.391 7  95115614.95444  23228189.109                    23228198.336
 112533592.043 8  87688549.523 7  21414427.594                    21414435.141
 126181213.133 6  98323079.89643  24011484.133                    24011494.309
 124214401.185 7  96790468.16844  23637217.477                    23637226.426
 128447982.138 6 100089353.67043  24442845.453                    24442853.730
 114259292.638 7  89033246.15144  21742821.992                    21742830.164
 112539343.624 8  87693010.13145  21415529.766                    21415536.113
 110041850.771 8  85746929.07946  20940265.141                    20940271.117
 106262903.205 8  82802287.99546  20221159.305                    20221166.344
 11  7 27 18 20 30.0000000  0 11G28G10G08G07G11G06G16G03G23G19G13
 125518747.364 6  97806890.43543  23885428.320                    23885436.906
 127544053.894 7  99385009.59043  24270833.414                    24270844.090
 121992727.749 7  95059293.21644  23214434.461                    23214444.016
 112482122.788 8  87648443.616 7  21404633.391                    21404640.578
 126101155.131 6  98260697.10343  23996248.063                    23996259.531
 124301222.920 6  96858121.41043  23653738.852                    23653748.043
 128537216.363 6 100158886.75143  24459825.914                    24459834.621
 114333462.812 7  89091041.07244  21756936.227                    21756943.961
 112626584.395 8  87760989.88745  21432131.008                    21432137.910
 110046296.534 8  85750393.30746  20941111.047                    20941117.316
 106297613.174 8  82829334.69146  20227764.398                    20227771.684
 11  7 27 18 21  0.0000000  0 11G28G10G08G07G11G06G16G03G23G19G13
 125456746.904 7  97758578.42544  23873630.461                    23873639.438
 127587286.111 6  99418696.95443  24279060.258                    24279070.570
 121920413.767 7  95002944.67344  23200674.117                    23200682.164
 112430768.346 7  87608427.173 7  21394861.000                    21394868.832
 126021085.766 6  98198305.42043  23981012.359                    23981023.223
 124388344.295 6  96926008.12343  23670317.320                    23670326.547
 128626380.784 6 100228365.48343  24476793.570                    24476801.926
 114408091.616 7  89149193.33544  21771137.336                    21771145.895
 112714217.833 7  87829275.61245  21448807.320                    21448813.758
 110051364.983 8  85754342.73946  20942075.742                    20942081.641
 106332908.304 8  82856837.36646  20234480.938                    20234488.164
 11  7 27 18 21 30.0000000  0 11G28G10G08G07G11G06G16G03G23G19G13
 125394964.101 7  97710436.05343  23861872.945                    23861883.063
 127630827.981 6  99452625.62943  24287346.320                    24287356.555
 121848065.389 7  94946569.31944  23186906.945                    23186914.996
 112379529.603 7  87568500.867 7  21385110.695                    21385117.852
 125941007.393 6  98135906.71743  23965774.016                    23965784.293
 124475762.641 6  96994126.26443  23686952.758                    23686961.684
 128715473.950 6 100297788.69643  24493747.305                    24493755.883
 114483176.043 7  89207700.64144  21785426.320                    21785434.148
 112802241.299 7  87897865.23945  21465557.578                    21465564.148
 110057055.901 8  85758777.21946  20943158.523                    20943164.816
 106368787.516 8  82884795.17146  20241308.875                    20241315.949
 11  7 27 18 22  0.0000000  0 11G28G10G08G07G11G06G16G03G23G19G13
 125333398.375 6  97662462.83643  23850156.969                    23850166.738
 127674676.745 6  99486793.40243  24295690.250                    24295700.695
 121775683.071 7  94890167.54744  23173132.945                    23173142.055
 112328407.421 7  87528665.428 7  21375382.023                    21375390.074
 125860922.637 6  98073503.02443  23950534.867                    23950544.863
 124563474.850 6  97062473.38643  23703644.031                    23703652.539
 128804494.423 6 100367155.21743  24510687.695                    24510696.234
 114558712.767 7  89266560.39644  21799799.836                    21799808.016
 112890651.947 8  87966756.58945  21482381.500                    21482388.102
 110063368.493 8  85763696.11546  20944359.625                    20944365.703
 106405249.094 8  82913206.75546  20248246.836                    20248254.285
 11  7 27 18 22 30.0000000  0 11G28G10G08G07G11G06G16G03G23G19G13
 125272049.968 6  97614658.96743  23838482.859                    23838492.047
 127718830.049 6  99521198.50543  24304091.961                    24304102.770
 121703267.856 7  94833740.16344  23159352.242                    23159361.539
 112277403.576 7  87488922.187 7  21365676.492                    21365684.422
 125780834.280 6  98011096.58743  23935294.172                    23935304.660
 124651478.830 6  97131047.86343  23720390.188                    23720399.469
 128893441.677 6 100436464.70243  24527613.117                    24527622.035
 114634699.909 7  89325771.12445  21814259.906                    21814267.793
 112979447.641 7  88035947.95545  21499279.070                    21499285.754
 110070302.957 8  85769099.58846  20945679.117                    20945685.648
 106442292.963 8  82942072.07646  20255296.148                    20255303.395
 11  7 27 18 23  0.0000000  0 11G28G10G08G07G11G06G16G03G23G19G13
 125210919.190 7  97567024.60543  23826850.430                    23826859.109
 127763285.439 6  99555839.00343  24312552.328                    24312562.625
 121630820.673 7  94777287.81544  23145566.648                    23145574.715
 112226519.483 7  87449272.259 7  21355993.813                    21356001.133
 125700745.281 6  97948689.57143  23920053.766                    23920062.941
 124739771.985 6  97199847.69043  23737192.203                    23737200.758
 128982314.842 5 100505716.40742  24544525.820                    24544534.094
 114711134.922 7  89385330.83345  21828805.172                    21828813.750
 113068625.710 7  88105437.29745  21516248.992                    21516255.668
 110077859.089 7  85774987.46846  20947117.117                    20947123.504
 106479918.274 8  82971390.47046  20262456.266                    20262463.289
 11  7 27 18 23 30.0000000  0 11G28G10G08G07G11G06G16G03G23G19G13
 125150005.626 7  97519559.50443  23815259.430                    23815267.648
 127808040.277 6  99590712.81643  24321067.867                    24321078.898
 121558342.083 7  94720811.00144  23131774.344                    23131782.617
 112175756.310 8  87409716.531 7  21346333.539                    21346341.344
 125620658.275 6  97886284.25943  23904812.469                    23904824.129
 124828351.904 6  97268870.96843  23754048.383                    23754057.254
 129071112.732 6 100574909.51643  24561422.438                    24561432.078
 114788014.655 7  89445237.08445  21843434.734                    21843443.500
 113158183.997 7  88175222.90045  21533291.313                    21533297.945
 110086036.971 8  85781359.84446  20948673.578                    20948679.566
 106518123.975 8  83001161.11446  20269726.383                    20269733.438
 11  7 27 18 24  0.0000000  0 11G28G10G08G07G11G06G16G03G23G19G13
 125089308.596 7  97472263.15944  23803709.070                    23803718.344
 127853091.567 6  99625817.62943  24329640.742                    24329652.113
 121485832.301 7  94664309.92444  23117974.977                    23117984.914
 112125114.979 8  87370255.769 7  21336696.844                    21336704.680
 125540576.522 6  97823882.82642  23889573.719                    23889583.684
 124917215.535 6  97338115.30943  23770958.234                    23770967.281
 129159833.989 6 100644042.91943  24578306.672                    24578314.875
 114865336.206 7  89505487.59944  21858148.656                    21858157.277
 113248119.304 7  88245302.29445  21550405.695                    21550412.289
 110094835.933 8  85788216.16946  20950347.625                    20950353.934
 106556908.728 8  83031382.97446  20277107.117                    20277114.094
 11  7 27 18 24 30.0000000  0 11G28G10G08G07G11G06G16G03G23G19G13
 125028828.757 6  97425136.09444  23792199.297                    23792209.867
 127898437.663 6  99661152.15943  24338270.266                    24338280.813
 121413292.837 7  94607785.69344  23104171.961                    23104181.074
 112074597.920 8  87330891.844 7  21327084.023                    21327091.332
 125460502.62916  97761487.83653  23874337.055                    23874347.191
 125006361.161 6  97407579.40143  23787922.641                    23787931.434
 129248478.568 5 100713116.58843  24595174.477                    24595184.184
 114943097.753 7  89566080.99745  21872946.656                    21872954.262
 113338429.934 7  88315674.14145  21567591.250                    21567597.820
 110104256.244 8  85795556.67946  20952140.320                    20952146.465
 106596272.465 8  83062055.98446  20284597.914                    20284604.879
 11  7 27 18 25  0.0000000  0 11G28G10G08G07G11G06G16G03G23G19G13
 124968565.748 6  97378177.99443  23780731.148                    23780741.590
 127944075.110 6  99696713.74843  24346955.125                    24346965.277
 121340723.733 7  94551238.36144  23090362.570                    23090371.680
 112024205.783 8  87291625.248 7  21317494.641                    21317502.273
 125380438.959 6  97699100.67343  23859100.609                    23859111.406
 125095785.526 6  97477260.71043  23804939.344                    23804948.156
 129337044.824 5 100782129.16542  24612027.953                    24612037.449
 115021296.116 7  89627014.74644  21887826.953                    21887835.406
 113429112.706 8  88386335.98645  21584847.820                    21584854.121
 110114296.871 7  85803380.53346  20954050.992                    20954057.301
 106636213.417 8  83093178.77146  20292198.016                    20292205.473
 11  7 27 18 25 30.0000000  0 11G28G10G08G07G11G06G16G03G23G19G13
 124908519.026 6  97331388.39043  23769304.617                    23769314.523
 127990001.678 6  99732500.58843  24355695.578                    24355705.293
 121268125.696 7  94494668.47544  23076547.961                    23076556.555
 111973939.976 8  87252457.125 7  21307929.180                    21307936.695
 125300388.633 6  97636723.87543  23843868.453                    23843877.582
 125185486.378 6  97547157.45043  23822008.531                    23822017.363
 129425532.203 5 100851080.25542  24628866.664                    24628876.102
 115099928.388 7  89688286.59444  21902789.852                    21902799.141
 113520165.194 7  88457285.91745  21602174.844                    21602181.148
 110124957.814 8  85811687.75846  20956079.766                    20956086.004
 106676730.601 8  83124750.57146  20299908.039                    20299915.527
 11  7 27 18 26  0.0000000  0 11G28G10G08G07G11G06G16G03G23G19G13
 124848688.911 6  97284767.53343  23757919.609                    23757928.742
 128036214.842 6  99768510.77643  24364488.734                    24364499.629
 121195500.195 7  94438077.20644  23062727.359                    23062736.801
 111923802.141 7  87213388.696 7  21298388.430                    21298395.754
 125220354.778 6  97574359.98543  23828637.055                    23828648.898
 125275461.418 6  97617267.79143  23839130.750                    23839139.105
 129513939.747 6 100919969.21342  24645690.063                    24645699.281
 115178992.460 7  89749894.91244  21917835.922                    21917844.230
 113611585.262 7  88528522.26545  21619571.117                    21619577.395
 110136239.136 8  85820478.40346  20958226.461                    20958232.695
 106717823.905 8  83156771.29946  20307728.016                    20307734.875
 11  7 27 18 26 30.0000000  0 11G28G10G08G07G11G06G16G03G23G19G13
 124789074.899 6  97238315.07643  23746575.711                    23746584.465
 128082711.367 6  99804741.81343  24373336.750                    24373347.992
 121122847.103 7  94381464.43844  23048902.039                    23048910.754
 111873793.451 7  87174420.901 7  21288872.305                    21288879.320
 125140339.862 6  97512010.72443  23813411.719                    23813421.145
 125365707.666 6  97687589.55743  23856303.234                    23856312.637
 129602266.326 6 100988795.06442  24662498.633                    24662507.102
 115258485.100 7  89811837.18844  21932962.508                    21932970.680
 113703369.267 7  88600042.20045  21637037.219                    21637043.668
 110148139.786 8  85829751.63946  20960491.086                    20960497.484
 106759491.147 8  83189239.25046  20315656.836                    20315664.594
 11  7 27 18 27  0.0000000  0 11G28G10G08G07G11G06G16G03G23G19G13
 124729677.368 6  97192031.31943  23735272.742                    23735281.707
 128129489.355 6  99841192.13343  24382238.914                    24382248.977
 121050168.273 7  94324831.60744  23035070.938                    23035080.445
 111823915.910 8  87135555.286 7  21279380.438                    21279388.160
 125060346.648 6  97449678.53443  23798188.008                    23798199.762
 125456222.963 6  97758120.86143  23873528.523                    23873537.715
 129690511.228 6 101057557.29943  24679291.070                    24679299.512
 115338404.153 7  89874111.73344  21948170.195                    21948179.313
 113795515.669 7  88671844.51945  21654572.367                    21654578.906
 110160660.000 8  85839507.64546  20962873.969                    20962879.973
 106801731.866 8  83222154.06746  20323695.664                    20323702.633
 11  7 27 18 27 30.0000000  0 11G28G10G08G07G11G06G16G03G23G19G13
 124670495.442 7  97145915.53543  23724010.648                    23724020.102
 128176545.386 6  99877859.09243  24391193.281                    24391204.414
 120977463.758 7  94268178.74844  23021236.398                    23021245.230
 111774169.961 7  87096792.218 7  21269914.328                    21269921.539
 124980378.030 6  97387365.38643  23782970.727                    23782981.352
 125547004.177 6  97828859.39243  23890803.430                    23890812.793
 129778672.965 6 101126254.74442  24696067.633                    24696076.168
 115418746.123 7  89936715.82345  21963459.320                    21963467.848
 113888021.237 7  88743926.71745  21672175.305                    21672181.797
 110173798.717 7  85849745.59746  20965373.953                    20965380.207
 106844544.319 8  83255514.38846  20331842.211                    20331849.848
 11  7 27 18 28  0.0000000  0 11G28G10G08G07G11G06G16G03G23G19G13
 124611528.991 6  97099967.67943  23712789.328                    23712799.441
 128223877.728 6  99914741.35043  24400199.625                    24400211.250
 120904734.536 7  94211506.65644  23007396.359                    23007405.355
 111724557.771 7  87058133.388 7  21260473.547                    21260480.941
 124900437.036 6  97325073.84043  23767758.453                    23767769.387
 125638049.355 6  97899803.64943  23908128.750                    23908137.566
 129866751.289 6 101194887.14742  24712828.484                    24712837.000
 115499508.785 7  89999647.69844  21978827.844                    21978836.719
 113980883.797 7  88816287.07645  21689846.922                    21689853.523
 110187555.755 7  85860465.36146  20967991.977                    20967997.867
 106887927.980 8  83289319.80946  20340098.086                    20340105.477
 11  7 27 18 28 30.0000000  0 11G28G10G08G07G11G06G16G03G23G19G13
 124552778.106 6  97054187.85943  23701610.141                    23701619.996
 128271483.427 6  99951836.60343  24409259.164                    24409270.559
 120831981.547 7  94154816.03944  22993552.492                    22993561.328
 111675080.592 8  87019579.750 7  21251058.328                    21251065.539
 124820526.445 6  97262805.92643  23752551.875                    23752562.363
 125729355.464 6  97970951.25143  23925503.977                    23925512.352
 129954745.391 6 101263453.86142  24729573.672                    24729581.836
 115580689.316 7  90062905.22144  21994275.344                    21994284.207
 114074100.354 7  88888923.28645  21707585.109                    21707591.547
 110201930.471 7  85871666.43046  20970727.359                    20970733.164
 106931881.629 8  83323569.37346  20348462.016                    20348469.363
 11  7 27 18 29  0.0000000  0 11G28G10G08G07G11G06G16G03G23G19G13
 124494242.259 6  97008575.54844  23690470.758                    23690480.207
 128319359.571 6  99989142.62843  24418369.938                    24418380.574
 120759205.263 6  94098107.27044  22979702.750                    22979711.906
 111625740.049 8  86981132.588 7  21241669.375                    21241676.488
 124740648.917 7  97200563.76543  23737352.844                    23737361.730
 125820920.221 6  98042300.35443  23942929.000                    23942937.445
 130042654.105 6 101331954.04742  24746302.305                    24746310.430
 115662284.627 7  90126485.95644  22009802.586                    22009811.281
 114167668.332 7  88961833.32645  21725391.117                    21725397.273
 110216922.359 8  85883348.40846  20973579.914                    20973585.973
 106976403.670 8  83358261.83446  20356934.242                    20356941.848
 11  7 27 18 29 30.0000000  0 11G28G10G08G07G11G06G16G03G23G19G13
 124435921.390 6  96963130.73343  23679372.875                    23679382.563
 128367503.523 5 100026657.28743  24427530.656                    24427542.422
 120686406.962 7  94041381.32744  22965850.586                    22965858.621
 111576536.909 8  86942792.484 7  21232306.258                    21232313.129
 124660807.610 6  97138349.92243  23722159.328                    23722169.480
 125912741.014 6  98113848.96543  23960401.344                    23960410.379
 130130476.810 6 101400387.20942  24763014.078                    24763022.621
 115744292.287 7  90190388.00144  22025408.813                    22025416.844
 114261585.006 8  89035015.08345  21743262.313                    21743269.137
 110232531.003 8  85895510.99046  20976550.422                    20976556.629
 107021493.269 8  83393396.56446  20365514.563                    20365521.797
 11  7 27 18 30  0.0000000  0 11G28G10G08G07G11G06G16G03G23G19G13
 124377815.385 6  96917853.34743  23668315.445                    23668324.832
 128415912.908 5 100064378.78343  24436742.664                    24436754.602
 120613587.079 7  93984638.60144  22951992.563                    22952002.152
 111527473.283 8  86904561.097 7  21222969.508                    21222976.914
 124581005.320 6  97076166.33543  23706973.133                    23706982.828
 126004815.378 6  98185595.20643  23977922.578                    23977931.699
 130218212.570 6 101468752.71442  24779709.984                    24779717.898
 115826709.556 7  90254609.21444  22041091.945                    22041100.824
 114355848.237 7  89108466.86945  21761200.094                    21761206.785
 110248755.759 8  85908153.64946  20979638.063                    20979643.750
 107067149.167 8  83428972.56146  20374202.711                    20374210.211
 11  7 27 18 30 30.0000000  0 11G28G10G08G07G11G06G16G03G23G19G13
 124319924.163 6  96872743.33743  23657298.953                    23657307.898
 128464584.659 5 100102304.72143  24446004.992                    24446016.945
 120540746.789 7  93927879.96944  22938131.914                    22938141.012
 111478550.283 8  86866439.272 7  21213659.945                    21213666.984
 124501244.622 6  97014015.35543  23691794.570                    23691805.598
 126097140.561 7  98257536.85344  23995491.727                    23995500.637
 130305860.364 6 101537049.70642  24796388.289                    24796397.262
 115909533.344 7  90319147.19644  22056853.086                    22056861.578
 114450454.750 7  89182186.14945  21779203.156                    21779209.527
 110265595.921 8  85921275.84446  20982842.391                    20982848.152
 107113370.023 8  83464988.77746  20382998.055                    20383005.566
 11  7 27 18 31  0.0000000  0 11G28G10G08G07G11G06G16G03G23G19G13
 124262246.949 7  96827800.04243  23646323.969                    23646332.926
 128513516.415 6 100140433.28743  24455317.367                    24455327.957
 120467886.860 7  93871106.01844  22924266.883                    22924276.047
 111429769.702 8  86828428.441 7  21204377.125                    21204384.445
 124421528.864 7  96951899.22243  23676625.086                    23676635.949
 126189714.106 6  98329672.01843  24013107.266                    24013116.770
 130393419.892 6 101605277.80243  24813051.414                    24813059.309
 115992761.235 7  90384000.06544  22072690.992                    22072699.012
 114545402.403 7  89256171.26645  21797271.500                    21797277.898
 110283051.041 8  85934877.23846  20986164.078                    20986170.137
 107160154.559 8  83501444.22746  20391901.172                    20391908.551
 11  7 27 18 31 30.0000000  0 11G28G10G08G07G11G06G16G03G23G19G13
 124204783.905 6  96783023.72143  23635388.602                    23635398.297
 128562705.152 6 100178762.08143  24464677.281                    24464688.563
 120395007.706 7  93814317.10544  22910397.984                    22910407.047
 111381132.971 8  86790529.689 7  21195122.141                    21195129.508
 124341860.799 7  96889820.34943  23661464.844                    23661474.652
 126282533.679 6  98401998.89743  24030770.055                    24030780.027
 130480890.114 6 101673436.37143  24829695.438                    24829704.684
 116076390.120 7  90449165.40444  22088604.648                    22088613.215
 114640688.278 7  89330419.91845  21815403.680                    21815410.430
 110301120.427 8  85948957.27546  20989602.391                    20989608.652
 107207501.520 8  83538337.92846  20400910.570                    20400918.199
 11  7 27 18 32  0.0000000  0 11G28G10G08G07G11G06G16G03G23G19G13
 124147534.429 6  96738413.78943  23624494.484                    23624503.465
 128612148.183 6 100217289.03743  24474086.977                    24474097.129
 120322110.612 7  93757514.20944  22896526.266                    22896535.250
 111332641.279 8  86752743.951 7  21185894.047                    21185901.086
 124262243.383 6  96827780.93543  23646314.383                    23646323.828
 126375596.506 6  98474515.35143  24048480.031                    24048488.910
 130568270.168 6 101741524.71443  24846322.898                    24846332.801
 116160417.419 7  90514641.19444  22104594.227                    22104603.504
 114736309.553 7  89404929.92545  21833599.852                    21833606.883
 110319803.070 8  85963515.17346  20993157.609                    20993163.855
 107255409.407 8  83575668.71746  20410027.352                    20410035.020
 11  7 27 18 32 30.0000000  0 11G28G10G08G07G11G06G16G03G23G19G13
 124090498.425 7  96693970.19243  23613641.016                    23613650.008
 128661843.178 6 100256012.34843  24483542.563                    24483553.598
 120249196.853 7  93700698.31944  22882651.961                    22882660.672
 111284296.287 8  86715072.530 7  21176694.781                    21176701.977
 124182679.628 6  96765783.28743  23631173.938                    23631183.906
 126468900.146 6  98547219.43643  24066234.875                    24066244.012
 130655559.499 6 101809542.34243  24862934.961                    24862943.191
 116244840.613 7  90580425.44744  22120660.117                    22120668.625
 114832263.581 7  89479699.22645  21851859.164                    21851866.203
 110339098.565 7  85978550.62146  20996829.383                    20996835.762
 107303877.361 8  83613435.91946  20419250.625                    20419258.180
 11  7 27 18 33  0.0000000  0 11G28G10G08G07G11G06G16G03G23G19G13
 124033675.697 6  96649692.78843  23602827.078                    23602836.484
 128711787.010 6 100294929.54843  24493046.078                    24493057.340
 120176266.650 7  93643869.62244  22868773.047                    22868781.992
 111236099.571 8  86677516.646 7  21167522.961                    21167530.047
 124103172.061 6  96703829.43243  23616043.438                    23616052.762
 126562442.080 6  98620109.18043  24084035.141                    24084044.523
 130742756.823 5 101877488.23642  24879526.750                    24879535.738
 116329656.440 7  90646515.66644  22136800.398                    22136808.734
 114928547.504 7  89554725.57045  21870181.344                    21870188.215
 110359006.039 7  85994062.92746  21000618.125                    21000624.227
 107352903.414 8  83651638.00846  20428579.938                    20428587.523
 11  7 27 18 33 30.0000000  0 10G28G10G08G07G11G06G03G23G19G13
 123977066.187 7  96605581.52743  23592055.047                    23592063.891
 128761977.445 6 100334038.94243  24502597.883                    24502607.973
 120103321.734 7  93587029.43644  22854892.070                    22854900.703
 111188053.011 8  86640077.783 7  21158379.961                    21158387.203
 124023723.994 6  96641921.93043  23600925.695                    23600935.484
 126656219.771 6  98693182.67743  24101880.781                    24101889.375
 116414862.387 7  90712909.87944  22153014.094                    22153022.875
 115025159.235 7  89630007.35945  21888566.109                    21888573.266
 110379525.172 7  86010051.84946  21004522.500                    21004528.719
 107402486.712 8  83690274.31346  20438015.422                    20438022.594
 11  7 27 18 34  0.0000000  0 10G28G10G08G07G11G06G03G23G19G13
 123920669.287 6  96561635.92043  23581323.641                    23581332.059
 128812411.523 6 100373338.17643  24512194.805                    24512204.926
 120030362.277 7  93530177.94144  22841008.375                    22841017.754
 111140157.777 8  86602756.823 7  21149265.586                    21149273.105
 123944337.990 7  96580062.81943  23585818.352                    23585827.883
 126750230.428 6  98766437.72943  24119770.086                    24119778.789
 116500455.475 7  90779605.72344  22169302.008                    22169310.898
 115122095.697 7  89705542.18245  21907012.641                    21907019.516
 110400654.686 7  86026516.40346  21008543.266                    21008548.977
 107452625.400 8  83729343.39246  20447556.188                    20447563.961
 11  7 27 18 34 30.0000000  0 10G28G10G08G07G11G06G03G23G19G13
 123864484.672 7  96517855.74743  23570632.016                    23570640.219
 128863086.787 6 100412825.31643  24521837.992                    24521848.980
 119957389.607 7  93473316.14844  22827122.281                    22827131.336
 111092415.414 8  86565554.993 7  21140180.617                    21140188.129
 123865017.472 6  96518254.73543  23570724.141                    23570734.523
 126844471.818 6  98839872.49443  24137703.414                    24137713.105
 116586432.797 7  90846600.98244  22185663.297                    22185671.520
 115219354.239 7  89781327.97645  21925520.414                    21925527.422
 110422393.751 7  86043455.91546  21012680.391                    21012685.895
 107503318.232 8  83768844.26346  20457203.125                    20457210.688
 11  7 27 18 35  0.0000000  0 10G28G10G08G07G11G06G03G23G19G13
 123808511.504 6  96474240.30543  23559980.211                    23559989.391
 128913999.770 6 100452497.69543  24531526.914                    24531537.438
 119884404.385 7  93416444.57344  22813233.977                    22813242.137
 111044827.083 8  86528473.191 7  21131124.781                    21131132.324
 123785764.702 7  96456499.39043  23555642.852                    23555652.234
 126938940.828 6  98913484.61943  24155680.461                    24155689.469
 116672791.186 7  90913893.18744  22202096.258                    22202105.258
 115316931.628 7  89857362.21445  21944088.625                    21944095.867
 110444741.210 7  86060869.51046  21016932.539                    21016938.688
 107554563.098 8  83808775.29446  20466954.523                    20466961.965
 11  7 27 18 35 30.0000000  0 10G28G10G08G07G11G06G03G23G19G13
 123752750.220 6  96430790.01243  23549368.898                    23549378.051
 128965148.549 6 100492353.77643  24541260.680                    24541271.137
 119811407.937 7  93359564.23844  22799342.961                    22799351.641
 110997394.853 8  86491513.008 7  21122098.914                    21122106.676
 123706583.196 6  96394799.63843  23540574.672                    23540584.484
 127033635.485 6  98987272.60643  24173700.305                    24173710.367
 116759528.621 7  90981480.73844  22218602.445                    22218611.309
 115414825.535 7  89933643.08145  21962717.789                    21962724.750
 110467697.029 7  86078757.14846  21021300.797                    21021307.449
 107606359.342 8  83849135.96346  20476811.164                    20476818.910
 11  7 27 18 36  0.0000000  0 10G28G10G08G07G11G06G03G23G19G13
 123697200.538 7  96387504.59944  23538798.750                    23538807.211
 129016529.932 6 100532391.15743  24551038.234                    24551048.777
 119738401.309 7  93302675.99044  22785450.977                    22785459.016
 110950120.449 8  86454675.814 7  21113103.109                    21113110.316
 123627475.801 6  96333157.57943  23525520.602                    23525530.859
 127128553.183 6  99061234.36443  24191763.500                    24191772.734
 116846642.040 7  91049361.27444  22235179.070                    22235188.254
 115513033.691 7  90010168.83545  21981406.102                    21981412.969
 110491260.084 7  86097117.96346  21025784.969                    21025790.797
 107658705.594 8  83889925.22246  20486772.555                    20486779.473
 11  7 27 18 36 30.0000000  0 10G28G10G08G07G11G06G03G23G19G13
 123641861.582 7  96344383.36144  23528268.086                    23528276.152
 129068140.873 5 100572607.34543  24560859.273                    24560870.398
 119665384.847 7  93245780.07944  22771555.672                    22771564.109
 110903004.654 8  86417962.228 7  21104136.906                    21104144.422
 123548444.975 7  96271575.21644  23510482.523                    23510492.766
 127223691.020 6  99135367.68443  24209866.969                    24209876.699
 116934128.282 7  91117532.32544  22251827.531                    22251836.238
 115611552.528 7  90086936.66945  22000153.414                    22000160.699
 110515428.702 8  86115950.64846  21030383.938                    21030390.246
 107711599.394 8  83931141.13846  20496838.266                    20496845.699
 11  7 27 18 37  0.0000000  0 10G28G10G08G07G11G06G03G23G19G13
 123586732.898 7  96301425.99244  23517777.109                    23517786.332
 129119978.686 6 100613000.35143  24570723.992                    24570734.801
 119592359.635 7  93188877.33844  22757659.336                    22757668.043
 110856049.192 8  86381373.564 7  21095201.641                    21095209.352
 123469493.797 6  96210054.95243  23495458.031                    23495467.852
 127319046.433 6  99209670.57443  24228012.773                    24228022.332
 117021984.248 7  91185991.47744  22268545.977                    22268554.129
 115710379.362 7  90163944.49045  22018959.891                    22018966.750
 110540202.058 7  86135254.55146  21035098.086                    21035104.410
 107765039.222 8  83972782.52746  20507007.031                    20507014.492
 11  7 27 18 37 30.0000000  0 10G28G10G08G07G11G06G03G23G19G13
 123531814.390 7  96258632.39544  23507326.523                    23507335.469
 129172041.137 6 100653568.38843  24580631.430                    24580642.086
 119519326.836 7  93131968.69944  22743762.242                    22743770.531
 110809256.048 8  86344911.387 7  21086297.391                    21086304.824
 123390625.725 6  96148599.34043  23480450.039                    23480459.359
 127414617.148 6  99284141.19343  24246199.086                    24246208.809
 117110207.331 6  91254736.68544  22285334.320                    22285342.801
 115809511.802 7  90241190.46045  22037823.836                    22037831.352
 110565579.551 8  86155029.21046  21039927.656                    21039933.648
 107819024.366 8  84014848.83846  20517280.172                    20517287.918
 11  7 27 18 38  0.0000000  0 10G28G10G08G07G11G06G03G23G19G13
 123477106.175 7  96216002.67443  23496915.734                    23496925.199
 129224325.452 6 100694309.32443  24590581.023                    24590590.953
 119446287.971 7  93075055.32944  22729863.055                    22729871.430
 110762626.949 8  86308577.036 7  21077423.977                    21077431.234
 123311843.470 6  96087210.71543  23465457.984                    23465468.121
 127510400.801 6  99358777.74443  24264426.219                    24264435.664
 117198795.391 7  91323766.32644  22302191.492                    22302200.570
 115908947.051 7  90318672.38845  22056746.344                    22056752.879
 110591560.287 7  86175273.93746  21044871.406                    21044877.395
 107873552.874 8  84057338.56746  20527656.383                    20527663.996
 11  7 27 18 38 30.0000000  0 10G28G10G08G07G11G06G03G23G19G13
 123422607.127 7  96173535.93444  23486544.859                    23486553.781
 129276828.118 6 100735220.45243  24600571.609                    24600582.445
 119373243.554 7  93018137.62544  22715962.930                    22715971.836
 110716162.933 8  86272371.308 7  21068582.063                    21068589.469
 123233149.916 6  96025891.12043  23450482.805                    23450492.609
 127606394.303 6  99433577.83143  24282692.695                    24282702.195
 117287744.580 7  91393077.31644  22319118.891                    22319127.195
 116008681.874 7  90396387.73645  22075725.000                    22075732.527
 110618142.822 7  86195987.59346  21049929.945                    21049935.953
 107928622.852 8  84100250.20546  20538136.156                    20538143.469
 11  7 27 18 39  0.0000000  0 10G28G10G08G07G11G06G03G23G19G13
 123368317.103 7  96131232.03743  23476213.945                    23476222.273
 129329546.967 6 100776299.96443  24610604.102                    24610614.156
 119300194.705 7  92961216.47844  22702062.391                    22702071.219
 110669865.627 8  86236295.493 7  21059771.836                    21059779.520
 123154548.036 7  95964643.02243  23435526.039                    23435536.031
 127702595.223 6  99508539.55143  24301000.523                    24301009.410
 117377052.060 7  91462667.52944  22336112.945                    22336121.520
 116108713.704 7  90474334.51945  22094760.563                    22094767.594
 110645326.197 7  86217169.43446  21055102.977                    21055108.977
 107984232.804 8  84143582.61146  20548717.984                    20548725.793
 11  7 27 18 39 30.0000000  0 10G28G10G08G07G11G06G03G23G19G13
 123314235.835 7  96089090.83344  23465922.875                    23465931.383
 129382479.604 6 100817546.11543  24620676.992                    24620687.207
 119227142.752 7  92904292.89244  22688160.938                    22688169.617
 110623737.013 8  86200351.117 7  21050993.953                    21051001.535
 123076041.130 6  95903468.87843  23420586.117                    23420595.090
 127799001.557 6  99583661.29743  24319345.563                    24319355.105
 117466715.057 7  91532534.76644  22353175.516                    22353184.113
 116209039.982 7  90552510.73545  22113852.266                    22113859.430
 110673109.421 7  86238818.69046  21060390.016                    21060396.172
 108040381.267 8  84187334.62246  20559403.047                    20559410.664
 11  7 27 18 40  0.0000000  0 10G28G10G08G07G11G06G03G23G19G13
 123260363.134 7  96047112.15544  23455670.773                    23455680.320
 129435622.855 6 100858956.34343  24630789.477                    24630799.992
 119154088.543 7  92847367.58744  22674259.422                    22674267.910
 110577778.758 8  86164539.497 7  21042248.516                    21042255.840
 122997631.841 6  95842370.83343  23405665.984                    23405674.762
 127895610.536 6  99658940.95342  24337729.711                    24337739.539
 117556731.282 6  91602677.24644  22370305.320                    22370313.656
 116309657.806 7  90630914.13944  22132999.758                    22133006.246
 110701491.631 7  86260934.68946  21065790.367                    21065797.184
 108097066.272 8  84231504.72646  20570190.023                    20570197.137
 11  7 27 18 40 30.0000000  0 10G28G10G08G07G11G06G03G23G19G13
 123206698.128 7  96005295.32044  23445458.555                    23445467.746
 129488973.389 6 100900528.14143  24640942.195                    24640952.285
 119081033.273 7  92790441.41345  22660357.102                    22660365.633
 110531991.721 8  86128861.285 7  21033535.344                    21033543.145
 122919323.011 7  95781351.04343  23390763.797                    23390773.074
 127992419.212 6  99734376.20043  24356151.578                    24356160.879
 117647097.190 7  91673092.19144  22387501.578                    22387509.750
 116410564.145 7  90709542.35744  22152201.070                    22152208.055
 110730471.058 7  86283516.04846  21071305.898                    21071311.613
 108154285.849 8  84276091.38046  20581078.680                    20581086.270
 11  7 27 18 41  0.0000000  0 10G28G10G08G07G11G06G03G23G19G13
 123153240.538 7  95963640.10544  23435285.992                    23435295.473
 129542529.378 6 100942259.98443  24651133.063                    24651143.523
 119007977.991 7  92733515.24144  22646455.461                    22646464.023
 110486378.382 8  86093318.445 7  21024855.648                    21024862.863
 122841117.835 6  95720412.03143  23375881.430                    23375891.035
 128089425.345 6  99809965.37143  24374611.148                    24374620.844
 117737810.497 6  91743777.84144  22404763.570                    22404771.656
 116511756.562 7  90788393.49444  22171457.797                    22171464.813
 110760046.984 7  86306562.21746  21076933.344                    21076939.477
 108212038.690 8  84321093.55746  20592068.719                    20592075.910
 11  7 27 18 41 30.0000000  0 10G28G10G08G07G11G06G03G23G19G13
 123099990.155 6  95922146.37343  23425151.602                    23425161.352
 129596287.295 6 100984149.19942  24661362.266                    24661373.629
 118934923.518 7  92676589.70044  22632552.414                    22632562.145
 110440940.201 7  86057912.073 7  21016208.945                    21016216.098
 122763019.251 6  95659556.00943  23361020.414                    23361029.234
 128186626.480 6  99885706.41842  24393107.594                    24393118.059
 117828868.406 7  91814732.00744  22422091.359                    22422099.637
 116613232.259 7  90867465.36445  22190767.688                    22190775.156
 110790218.236 7  86330072.28346  21082674.703                    21082680.879
 108270323.289 7  84366510.08446  20603159.625                    20603166.902
 11  7 27 18 42  0.0000000  0 10G28G10G08G07G11G06G03G23G19G13
 123046946.302 7  95880813.50744  23415058.992                    23415066.996
 129650244.561 6 101026193.71342  24671630.734                    24671641.637
 118861871.211 7  92619665.85044  22618651.953                    22618660.723
 110395678.354 8  86022643.108 7  21007595.984                    21007602.906
 122685030.336 7  95598785.54443  23346178.609                    23346189.746
 128284019.986 6  99961597.37442  24411640.789                    24411651.754
 117920267.373 6  91885951.94644  22439483.680                    22439491.688
 116714987.984 7  90946755.43345  22210131.078                    22210138.398
 110820983.210 7  86354044.98346  21088529.289                    21088535.965
 108329137.214 8  84412339.08046  20614350.938                    20614358.910
 11  7 27 18 42 30.0000000  0 10G28G10G08G07G11G06G03G23G19G13
 122994108.654 7  95839641.34244  23405004.539                    23405012.191
 129704398.813 6 101068391.68843  24681935.469                    24681947.523
 118788822.480 7  92562744.77644  22604751.055                    22604759.895
 110350595.044 8  85987513.254 7  20999016.930                    20999023.887
 122607154.212 6  95538102.85843  23331360.258                    23331368.469
 128381603.512 6 100037636.47843  24430210.938                    24430220.805
 118012004.768 6  91957435.56444  22456941.125                    22456949.820
 116817021.297 7  91026261.80645  22229546.961                    22229554.527
 110852341.161 7  86378479.74646  21094496.734                    21094503.094
 108388478.835 7  84458579.26646  20625644.133                    20625651.449
 11  7 27 18 43  0.0000000  0 10G28G10G08G07G11G06G03G23G19G13
 122941476.406 7  95798629.24444  23394988.070                    23394997.465
 129758746.445 6 101110740.37543  24692277.297                    24692289.234
 118715777.796 7  92505826.87344  22590851.016                    22590860.039
 110305691.171 8  85952523.231 7  20990471.727                    20990479.324
 122529393.300 7  95477510.03844  23316562.227                    23316571.926
 128479374.011 6 100113821.24543  24448815.953                    24448825.777
 118104077.444 6  92029180.46344  22474461.781                    22474470.887
 116919328.937 7  91105981.93944  22249015.867                    22249023.590
 110884290.215 7  86403375.11046  21100576.359                    21100582.406
 108448346.110 8  84505229.06046  20637036.273                    20637043.988
 11  7 27 18 43 30.0000000  0 10G28G10G08G07G11G06G03G23G19G13
 122889049.766 7  95757777.38344  23385011.906                    23385020.699
 129813285.351 6 101153238.13642  24702656.297                    24702667.520
 118642738.920 7  92448913.47445  22576952.242                    22576960.906
 110260969.367 8  85917675.071 7  20981961.375                    20981969.023
 122451751.143 7  95417009.69543  23301787.492                    23301796.734
 128577329.551 6 100190150.14743  24467456.906                    24467466.168
 118196483.300 6  92101184.98444  22492045.406                    22492054.270
 117021908.464 7  91185913.93344  22268535.969                    22268543.359
 110916829.571 7  86428730.44046  21106768.313                    21106774.570
 108508737.980 8  84552287.62746  20648528.680                    20648536.172
 11  7 27 18 44  0.0000000  0 10G28G10G08G07G11G06G03G23G19G13
 122836828.300 7  95717085.37244  23375074.445                    23375083.801
 129868012.817 6 101195882.78643  24713069.898                    24713081.996
 118569707.041 7  92392005.54245  22563055.070                    22563063.578
 110216431.180 8  85882969.998 7  20973486.352                    20973493.422
 122374231.053 6  95356604.46243  23287035.609                    23287045.160
 128675467.818 6 100266621.47943  24486131.539                    24486141.074
 118289219.497 6  92173446.91643  22509693.195                    22509702.063
 117124757.432 7  91266055.87244  22288107.680                    22288115.180
 110949958.026 7  86454544.81346  21113072.484                    21113078.391
 108569652.531 7  84599753.47246  20660120.211                    20660127.629
 11  7 27 18 44 30.0000000  0 10G28G10G08G07G11G06G03G23G19G13
 122784810.891 7  95676552.36744  23365175.930                    23365184.848
 129922925.296 6 101238671.63243  24723519.555                    24723531.859
 118496682.624 7  92335103.41944  22549158.570                    22549167.371
 110172077.382 7  85848408.600 7  20965046.320                    20965053.250
 122296835.396 7  95296296.20043  23272307.344                    23272316.227
 128773785.498 6 100343232.64443  24504841.250                    24504850.789
 118382282.067 6  92245963.14644  22527402.445                    22527411.012
 117227871.965 7  91346404.75044  22307729.852                    22307737.375
 110983673.820 8  86480816.86646  21119488.117                    21119494.383
 108631087.287 8  84647624.67046  20671810.969                    20671818.469
 11  7 27 18 45  0.0000000  0 10G28G10G08G07G11G06G03G23G19G13
 122732997.207 7  95636178.07643  23355316.391                    23355324.102
 129978019.980 6 101281602.43943  24734004.602                    24734016.270
 118423667.125 7  92278208.24545  22535264.430                    22535272.781
 110127909.945 8  85813992.412 7  20956641.242                    20956648.691
 122219567.367 6  95236087.37643  23257603.820                    23257614.000
 128872280.324 6 100419981.76243  24523583.992                    24523594.242
 118475668.580 6  92318731.81743  22545172.992                    22545181.586
 117331249.828 7  91426958.82844  22327402.867                    22327409.691
 111017975.469 7  86507545.41646  21126015.711                    21126021.844
 108693040.098 8  84695899.55446  20683600.266                    20683607.852
 11  7 27 18 45 30.0000000  0 10G28G10G08G07G11G06G03G23G19G13
 122681387.202 7  95595962.51544  23345494.727                    23345503.543
 130033294.771 6 101324673.62542  24744523.391                    24744534.992
 118350661.804 7  92221321.01144  22521371.617                    22521380.945
 110083930.909 8  85779723.031 7  20948272.117                    20948279.941
 122142429.957 6  95175980.30643  23242925.844                    23242934.145
 128970950.015 6 100496867.17043  24542360.023                    24542370.340
 118569376.269 6  92391750.75243  22563005.047                    22563013.754
 117434888.018 7  91507715.72945  22347124.211                    22347131.402
 111052861.569 7  86534729.37446  21132654.391                    21132660.664
 108755509.635 8  84744577.07646  20695487.859                    20695495.309
 11  7 27 18 46  0.0000000  0 10G28G10G08G07G11G06G03G23G19G13
 122629979.947 7  95555904.95344  23335711.938                    23335721.180
 130088746.409 6 101367882.57643  24755074.992                    24755086.859
 118277668.109 7  92164442.84245  22507481.531                    22507490.094
 110040141.806 8  85745601.638 7  20939939.656                    20939947.352
 122065426.201 6  95115977.44943  23228271.938                    23228281.598
 129069792.123 6 100573886.91443  24561169.273                    24561179.418
 118663402.252 6  92465017.70444  22580897.680                    22580906.516
 117538783.585 7  91588673.20344  22366895.133                    22366902.582
 111088331.178 7  86562368.03146  21139403.945                    21139410.094
 108818493.888 8  84793655.67446  20707473.266                    20707480.984
 11  7 27 18 46 30.0000000  0 10G28G10G08G07G11G06G03G23G19G13
 122578775.209 7  95516005.20844  23325967.516                    23325977.629
 130144372.242 6 101411227.30043  24765660.641                    24765672.168
 118204687.055 7  92107574.50745  22493593.852                    22493601.988
 109996544.280 8  85711629.551 7  20931642.992                    20931650.582
 121988559.335 6  95056081.22143  23213643.867                    23213654.086
 129168803.890 6 100651038.87443  24580010.938                    24580020.492
 118757743.521 7  92538530.35444  22598850.914                    22598858.973
 117642933.896 7  91669829.16644  22386714.695                    22386721.883
 111124382.686 7  86590460.11246  21146264.672                    21146270.219
 108881990.565 8  84843133.56646  20719556.172                    20719564.090
 11  7 27 18 47  0.0000000  0 10G28G10G08G07G11G06G03G23G19G13
 122527771.844 7  95476262.36343  23316262.977                    23316271.672
 130200168.833 6 101454705.04643  24776278.664                    24776290.152
 118131719.189 7  92050716.46944  22479708.086                    22479717.211
 109953139.380 8  85677807.561 7  20923383.594                    20923390.707
 121911831.957 7  94996293.71943  23199044.039                    23199054.188
 129267982.271 6 100728320.63843  24598883.961                    24598893.352
 118852396.628 7  92612285.94743  22616862.156                    22616871.242
 117747335.513 7  91751180.96844  22406580.672                    22406588.746
 111161014.042 7  86619004.01746  21153235.133                    21153241.309
 108945997.267 8  84893008.88646  20731736.445                    20731744.355
 11  7 27 18 47 30.0000000  0 10G28G10G08G07G11G06G03G23G19G13
 122476970.547 7  95436676.96744  23306595.664                    23306603.895
 130256134.676 6 101498314.68743  24786928.656                    24786940.164
 118058767.585 7  91993871.08745  22465826.336                    22465834.906
 109909930.860 8  85644138.603 7  20915161.625                    20915168.734
 121835248.064 6  94936617.99343  23184470.000                    23184479.188
 129367326.350 6 100805731.56343  24617788.117                    24617797.438
 118947360.170 6  92686283.47644  22634933.953                    22634942.363
 117851986.933 7  91832727.40244  22426495.813                    22426503.621
 111198225.236 7  86647999.74946  21160316.359                    21160322.570
 109010513.565 8  84943281.29346  20744013.367                    20744021.465
 11  7 27 18 48  0.0000000  0 10G28G10G08G07G11G06G03G23G19G13
 122426369.587 7  95397247.66244  23296967.000                    23296975.980
 130312265.611 6 101542052.95543  24797609.898                    24797620.977
 117985831.296 7  91937037.63444  22451946.992                    22451955.125
 109866917.993 8  85610622.093 7  20906976.125                    20906983.656
 121758809.078 6  94877055.18943  23169924.641                    23169934.660
 129466832.002 6 100883268.42243  24636723.180                    24636733.051
 119042629.563 7  92760519.30744  22653062.820                    22653071.352
 117956883.646 7  91914464.97044  22446457.297                    22446464.898
 111236013.026 7  86677444.77446  21167507.375                    21167512.910
 109075535.668 8  84993947.81846  20756386.828                    20756394.621
 11  7 27 18 48 30.0000000  0 10G28G10G08G07G11G06G03G23G19G13
 122375969.550 7  95357974.95544  23287375.531                    23287384.551
 130368559.493 6 101585918.21042  24808322.484                    24808333.727
 117912913.115 7  91880218.30444  22438071.031                    22438079.184
 109824103.952 8  85577260.516 7  20898829.125                    20898836.289
 121682519.442 7  94817608.75043  23155406.727                    23155416.340
 129566497.976 5 100960930.12743  24655689.523                    24655699.125
 119138202.989 7  92834992.08244  22671249.297                    22671258.895
 118062023.947 7  91996392.35544  22466464.891                    22466471.934
 111274377.161 7  86707338.89946  21174807.344                    21174813.340
 109141062.727 8  85045007.83446  20768855.797                    20768864.047
 11  7 27 18 49  0.0000000  0 10G28G10G08G07G11G06G03G23G19G13
 122325768.928 7  95318857.63444  23277822.422                    23277831.395
 130425013.415 6 101629908.16543  24819065.430                    24819076.691
 117840013.718 7  91823413.60544  22424198.133                    22424206.805
 109781489.865 8  85544054.746 7  20890719.813                    20890727.020
 121606381.556 7  94758280.56343  23140918.383                    23140927.699
 129666320.922 6 101038714.11442  24674685.891                    24674694.984
 119234076.826 6  92909698.88444  22689493.508                    22689503.012
 118167404.696 7  92078507.10444  22486518.008                    22486525.422
 111313315.316 7  86737680.31346  21182217.492                    21182223.086
 109207092.120 8  85096459.26746  20781421.438                    20781429.066
 11  7 27 18 49 30.0000000  0 10G28G10G08G07G11G06G03G23G19G13
 122275767.892 7  95279895.81344  23268307.828                    23268316.270
 130481624.649 6 101674020.69943  24829838.461                    24829850.551
 117767134.832 7  91766624.88544  22410330.055                    22410338.809
 109739077.849 8  85511006.429 7  20882648.953                    20882656.152
 121530398.904 6  94699073.32444  23126459.516                    23126468.305
 129766298.841 6 101116618.95843  24693711.297                    24693720.500
 119330249.126 7  92984638.27844  22707795.195                    22707803.941
 118273022.768 7  92160806.77644  22506616.430                    22506624.387
 111352826.236 8  86768468.04646  21189735.945                    21189741.984
 109273622.063 8  85148300.74746  20794081.445                    20794089.211
 11  7 27 18 50  0.0000000  0 10G28G10G08G07G11G06G03G23G19G13
 122225965.399 7  95241088.70644  23258830.922                    23258839.105
 130538390.077 6 101718253.38343  24840640.414                    24840651.645
 117694277.352 7  91709852.85145  22396465.719                    22396475.078
 109696869.396 8  85478116.737 7  20874616.914                    20874624.340
 121454574.010 7  94639989.05843  23112030.688                    23112040.809
 129866428.996 6 101194642.38843  24712764.781                    24712774.836
 119426716.136 7  93059807.33144  22726152.000                    22726161.422
 118378875.011 7  92243288.91544  22526759.516                    22526767.242
 111392908.167 7  86799700.71546  21197362.922                    21197369.250
 109340650.253 8  85200530.46746  20806836.102                    20806844.305
 11  7 27 18 50 30.0000000  0 10G28G10G08G07G11G06G03G23G19G13
 122176360.992 7  95202435.96844  23249391.102                    23249400.207
 130595306.830 6 101762603.98443  24851471.047                    24851483.086
 117621442.581 7  91653098.51044  22382605.836                    22382614.461
 109654865.942 8  85445386.778 7  20866623.930                    20866631.250
 121378910.226 6  94581030.28144  23097631.938                    23097641.254
 129966708.917 6 101272782.51042  24731846.961                    24731856.773
 119523474.861 6  93135203.68743  22744564.250                    22744573.402
 118484958.930 7  92325951.56544  22546947.047                    22546954.875
 111433559.489 7  86831377.06046  21205098.992                    21205104.926
 109408174.668 8  85253146.84546  20819685.859                    20819693.848
 11  7 27 18 51  0.0000000  0 10G28G10G08G07G11G06G03G23G19G13
 122126954.426 7  95163937.39944  23239989.336                    23239998.238
 130652372.390 6 101807070.54143  24862330.820                    24862342.215
 117548631.872 7  91596362.90045  22368749.922                    22368758.582
 109613069.533 8  85412818.153 7  20858670.156                    20858677.570
 121303410.407 7  94522199.31244  23083265.375                    23083274.633
 130067136.367 6 101351037.62542  24750958.570                    24750967.730
 119620523.015 6  93210825.55943  22763032.383                    22763041.566
 118591271.868 7  92408792.66744  22567177.344                    22567185.516
 111474778.528 8  86863495.78146  21212942.156                    21212948.637
 109476193.276 8  85306148.31946  20832629.531                    20832637.125
 11  7 27 18 51 30.0000000  0 10G28G10G08G07G11G06G03G23G19G13
 122077744.948 7  95125592.40544  23230625.203                    23230633.789
 130709584.032 6 101851650.91343  24873217.492                    24873229.391
 117475846.836 7  91539647.32645  22354899.930                    22354908.305
 109571482.034 8  85380412.312 7  20850756.680                    20850763.750
 121228077.671 7  94463498.52944  23068929.398                    23068938.867
 130167708.528 6 101429405.46842  24770096.656                    24770105.969
 119717857.728 6  93286670.73343  22781554.828                    22781563.059
 118697810.544 7  92491809.69244  22587451.555                    22587459.023
 111516563.965 7  86896055.85646  21220894.031                    21220899.852
 109544703.646 7  85359532.98146  20845666.531                    20845674.684
 11  7 27 18 52  0.0000000  0 10G28G10G08G07G11G06G03G23G19G13
 122028731.932 7  95087400.48044  23221298.477                    23221306.844
 130766938.768 6 101896342.76643  24884132.313                    24884144.098
 117403088.660 7  91482952.66145  22341054.422                    22341062.578
 109530105.117 7  85348170.586 7  20842882.578                    20842890.004
 121152915.268 6  94404930.48244  23054626.734                    23054636.250
 130268423.322 6 101507884.32543  24789262.063                    24789272.246
 119815475.860 7  93362736.80043  22800130.742                    22800139.004
 118804572.211 7  92575000.48744  22607767.742                    22607775.188
 111558913.905 7  86929055.80646  21228953.016                    21228958.953
 109613703.764 8  85413299.26745  20858797.102                    20858804.543
 11  7 27 18 52 30.0000000  0 10G28G10G08G07G11G06G03G23G19G13
 121979914.502 7  95049360.96244  23212008.906                    23212016.895
 130824433.111 6 101941143.43542  24895072.961                    24895084.727
 117330358.097 7  91426279.51145  22327214.383                    22327222.953
 109488939.986 8  85316093.854 7  20835049.320                    20835056.605
 121077925.502 7  94346496.91644  23040356.969                    23040365.285
 130369277.822 6 101586472.30143  24808454.031                    24808463.699
 119913374.015 6  93439021.01443  22818760.359                    22818768.523
 118911553.555 7  92658362.45744  22628125.484                    22628133.281
 111601826.250 7  86962493.98046  21237118.625                    21237125.258
 109683190.935 8  85467445.07446  20872019.914                    20872027.719
 11  7 27 18 53  0.0000000  0 10G28G10G08G07G11G06G03G23G19G13
 121931292.824 7  95011473.98044  23202756.203                    23202765.078
 130882065.035 6 101986051.30343  24906040.445                    24906052.199
 117257657.361 7  91369629.63045  22313379.531                    22313388.574
 109447989.443 8  85284184.344 7  20827256.930                    20827264.012
 121003112.360 7  94288201.05144  23026119.680                    23026129.199
 130470270.307 6 101665167.71843  24827672.555                    24827682.684
 120011550.143 6  93515521.87944  22837442.414                    22837450.938
 119018752.508 7  92741893.98344  22648525.070                    22648532.480
 111645299.957 7  86996369.59246  21245392.047                    21245397.840
 109753163.748 7  85521969.30346  20885335.133                    20885343.277
 11  7 27 18 53 30.0000000  0  9G28G08G07G11G06G03G23G19G13
 121882865.979 7  94973738.83844  23193540.594                    23193549.973
 117184987.146 7  91313003.50745  22299551.313                    22299559.480
 109407254.505 7  85252442.835 7  20819504.859                    20819512.465
 120928478.480 6  94230044.81744  23011917.344                    23011927.055
 130571397.948 6 101743968.43942  24846916.703                    24846926.281
 120110001.213 7  93592236.96344  22856177.305                    22856186.086
 119126165.671 7  92825592.41144  22668965.453                    22668972.660
 111689332.811 7  87030680.89946  21253770.789                    21253776.801
 109823619.699 8  85576869.99346  20898742.508                    20898750.988
 11  7 27 18 54  0.0000000  0  9G28G08G07G11G06G03G23G19G13
 121834633.626 7  94936155.25644  23184362.609                    23184371.215
 117112349.766 7  91256402.97245  22285728.266                    22285737.289
 109366737.560 8  85220871.186 7  20811795.258                    20811802.215
 120854027.550 6  94172031.16844  22997749.477                    22997760.234
 130672658.625 5 101822872.80942  24866185.438                    24866195.617
 120208724.452 7  93669164.11944  22874963.977                    22874972.660
 119233790.559 7  92909455.83344  22689445.469                    22689453.527
 111733923.577 7  87065426.94846  21262256.063                    21262262.527
 109894556.881 8  85632145.67346  20912241.422                    20912249.418
 11  7 27 18 54 30.0000000  0  8G28G08G07G11G03G23G19G13
 121786594.999 7  94898722.61044  23175221.625                    23175229.223
 117039746.360 7  91199828.92145  22271912.844                    22271920.723
 109326440.204 8  85189470.652 7  20804126.859                    20804134.102
 120779761.964 6  94114161.91944  22983617.648                    22983626.145
 120307716.930 7  93746301.04844  22893801.313                    22893810.367
 119341624.092 7  92993481.81844  22709965.766                    22709974.000
 111779070.002 7  87100605.96846  21270847.305                    21270853.590
 109965972.923 8  85687794.50346  20925831.695                    20925839.762
 11  7 27 18 55  0.0000000  0  8G28G08G07G11G03G23G19G13
 121738749.728 7  94861440.62844  23166116.438                    23166124.852
 116967178.330 7  91143282.41945  22258103.391                    22258111.805
 109286364.293 8  85158242.653 7  20796500.688                    20796507.902
 120705685.233 6  94056439.85643  22969521.680                    22969530.445
 120406975.754 7  93823645.52544  22912689.523                    22912698.824
 119449663.726 7  93077668.41644  22730525.086                    22730533.402
 111824770.728 7  87136216.90846  21279543.977                    21279549.797
 110037865.541 8  85743814.66745  20939512.414                    20939520.191
 11  7 27 18 55 30.0000000  0  8G28G08G07G11G03G23G19G13
 121691096.920 7  94824308.59844  23157048.867                    23157056.668
 116894646.976 7  91086764.50445  22244300.820                    22244309.449
 109246511.494 8  85127188.527 7  20788916.875                    20788924.141
 120631800.058 7  93998867.00944  22955460.859                    22955470.469
 120506497.544 6  93901194.93644  22931627.438                    22931636.934
 119557906.017 7  93162012.91744  22751123.453                    22751131.496
 111871023.644 7  87172258.14246  21288345.367                    21288351.234
 110110232.338 8  85800204.34546  20953283.844                    20953291.832
 11  7 27 18 56  0.0000000  0  8G28G08G07G11G03G23G19G13
 121643635.729 7  94787325.89244  23148017.008                    23148025.438
 116822153.515 7  91030276.11345  22230506.055                    22230514.195
 109206883.165 8  85096309.316 7  20781375.695                    20781382.945
 120558109.345 6  93941445.76844  22941438.594                    22941447.469
 120606279.802 6  93978947.27044  22950615.922                    22950625.527
 119666347.847 7  93246512.89844  22771758.883                    22771766.949
 111917826.587 7  87208727.95746  21297251.844                    21297258.234
 110183070.682 8  85856961.44545  20967144.609                    20967152.363
 11  7 27 18 56 30.0000000  0  8G28G08G07G11G03G23G19G13
 121596365.446 7  94750491.96144  23139021.375                    23139030.848
 116749699.253 7  90973818.25845  22216718.500                    22216727.199
 109167481.305 8  85065606.578 7  20773877.656                    20773884.648
 120484616.235 6  93884178.42944  22927453.453                    22927461.430
 120706319.362 6  94056900.08343  22969653.133                    22969662.387
 119774986.478 7  93331166.24244  22792432.156                    22792440.699
 111965177.708 7  87245624.92946  21306262.211                    21306268.660
 110256378.227 8  85914084.16246  20981093.977                    20981102.422
 11  7 27 18 57  0.0000000  0  8G28G08G07G11G03G23G19G13
 121549285.832 7  94713806.59944  23130062.188                    23130071.891
 116677285.864 7  90917392.26245  22202938.672                    22202946.984
 109128307.653 8  85035081.665 7  20766423.297                    20766430.488
 120411323.978 6  93827067.64044  22913505.773                    22913515.055
 120806613.348 6  94135051.17743  22988738.180                    22988747.242
 119883819.202 6  93415970.80844  22813141.969                    22813150.766
 112013075.737 7  87282948.06145  21315376.656                    21315382.445
 110330153.253 8  85971571.15146  20995133.375                    20995141.348
 11  7 27 18 57 30.0000000  0  8G28G08G07G11G03G23G19G13
 121502395.783 7  94677268.94244  23121139.469                    23121148.309
 116604914.358 7  90860998.89945  22189166.750                    22189175.172
 109089363.747 8  85004735.765 7  20759012.383                    20759020.051
 120338234.763 6  93770115.04444  22899597.594                    22899606.746
 120907158.733 6  94213398.18143  23007871.133                    23007880.457
 119992842.369 7  93500923.80344  22833888.633                    22833897.035
 112061517.661 7  87320695.02046  21324595.266                    21324601.746
 110404392.611 8  86029419.95645  21009260.430                    21009268.586
 11  7 27 18 58  0.0000000  0  8G28G08G07G11G03G23G19G13
 121455695.212 7  94640878.92144  23112253.109                    23112261.191
 116532586.885 7  90804639.84645  22175403.328                    22175411.801
 109050652.009 8  84974570.786 7  20751646.156                    20751652.910
 120265352.697 6  93713323.87444  22885728.617                    22885737.484
 121007953.285 6  94291939.32143  23027051.727                    23027060.789
 120102054.042 7  93586023.65844  22854671.352                    22854679.375
 112110502.268 7  87358864.82445  21333916.766                    21333923.254
 110479094.399 8  86087629.08945  21023475.586                    21023483.500
 11  7 27 18 58 30.0000000  0  8G28G08G07G11G03G23G19G13
 121409182.453 7  94604635.22444  23103401.641                    23103410.219
 116460303.668 7  90748315.27245  22161648.023                    22161656.859
 109012172.871 7  84944587.048 7  20744323.602                    20744330.809
 120192679.822 7  93656695.69144  22871899.648                    22871907.941
 121108992.782 7  94370671.35843  23046279.344                    23046287.836
 120211450.135 7  93671267.24944  22875489.211                    22875497.035
 112160026.672 7  87397455.23146  21343340.898                    21343346.637
 110554255.184 8  86146195.88645  21037778.727                    21037786.375
 11  7 27 18 59  0.0000000  0  8G28G08G07G11G03G23G19G13
 121362857.913 7  94568538.23044  23094586.289                    23094594.977
 116388067.625 7  90692027.48145  22147901.906                    22147910.863
 108973929.670 7  84914787.148 7  20737045.992                    20737053.422
 120120220.095 7  93600233.64744  22858110.836                    22858119.945
 121210275.652 7  94449593.03743  23065552.953                    23065561.809
 120321028.528 7  93756652.87744  22896341.367                    22896349.484
 112210089.936 7  87436465.57345  21352867.461                    21352873.664
 110629873.759 8  86205119.41145  21052168.039                    21052176.188
 11  7 27 18 59 30.0000000  0  8G28G08G07G11G03G23G19G13
 121316720.576 7  94532587.10544  23085806.813                    23085815.836
 116315879.921 7  90635777.33945  22134165.430                    22134173.223
 108935923.553 8  84885172.004 7  20729814.023                    20729821.379
 120047976.053 7  93543939.64144  22844363.313                    22844372.594
 121311798.683 6  94528701.83743  23084871.602                    23084881.262
 120430786.216 7  93842178.21144  22917228.141                    22917235.664
 112260689.778 7  87475894.00345  21362496.656                    21362502.961
 110705947.348 8  86264397.46945  21066644.320                    21066652.484
 11  7 27 19  0  0.0000000  0  9G28G24G08G07G11G03G23G19G13
 121270769.511 7  94496781.12644  23077062.586                    23077070.996
 128153836.06516  99860206.81753  24386869.383                    24386882.293
 116243741.817 7  90579565.85645  22120437.383                    22120446.027
 108898156.084 8  84855742.823 7  20722626.859                    20722633.910
 119975950.564 7  93487815.93444  22830656.664                    22830665.344
 121413558.755 6  94607995.39243  23104235.875                    23104245.336
 120540720.345 6  93927841.03744  22938147.039                    22938155.801
 112311824.039 7  87515738.85646  21372227.063                    21372233.555
 110782473.670 8  86324028.32245  21081206.977                    21081214.918
 11  7 27 19  0 30.0000000  0  9G28G24G08G07G11G03G23G19G13
 121225004.377 7  94461120.01944  23068353.227                    23068362.035
 128078813.101 6  99801747.50242  24372593.078                    24372606.547
 116171654.979 7  90523394.31645  22106720.008                    22106728.852
 108860629.461 8  84826501.298 7  20715485.805                    20715492.965
 119904147.044 7  93431865.21344  22816993.117                    22817002.234
 121515553.336 6  94687471.60143  23123645.008                    23123654.621
 120650827.896 6  94013638.97544  22959100.047                    22959108.758
 112363490.668 7  87555998.54745  21382059.164                    21382065.086
 110859449.997 8  86384009.82245  21095855.219                    21095863.719
 11  7 27 19  1  0.0000000  0  9G28G24G08G07G11G03G23G19G13
 121179424.566 7  94425603.30944  23059680.203                    23059688.152
 128003727.521 6  99743239.41243  24358305.281                    24358319.219
 116099621.086 7  90467264.04045  22093012.266                    22093020.496
 108823345.655 8  84797448.976 7  20708390.594                    20708398.035
 119832568.762 7  93376089.98744  22803371.961                    22803381.344
 121617779.275 6  94767128.15643  23143098.156                    23143106.750
 120761106.032 6  94099569.81644  22980085.313                    22980093.816
 112415688.057 7  87596671.82645  21391991.797                    21391997.898
 110936873.979 8  86444340.14945  21110588.617                    21110596.797
 11  7 27 19  1 30.0000000  0  9G28G24G08G07G11G03G23G19G13
 121134029.176 7  94390230.30944  23051041.336                    23051049.902
 127928581.775 6  99684684.41343  24344005.617                    24344019.285
 116027641.672 7  90411176.19545  22079315.133                    22079323.641
 108786306.230 8  84768587.084 7  20701342.133                    20701350.246
 119761218.415 7  93320492.37144  22789795.141                    22789804.391
 121720233.973 6  94846962.91443  23162594.156                    23162603.563
 120871551.731 6  94185631.23744  23001103.063                    23001111.738
 112468414.040 8  87637756.99446  21402025.305                    21402031.598
 111014743.090 8  86505017.32645  21125406.773                    21125415.023
 11  7 27 19  2  0.0000000  0  9G28G24G08G07G11G03G23G19G13
 121088817.850 7  94355000.73844  23042437.984                    23042446.672
 127853378.853 6  99626084.88042  24329693.656                    24329707.727
 115955718.237 7  90355131.98745  22065628.742                    22065637.031
 108749513.302 8  84739917.266 7  20694340.898                    20694348.531
 119690099.506 7  93265075.10344  22776260.953                    22776269.934
 121822914.859 6  94926973.90443  23182134.344                    23182143.441
 120982162.378 6  94271821.17944  23022151.211                    23022160.492
 112521666.429 8  87679252.35046  21412158.984                    21412164.949
 111093055.160 8  86566039.66345  21140309.336                    21140317.281
 11  7 27 19  2 30.0000000  0  9G28G24G08G07G11G03G23G19G13
 121043789.704 7  94319913.91444  23033869.500                    23033878.594
 127778121.405 6  99567442.86743  24315373.586                    24315386.777
 115883852.445 7  90299132.69145  22051952.906                    22051961.145
 108712968.385 8  84711440.707 7  20687386.641                    20687394.102
 119619214.666 7  93209840.22744  22762772.172                    22762781.461
 121925818.881 6  95007158.82243  23201716.953                    23201724.992
 121092934.783 6  94358137.18044  23043231.047                    23043239.488
 112575443.022 7  87721156.16645  21422392.156                    21422398.129
 111171807.525 8  86627405.09545  21155295.273                    21155303.125
 11  7 27 19  3  0.0000000  0  9G28G24G08G07G11G03G23G19G13
 120998944.160 7  94284969.36844  23025335.547                    23025344.043
 127702812.125 6  99508760.53343  24301041.109                    24301056.551
 115812045.973 7  90243179.62545  22038288.969                    22038296.883
 108676673.499 8  84683158.981 7  20680480.148                    20680487.566
 119548566.769 7  93154789.97544  22749328.211                    22749337.656
 122028942.883 7  95087515.14043  23221340.500                    23221349.586
 121203866.054 7  94444576.96444  23064340.766                    23064349.586
 112629741.320 7  87763466.52246  21432724.922                    21432730.832
 111250997.496 8  86689111.50345  21170364.742                    21170372.688
 11  7 27 19  3 30.0000000  0  9G28G24G08G07G11G03G23G19G13
 120954280.586 7  94250166.63344  23016836.242                    23016844.680
 127627453.843 6  99450039.97143  24286701.516                    24286715.637
 115740299.887 7  90187273.61645  22024635.367                    22024643.891
 108640630.286 8  84655073.365 7  20673621.250                    20673628.305
 119478159.249 7  93099927.03944  22735930.328                    22735939.531
 122132284.268 7  95168040.83743  23241005.898                    23241015.336
 121314953.346 6  94531138.33044  23085479.188                    23085488.215
 112684559.731 7  87806182.15046  21443156.578                    21443162.508
 111330622.492 8  86751156.89145  21185516.508                    21185524.492
 11  7 27 19  4  0.0000000  0  9G28G24G08G07G11G03G23G19G13
 120909797.996 7  94215504.91144  23008371.398                    23008379.695
 127552049.435 6  99391283.42242  24272352.078                    24272365.992
 115668616.099 7  90131416.12445  22010994.891                    22011003.023
 108604840.827 8  84627185.473 7  20666810.773                    20666818.004
 119407994.997 7  93045253.63444  22722578.156                    22722587.125
 122235840.125 7  95248733.62543  23260711.734                    23260721.008
 121426193.747 7  94617819.01344  23106648.031                    23106656.699
 112739896.160 7  87849301.43046  21453686.664                    21453692.723
 111410680.114 7  86813539.39245  21200751.031                    21200759.246
 11  7 27 19  4 30.0000000  0  9G28G24G08G07G11G03G23G19G13
 120865495.342 7  94180983.37244  22999940.742                    22999949.152
 127476601.194 6  99332492.70043  24257994.813                    24258008.953
 115596995.805 7  90075608.13145  21997366.289                    21997374.305
 108569305.818 8  84599495.855 7  20660049.047                    20660055.824
 119338076.419 7  92990771.69444  22709272.859                    22709282.336
 122339607.384 7  95329591.19844  23280458.094                    23280467.219
 121537583.697 7  94704616.20744  23127845.633                    23127853.961
 112795747.676 7  87892822.07845  21464314.648                    21464321.387
 111491167.209 8  86876256.55645  21216067.539                    21216075.355
 11  7 27 19  5  0.0000000  0  9G28G24G08G07G11G03G23G19G13
 120821372.668 7  94146602.09344  22991545.016                    22991553.387
 127401112.587 6  99273670.61443  24243630.094                    24243645.125
 115525441.255 7  90019851.34945  21983750.008                    21983757.836
 108534028.670 7  84572007.175 7  20653335.281                    20653342.957
 119268407.375 6  92936484.19444  22696015.539                    22696025.086
 122443583.785 6  95410611.68943  23300243.969                    23300253.078
 121649121.322 7  94791528.47244  23149069.914                    23149078.953
 112852112.967 7  87936743.05845  21475040.867                    21475047.184
 111572082.038 8  86939307.01145  21231464.906                    21231473.348
 11  7 27 19  5 30.0000000  0  9G28G24G08G07G11G03G23G19G13
 120777429.160 7  94112360.45544  22983182.203                    22983191.355
 127325586.300 6  99214819.06142  24229258.383                    24229271.988
 115453954.373 7  89964147.30645  21970146.008                    21970154.254
 108499010.574 7  84544720.345 7  20646672.094                    20646679.430
 119198991.040 6  92882393.60044  22682805.461                    22682815.473
 122547766.404 6  95491792.88743  23320069.914                    23320078.086
 121760803.271 7  94878553.21844  23170322.523                    23170331.129
 112908990.113 7  87981062.90245  21485863.750                    21485870.188
 111653422.117 8  87002688.82745  21246943.641                    21246951.727
 11  7 27 19  6  0.0000000  0  9G28G24G08G07G11G03G23G19G13
 120733664.135 7  94078257.86844  22974854.250                    22974862.477
 127250024.916 6  99155940.22442  24214878.914                    24214892.707
 115382536.660 7  89908497.16245  21956555.953                    21956563.828
 108464254.197 7  84517637.459 7  20640057.805                    20640065.258
 119129830.356 7  92828502.25244  22669644.844                    22669653.762
 122652152.337 6  95573132.57243  23339933.195                    23339942.500
 121872627.000 7  94965688.43443  23191601.922                    23191610.738
 112966376.181 7  88025779.31745  21496784.289                    21496790.293
 111735184.609 8  87066399.80945  21262502.422                    21262510.734
 11  7 27 19  6 30.0000000  0  9G28G24G08G07G11G03G23G19G13
 120690076.150 7  94044293.23044  22966560.086                    22966568.188
 127174431.183 6  99097036.13743  24200494.133                    24200507.102
 115311189.220 7  89852901.78545  21942978.906                    21942987.027
 108429760.028 8  84490758.887 7  20633494.086                    20633501.488
 119060927.749 6  92774811.97644  22656533.742                    22656542.629
 122756738.766 6  95654628.39243  23359835.305                    23359844.492
 121984588.828 7  95052931.25743  23212907.883                    23212916.574
 113024268.834 7  88070890.45045  21507800.922                    21507807.434
 111817366.590 7  87130437.65145  21278141.078                    21278149.629
 11  7 27 19  7  0.0000000  0  9G28G24G08G07G11G03G23G19G13
 120646665.122 7  94010466.47944  22958298.984                    22958307.887
 127098808.381 6  99038109.42642  24186102.227                    24186117.121
 115239914.134 7  89797362.77845  21929415.578                    21929423.988
 108395530.484 8  84464086.519 7  20626980.297                    20626987.570
 118992286.804 7  92721325.59544  22643471.328                    22643480.660
 122861522.991 6  95736278.37743  23379775.117                    23379784.289
 122096686.487 6  95140279.91543  23234239.578                    23234247.984
 113082666.304 7  88116394.96345  21518913.789                    21518920.125
 111899965.401 7  87194800.30345  21293859.469                    21293867.547
 11  7 27 19  7 30.0000000  0  9G28G24G08G07G11G03G23G19G13
 120603429.852 7  93976776.67244  22950071.406                    22950079.898
 127023158.893 6  98979161.83842  24171707.117                    24171720.938
 115168712.703 7  89741881.17145  21915866.094                    21915874.625
 108361567.124 7  84437621.565 7  20620517.414                    20620524.719
 118923909.837 7  92668044.89944  22630459.063                    22630468.418
 122966501.617 6  95818079.89343  23399751.875                    23399760.922
 122208916.523 6  95227731.70843  23255596.063                    23255604.953
 113141565.728 7  88162290.60145  21530121.508                    21530128.039
 111982978.287 7  87259485.59545  21309656.211                    21309664.234
 11  7 27 19  8  0.0000000  0  9G28G24G08G07G11G03G23G19G13
 120560370.086 7  93943223.62044  22941877.563                    22941886.027
 126947485.878 6  98920195.96643  24157307.438                    24157320.387
 115097586.804 7  89686458.41045  21902331.195                    21902339.668
 108327872.045 8  84411365.664 7  20614105.602                    20614113.027
 118855800.468 7  92614972.72244  22617499.227                    22617507.238
 123071672.431 6  95900031.10943  23419765.695                    23419774.285
 122321276.466 6  95315284.74443  23276977.922                    23276986.883
 113200965.096 7  88208575.80145  21541425.727                    21541431.531
 112066402.709 7  87324491.58045  21325531.375                    21325539.746
 11  7 27 19  8 30.0000000  0  9G28G24G08G07G11G03G23G19G13
 120517485.140 7  93909806.80844  22933716.094                    22933725.434
 126871792.130 6  98861213.97342  24142902.820                    24142916.684
 115026538.465 7  89631096.10345  21888811.328                    21888819.566
 108294447.417 8  84385320.498 7  20607744.844                    20607751.848
 118787961.721 7  92562111.43044  22604589.344                    22604597.840
 123177032.399 6  95982129.72943  23439814.773                    23439824.672
 122433763.525 6  95402936.80444  23298383.555                    23298392.617
 113260862.425 7  88255249.02845  21552823.195                    21552829.602
 112150236.541 7  87389816.59045  21341484.344                    21341492.867
 11  7 27 19  9  0.0000000  0  9G28G24G08G07G11G03G23G19G13
 120474774.013 7  93876525.42244  22925589.070                    22925597.656
 126796080.277 6  98802217.84443  24128496.453                    24128508.918
 114955569.299 7  89575795.47045  21875306.180                    21875314.633
 108261294.525 7  84359487.080 7  20601436.211                    20601443.414
 118720396.356 7  92509463.14644  22591732.438                    22591740.777
 123282579.026 6  96064373.73943  23459899.789                    23459909.508
 122546374.421 6  95490685.36744  23319812.641                    23319822.395
 113321255.045 7  88302308.19945  21564315.508                    21564321.570
 112234476.993 7  87455458.43245  21357515.031                    21357523.289
 11  7 27 19  9 30.0000000  0  9G28G24G08G07G11G03G23G19G13
 120432235.962 7  93843378.93844  22917494.172                    22917502.656
 126720353.679 6  98743210.23843  24114084.313                    24114098.270
 114884681.157 7  89520557.99645  21861816.648                    21861824.992
 108228415.772 7  84333867.270 7  20595179.930                    20595186.840
 118653107.412 7  92457030.26244  22578927.297                    22578935.898
 123388309.320 6  96146760.93543  23480019.781                    23480029.145
 122659106.529 7  95578528.38944  23341265.031                    23341274.656
 113382141.019 7  88349751.80745  21575901.859                    21575908.000
 112319121.163 7  87521414.86745  21373622.352                    21373630.488
 11  7 27 19 10  0.0000000  0  9G28G24G08G07G11G03G23G19G13
 120389870.319 7  93810366.75644  22909432.492                    22909440.445
 126644614.826 6  98684193.08443  24099672.758                    24099685.957
 114813875.522 7  89465384.79945  21848342.766                    21848351.230
 108195812.658 8  84308462.240 7  20588975.320                    20588982.336
 118586098.221 7  92404815.34344  22566175.547                    22566184.594
 123494220.695 6  96229289.24443  23500174.484                    23500183.535
 122771956.745 7  95666463.41843  23362739.969                    23362748.910
 113443517.887 7  88397577.91645  21587581.594                    21587587.602
 112404166.297 7  87587683.73745  21389805.820                    21389814.094
 11  7 27 19 10 30.0000000  0  9G28G24G08G07G11G03G23G19G13
 120347676.129 7  93777488.18344  22901403.047                    22901411.070
 126568866.617 6  98625168.61343  24085257.297                    24085271.035
 114743154.159 7  89410277.27745  21834884.898                    21834893.242
 108163487.106 7  84283273.496 7  20582823.766                    20582830.969
 118519371.161 7  92352820.29044  22553477.961                    22553486.836
 123600310.178 6  96311956.32243  23520361.828                    23520371.934
 122884921.979 6  95754488.10143  23384236.586                    23384245.758
 113505382.941 7  88445784.44345  21599354.094                    21599360.242
 112489609.413 7  87654262.72845  21406065.102                    21406073.500
 11  7 27 19 11  0.0000000  0  9G28G24G08G07G11G03G23G19G13
 120305652.873 7  93744742.81544  22893406.266                    22893414.617
 126493112.139 6  98566139.31243  24070842.594                    24070856.039
 114672519.145 7  89355237.03045  21821443.406                    21821451.480
 108131440.940 7  84258302.457 7  20576725.969                    20576732.844
 118452929.560 7  92301047.67244  22540834.563                    22540843.453
 123706575.115 6  96394760.08343  23540584.336                    23540593.293
 122997999.871 6  95842600.53043  23405755.336                    23405763.945
 113567734.046 7  88494369.71345  21611218.969                    21611224.656
 112575448.354 7  87721150.14445  21422400.039                    21422408.043
 11  7 27 19 11 30.0000000  0  9G28G24G08G07G11G03G23G19G13
 120263799.412 7  93712129.76544  22885441.773                    22885450.383
 126417353.699 6  98507106.88043  24056425.164                    24056439.215
 114601971.632 7  89300264.95545  21808019.000                    21808027.230
 108099675.713 8  84233550.330 7  20570681.047                    20570688.059
 118386776.302 7  92249499.72844  22528246.094                    22528255.199
 123813012.702 6  96477698.39343  23560838.336                    23560848.113
 123111186.921 6  95930798.06943  23427293.547                    23427302.762
 113630568.614 7  88543331.69645  21623176.148                    21623182.621
 112661679.759 7  87788343.38245  21438809.195                    21438817.527
 11  7 27 19 12  0.0000000  0  9G28G24G08G07G11G03G23G19G13
 120222115.414 7  93679648.76845  22877509.930                    22877518.227
 126341594.717 6  98448074.01443  24042009.258                    24042022.363
 114531513.570 7  89245362.58845  21794611.508                    21794619.594
 108068193.691 8  84209018.881 7  20564689.938                    20564697.254
 118320914.522 7  92198178.91444  22515712.711                    22515721.590
 123919620.329 6  96560769.18043  23581125.133                    23581134.973
 123224480.790 6  96019078.80243  23448853.055                    23448862.328
 113693884.446 7  88592668.68545  21635224.445                    21635230.566
 112748301.203 7  87855840.54445  21455293.055                    21455301.074
 11  7 27 19 12 30.0000000  0  9G28G24G08G07G11G03G23G19G13
 120180599.912 7  93647299.06444  22869609.641                    22869618.301
 126265837.938 6  98389042.88343  24027593.148                    24027606.000
 114461146.968 7  89190531.48945  21781220.742                    21781229.637
 108036996.447 8  84184709.341 7  20558753.484                    20558760.715
 118255347.137 7  92147087.50944  22503235.594                    22503244.422
 124026394.938 6  96643970.10743  23601443.805                    23601453.184
 123337878.174 6  96107440.20643  23470431.750                    23470440.926
 113757679.172 7  88642378.84645  21647364.133                    21647370.637
 112835309.688 7  87923639.29945  21471849.875                    21471858.543
 11  7 27 19 13  0.0000000  0  9G28G24G08G07G11G03G23G19G13
 120139252.140 7  93615080.05644  22861741.180                    22861749.855
 126190086.532 6  98330015.94343  24013177.219                    24013191.352
 114390873.566 7  89135773.02145  21767848.555                    21767856.348
 108006086.028 8  84160623.300 7  20552871.547                    20552878.930
 118190076.965 7  92096227.67944  22490815.266                    22490824.086
 124133333.952 6  96727299.14142  23621792.914                    23621802.664
 123451376.516 7  96195880.28343  23492030.000                    23492039.965
 113821950.170 7  88692460.11245  21659595.023                    21659601.504
 112922702.802 7  87991737.75645  21488480.367                    21488489.184
 11  7 27 19 13 30.0000000  0  9G28G24G08G07G11G03G23G19G13
 120098071.572 7  93582991.33044  22853904.531                    22853913.320
 126114343.620 7  98270995.59143  23998764.672                    23998777.082
 114320695.614 7  89081088.92545  21754493.578                    21754501.711
 107975464.401 7  84136762.302 7  20547044.453                    20547051.637
 118125107.155 7  92045601.88544  22478451.555                    22478460.996
 124240434.944 6  96810754.43943  23642173.836                    23642183.281
 123564972.894 7  96284396.75844  23513647.359                    23513656.945
 113886695.482 7  88742910.98945  21671915.234                    21671921.301
 113010478.027 7  88060133.96945  21505183.219                    21505191.891
 11  7 27 19 14  0.0000000  0  9G28G24G08G07G11G03G23G19G13
 120057056.926 7  93551031.87744  22846099.750                    22846108.285
 126038611.568 6  98211983.76043  23984352.375                    23984366.586
 114250614.325 7  89026480.16245  21741157.742                    21741166.066
 107945133.068 8  84113127.490 7  20541272.703                    20541279.773
 118060440.294 7  91995212.18944  22466145.688                    22466154.879
 124347694.705 6  96894333.43643  23662585.031                    23662594.301
 123678664.085 7  96372987.09144  23535282.133                    23535291.570
 113951911.930 7  88793728.97945  21684325.539                    21684331.699
 113098631.615 7  88128825.00545  21521959.008                    21521967.457
 11  7 27 19 14 30.0000000  0  9G28G24G08G07G11G03G23G19G13
 120016207.607 7  93519201.28144  22838326.078                    22838334.680
 125962893.649 6  98152982.95543  23969944.344                    23969957.688
 114180631.461 7  88971948.08145  21727840.609                    21727848.641
 107915093.770 8  84089720.251 7  20535556.211                    20535563.398
 117996079.330 7  91945060.86344  22453898.508                    22453907.469
 124455110.643 6  96978034.09243  23683025.172                    23683035.004
 123792447.289 7  96461649.11844  23556934.742                    23556943.949
 114017597.147 7  88844912.25545  21696825.492                    21696831.461
 113187161.390 7  88197809.17945  21538805.141                    21538813.367
 11  7 27 19 15  0.0000000  0  9G28G24G08G07G11G03G23G19G13
 119975523.234 7  93487499.20144  22830584.852                    22830592.930
 125887192.649 6  98093995.23943  23955538.625                    23955551.285
 114110749.387 8  88917494.55045  21714542.516                    21714550.426
 107885348.967 8  84066542.482 7  20529896.039                    20529903.355
 117932027.916 7  91895150.71944  22441709.727                    22441719.160
 124562680.240 6  97061854.49243  23703495.711                    23703504.301
 123906320.088 7  96550380.95443  23578604.055                    23578613.637
 114083749.495 7  88896459.52945  21709413.891                    21709420.152
 113276064.784 7  88267084.48445  21555723.656                    21555731.539
 11  7 27 19 15 30.0000000  0  9G28G24G08G07G11G03G23G19G13
 119935002.557 7  93455924.67844  22822873.492                    22822882.230
 125811511.176 6  98035022.79343  23941136.445                    23941149.945
 114040969.556 7  88863120.68145  21701263.578                    21701272.371
 107855899.945 8  84043595.195 7  20524292.117                    20524299.535
 117868288.275 7  91845483.52144  22429580.758                    22429589.590
 124670400.485 6  97145792.27442  23723994.180                    23724003.547
 124020278.815 6  96639179.74843  23600289.758                    23600299.207
 114150365.713 7  88948368.24145  21722090.313                    21722096.762
 113365338.411 7  88336648.28745  21572711.508                    21572719.910
 11  7 27 19 16  0.0000000  0  9G28G24G08G07G11G03G23G19G13
 119894644.959 7  93424477.22944  22815193.750                    22815201.656
 125735852.706 6  97976068.19643  23926739.875                    23926752.031
 113971294.490 8  88808828.45345  21688004.727                    21688013.047
 107826749.079 8  84020880.240 7  20518744.773                    20518752.059
 117804864.007 7  91796062.07444  22417512.070                    22417519.996
 124778269.207 6  97229845.77943  23744520.406                    23744530.586
 124134321.468 6  96728043.92343  23621990.680                    23622000.855
 114217443.677 7  89000636.76545  21734855.195                    21734861.012
 113454980.126 7  88406498.90345  21589769.680                    21589778.238
 11  7 27 19 16 30.0000000  0  9G28G24G08G07G11G03G23G19G13
 119854449.607 7  93393156.19344  22807544.773                    22807553.063
 125660220.025 6  97917133.78143  23912346.578                    23912360.449
 113901725.496 8  88754618.86645  21674766.227                    21674774.117
 107797897.736 8  83998398.678 7  20513254.430                    20513261.789
 117741757.665 7  91746888.35344  22405502.719                    22405511.711
 124886283.365 6  97314012.61243  23765075.742                    23765085.145
 124248444.761 6  96816970.92843  23643708.297                    23643717.855
 114284980.558 7  89053262.89245  21747706.422                    21747713.434
 113544986.570 7  88476633.73045  21606897.398                    21606906.039
 11  7 27 19 17  0.0000000  0  9G28G24G08G07G11G03G23G19G13
 119814415.533 7  93361960.83644  22799926.922                    22799934.816
 125584615.812 6  97858221.44643  23897960.500                    23897973.219
 113832264.170 8  88700493.19645  21661548.398                    21661556.207
 107769347.602 8  83976151.821 7  20507821.484                    20507828.629
 117678972.050 7  91697964.54444  22393554.906                    22393563.855
 124994440.324 6  97398290.68143  23785657.781                    23785666.609
 124362645.615 6  96905958.39443  23665439.828                    23665449.902
 114352973.950 7  89106244.72245  21760644.938                    21760651.402
 113635354.725 7  88547050.40645  21624093.836                    21624102.723
 11  7 27 19 17 30.0000000  0  9G28G24G08G07G11G03G23G19G13
 119774541.936 7  93330890.51145  22792338.891                    22792347.578
 125509043.341 6  97799333.98342  23883578.758                    23883592.543
 113762912.629 8  88646453.05145  21648350.930                    21648359.395
 107741100.852 8  83954141.367 7  20502446.352                    20502453.586
 117616510.090 7  91649292.94244  22381668.828                    22381677.316
 125102737.521 6  97482678.01843  23806265.836                    23806274.910
 124476921.319 6  96995004.18343  23687186.469                    23687195.895
 114421421.432 7  89159580.40945  21773670.586                    21773676.340
 113726081.717 7  88617746.69145  21641358.875                    21641367.648
 11  7 27 19 18  0.0000000  0  9G28G24G08G07G11G03G23G19G13
 119734828.148 7  93299944.73845  22784782.094                    22784790.414
 125433505.994 6  97740473.74543  23869204.625                    23869216.973
 113693673.270 8  88592500.32245  21635175.289                    21635183.414
 107713159.569 8  83932368.938 7  20497129.438                    20497136.598
 117554374.986 7  91600876.02244  22369844.969                    22369853.461
 125211172.073 6  97567172.41943  23826899.539                    23826908.977
 124591269.214 6  97084106.25843  23708946.461                    23708955.977
 114490320.643 7  89213268.09145  21786781.578                    21786787.707
 113817165.298 7  88688720.83845  21658691.609                    21658699.738
 11  7 27 19 18 30.0000000  0  9G28G24G08G07G11G03G23G19G13
 119695273.727 7  93269123.13544  22777254.531                    22777263.246
 125358006.442 6  97681643.08243  23854837.766                    23854850.969
 113624547.664 8  88538636.23445  21622020.836                    21622029.180
 107685525.644 8  83910836.009 7  20491871.156                    20491878.117
 117492569.435 7  91552715.90644  22358084.109                    22358092.098
 125319741.705 6  97651772.10043  23847560.063                    23847569.125
 124705686.520 6  97173262.37543  23730719.516                    23730728.734
 114559668.649 8  89267305.47645  21799978.234                    21799984.973
 113908602.295 7  88759970.37445  21676091.133                    21676099.742
 11  7 27 19 19  0.0000000  0  9G28G24G08G07G11G03G23G19G13
 119655877.215 7  93238424.56344  22769757.891                    22769765.766
 125282547.521 6  97622843.98943  23840477.367                    23840490.945
 113555537.945 8  88484862.43745  21608888.445                    21608897.203
 107658200.364 8  83889543.579 7  20486670.969                    20486678.609
 117431096.412 7  91504814.89244  22346386.094                    22346394.613
 125428443.346 6  97736474.58443  23868245.586                    23868254.563
 124820170.201 7  97262470.25643  23752504.742                    23752514.762
 114629463.139 8  89321690.78345  21813259.500                    21813265.281
 114000389.862 7  88831493.07645  21693558.203                    21693566.391
 11  7 27 19 19 30.0000000  0  9G28G24G08G07G11G03G23G19G13
 119616638.304 7  93207848.81244  22762290.914                    22762299.426
 125207132.429 6  97564079.09143  23826126.953                    23826140.016
 113486645.941 8  88431180.37545  21595779.094                    21595787.473
 107631185.987 8  83868493.409 7  20481529.953                    20481537.617
 117369958.631 7  91457175.09744  22334751.336                    22334760.113
 125537274.408 6  97821277.96443  23888955.180                    23888965.684
 124934717.380 6  97351727.57943  23774302.508                    23774313.047
 114699701.475 7  89376421.93545  21826626.078                    21826631.688
 114092525.154 7  88903286.73145  21711091.055                    21711099.598
 11  7 27 19 20  0.0000000  0  9G28G24G08G07G11G03G23G19G13
 119577556.819 7  93177395.73245  22754854.023                    22754862.465
 125131764.562 6  97505351.03643  23811784.375                    23811797.926
 113417874.197 8  88377592.02745  21582692.523                    21582700.621
 107604484.821 8  83847687.301 7  20476449.258                    20476456.535
 117309159.940 7  91409799.53444  22323182.008                    22323190.160
 125646232.904 6  97906180.55843  23909688.820                    23909699.637
 125049326.040 6  97441032.77643  23796111.539                    23796122.184
 114770381.873 7  89431497.55745  21840075.914                    21840081.801
 114185005.984 7  88975349.64845  21728689.313                    21728697.684
 11  7 27 19 20 30.0000000  0  9G28G24G08G07G11G03G23G19G13
 119538630.078 7  93147063.21945  22747446.531                    22747454.781
 125056445.358 6  97446660.83843  23797451.320                    23797465.457
 113349223.129 8  88324097.70045  21569628.359                    21569636.730
 107578096.974 8  83827125.339 7  20471427.781                    20471435.137
 117248701.124 7  91362688.82244  22311676.734                    22311685.629
 125755314.885 6  97991179.44243  23930446.969                    23930456.805
 125163991.391 6  97530382.16943  23817932.578                    23817942.605
 114841499.743 7  89486914.06345  21853608.688                    21853614.992
 114277827.697 7  89047678.17645  21746352.555                    21746360.734
 11  7 27 19 21  0.0000000  0  9G28G24G08G07G11G03G23G19G13
 119499858.217 7  93116851.41645  22740068.250                    22740076.738
 124981178.899 6  97388011.73543  23783129.250                    23783141.438
 113280695.381 8  88270699.46545  21556587.461                    21556596.129
 107552025.184 8  83806809.654 7  20466466.203                    20466473.859
 117188586.062 7  91315845.96444  22300237.016                    22300246.211
 125864518.605 6  98076273.20342  23951227.930                    23951237.730
 125278711.756 6  97619774.41343  23839763.414                    23839773.648
 114913053.481 7  89542670.20445  21867225.008                    21867231.523
 114370987.983 7  89120270.53545  21764081.031                    21764089.418
 11  7 27 19 21 30.0000000  0  9G28G24G08G07G11G03G23G19G13
 119461240.586 7  93086759.78644  22732719.914                    22732727.598
 124905968.176 6  97329406.16843  23768816.461                    23768830.676
 113212293.079 8  88217398.98645  21543571.320                    21543579.652
 107526271.404 8  83786741.771 7  20461565.633                    20461573.023
 117128817.957 7  91269273.45044  22288863.820                    22288872.180
 125973841.251 6  98161459.60042  23972030.695                    23972041.051
 125393484.395 6  97709207.37343  23861604.016                    23861613.941
 114985040.776 7  89598764.18745  21880923.703                    21880930.176
 114464484.606 7  89193124.97045  21781872.555                    21781881.574
 11  7 27 19 22  0.0000000  0  9G28G24G08G07G11G03G23G19G13
 119422776.515 7  93056787.80244  22725400.320                    22725408.652
 124830816.560 6  97270846.52243  23754515.383                    23754528.406
 113144018.502 8  88164198.03145  21530579.000                    21530587.602
 107500838.267 8  83766923.732 7  20456726.195                    20456733.316
 117069400.115 7  91222973.88544  22277556.953                    22277565.090
 126083280.831 6  98246737.10143  23992857.102                    23992866.785
 125508306.603 6  97798678.99443  23883453.766                    23883463.617
 115057459.323 7  89655194.19945  21894704.594                    21894711.125
 114558314.834 7  89266239.35745  21799727.438                    21799736.645
 11  7 27 19 22 30.0000000  0  9G28G24G08G07G11G03G23G19G13
 119384465.096 7  93026934.77444  22718109.719                    22718118.324
 124755726.492 7  97212334.92643  23740227.258                    23740240.176
 113075873.694 8  88111098.19445  21517611.773                    21517619.656
 107475726.668 8  83747356.247 7  20451947.609                    20451954.543
 117010334.732 7  91176948.94744  22266317.273                    22266325.934
 126192834.004 6  98332103.16442  24013703.898                    24013713.980
 125623175.527 6  97888186.97343  23905313.297                    23905323.047
 115130306.104 7  89711957.89945  21908566.727                    21908572.773
 114652475.019 7  89339610.84345  21817646.258                    21817654.578
 11  7 27 19 23  0.0000000  0  9G28G24G08G07G11G03G23G19G13
 119346305.251 7  92997199.87044  22710848.398                    22710856.523
 124680701.111 6  97153873.76243  23725949.320                    23725962.414
 113007860.729 8  88058101.09545  21504669.617                    21504678.078
 107450938.758 8  83728040.981 7  20447230.430                    20447237.930
 116951624.514 7  91131200.77244  22255145.250                    22255153.422
 126302498.598 6  98417556.07742  24034572.930                    24034581.945
 125738088.146 6  97977729.07943  23927180.336                    23927190.242
 115203578.369 7  89769053.14745  21922510.336                    21922516.535
 114746962.491 7  89413237.36245  21835626.742                    21835635.125
 11  7 27 19 23 30.0000000  0  9G28G24G08G07G11G03G23G19G13
 119308296.011 7  92967582.31544  22703614.742                    22703623.266
 124605743.522 6  97095465.36243  23711685.891                    23711698.914
 112939980.891 8  88005207.73545  21491752.281                    21491760.395
 107426475.753 8  83708978.893 7  20442575.492                    20442582.773
 116893272.175 7  91085731.46044  22244040.664                    22244048.645
 126412271.487 6  98503093.35742  24055461.813                    24055471.406
 125853041.111 6  98067302.60543  23949054.953                    23949064.563
 115277273.233 7  89826477.68445  21936533.523                    21936539.992
 114841774.117 7  89487116.47745  21853668.914                    21853676.871
 11  7 27 19 24  0.0000000  0  9G28G24G08G07G11G03G23G19G13
 119270436.641 7  92938081.54345  22696410.594                    22696418.391
 124530856.741 6  97037112.17543  23697435.070                    23697447.547
 112872236.551 8  87952419.94745  21478860.523                    21478868.738
 107402339.996 8  83690171.809 7  20437982.367                    20437989.559
 116835280.706 7  91040543.35644  22233004.922                    22233013.773
 126522150.790 6  98588713.52443  24076372.000                    24076381.055
 125968032.408 6  98156906.00043  23970937.430                    23970947.129
 115351388.389 7  89884229.72745  21950637.898                    21950643.563
 114936906.792 7  89561245.74945  21871771.961                    21871780.516
 11  7 27 19 24 30.0000000  0  9G28G24G08G07G11G03G23G19G13
 119232726.351 7  92908696.92945  22689234.719                    22689242.520
 124456043.461 7  96978816.29643  23683198.656                    23683211.102
 112804629.601 8  87899739.22145  21465995.414                    21466003.793
 107378533.063 8  83671620.954 7  20433452.406                    20433459.563
 116777652.784 7  90995638.53744  22222038.750                    22222047.590
 126632133.199 6  98674414.05443  24097300.773                    24097309.793
 126083058.696 6  98246536.66743  23992827.383                    23992835.891
 115425920.799 7  89942306.91545  21964820.547                    21964826.578
 115032357.665 7  89635622.96945  21889935.484                    21889944.422
 11  7 27 19 25  0.0000000  0  9G28G24G08G07G11G03G23G19G13
 119195164.822 7  92879428.25244  22682086.414                    22682095.152
 124381307.620 6  96920580.65643  23668975.953                    23668989.137
 112737162.417 8  87847167.40645  21453157.094                    21453164.895
 107355057.164 8  83653328.043 7  20428984.789                    20428992.047
 116720392.017 7  90951019.80944  22211142.172                    22211150.918
 126742217.105 6  98760193.67143  24118248.820                    24118258.496
 126198118.080 6  98336193.14643  24014721.188                    24014731.660
 115500868.789 7  90000707.92545  21979082.922                    21979088.938
 115128124.550 7  89710246.43445  21908159.766                    21908167.945
 11  7 27 19 25 30.0000000  0  9G28G24G08G07G11G03G23G19G13
 119157750.617 7  92850274.33744  22674967.078                    22674975.168
 124306651.618 7  96862407.33843  23654769.703                    23654782.727
 112669836.532 8  87794705.69645  21440345.617                    21440353.328
 107331913.938 8  83635294.353 7  20424580.555                    20424587.891
 116663500.213 7  90906688.58845  22200316.508                    22200325.031
 126852399.195 6  98846049.81643  24139215.461                    24139225.488
 126313206.840 6  98425872.46342  24036623.758                    24036633.188
 115576228.914 7  90059430.07745  21993423.453                    21993430.129
 115224203.533 7  89785113.09045  21926442.805                    21926451.625
 11  7 27 19 26  0.0000000  0  9G28G24G08G07G11G03G23G19G13
 119120483.129 7  92821234.78345  22667874.867                    22667883.117
 124232078.659 6  96804298.63343  23640578.648                    23640591.645
 112602654.940 8  87742356.41045  21427561.391                    21427569.414
 107309105.299 8  83617521.395 7  20420240.695                    20420248.020
 116606980.696 7  90862647.46344  22189561.086                    22189569.992
 126962677.492 5  98931980.86842  24160201.625                    24160211.207
 126428322.453 6  98515572.71343  24058529.195                    24058539.543
 115651998.696 7  90118471.44845  22007841.625                    22007847.535
 115320592.368 7  89860221.18545  21944784.930                    21944793.738
 11  7 27 19 26 30.0000000  0  8G28G24G08G07G11G23G19G13
 119083361.177 7  92792308.60945  22660811.156                    22660819.820
 124157591.158 6  96746256.59443  23626404.523                    23626417.871
 112535618.882 8  87690120.53045  21414804.563                    21414812.723
 107286632.343 8  83600009.995 7  20415964.141                    20415971.199
 116550835.606 7  90818898.08544  22178876.813                    22178885.840
 126543461.867 6  98605291.47243  24080439.117                    24080449.727
 115728174.764 7  90177829.41345  22022337.523                    22022343.766
 115417287.315 7  89935567.82145  21963186.000                    21963194.227
 11  7 27 19 27  0.0000000  0  8G28G24G08G07G11G23G19G13
 119046384.347 7  92763495.52644  22653775.086                    22653783.438
 124083192.668 6  96688283.88243  23612247.461                    23612259.441
 112468730.405 8  87637999.64945  21402076.039                    21402084.605
 107264497.003 8  83582761.681 7  20411752.078                    20411759.203
 116495067.998 7  90775442.84845  22168264.391                    22168273.500
 126658622.340 6  98695026.66143  24102353.180                    24102364.852
 115804754.826 7  90237502.15245  22036910.273                    22036917.238
 115514285.321 7  90011150.59245  21981643.289                    21981652.766
 11  7 27 19 27 30.0000000  0  8G28G24G08G07G11G23G19G13
 119009551.420 7  92734794.57245  22646765.828                    22646773.895
 124008886.205 6  96630382.88743  23598107.367                    23598119.211
 112401991.644 8  87585995.43645  21389376.641                    21389384.320
 107242701.230 8  83565777.963 7  20407604.367                    20407611.617
 116439680.397 7  90732283.71945  22157724.789                    22157733.273
 126773801.298 6  98784776.21743  24124271.719                    24124282.559
 115881736.106 7  90297487.53445  22051559.031                    22051565.676
 115611583.722 7  90086967.44245  22000159.344                    22000168.277
 11  7 27 19 28  0.0000000  0  8G28G24G08G07G11G23G19G13
 118972862.034 7  92706205.47844  22639784.016                    22639792.102
 123934675.742 6  96572556.68443  23583984.320                    23583997.570
 112335405.882 8  87534110.44645  21376705.133                    21376713.305
 107221248.151 8  83549061.274 7  20403522.141                    20403529.367
 116384676.600 7  90689423.64045  22147258.289                    22147266.449
 126888996.800 6  98874538.70643  24146192.586                    24146204.117
 115959116.745 7  90357784.12145  22066284.414                    22066290.773
 115709180.196 7  90163016.54845  22018730.805                    22018740.172
 11  7 27 19 28 30.0000000  0  8G28G24G08G07G11G23G19G13
 118936315.328 7  92677727.56045  22632829.516                    22632837.168
 123860563.710 6  96514807.17443  23569881.625                    23569893.758
 112268974.248 8  87482345.54545  21364063.680                    21364072.266
 107200138.407 8  83532612.120 7  20399504.813                    20399512.094
 116330058.728 7  90646864.29845  22136864.852                    22136873.473
 127004205.122 6  98964311.21543  24168117.938                    24168127.379
 116036893.602 7  90418389.44645  22081085.008                    22081091.387
 115807071.380 7  90239295.29945  22037359.625                    22037368.613
 11  7 27 19 29  0.0000000  0  8G28G24G08G07G11G23G19G13
 118899910.022 7  92649359.81345  22625901.547                    22625909.535
 123786552.668 6  96457136.43443  23555797.695                    23555810.758
 112202698.271 8  87430701.94645  21351451.656                    21351459.668
 107179373.315 8  83516431.534 7  20395553.094                    20395560.438
 116275829.102 7  90604607.48145  22126545.070                    22126553.578
 127119423.404 6  99054091.42443  24190041.977                    24190052.895
 116115063.564 7  90479301.08045  22095960.430                    22095966.957
 115905253.650 7  90315800.86545  22056043.078                    22056051.793
 11  7 27 19 29 30.0000000  0  8G28G24G08G07G11G23G19G13
 118863645.692 7  92621101.93245  22619000.531                    22619009.188
 123712646.473 6  96399547.32943  23541733.914                    23541745.660
 112136581.320 8  87379182.26745  21338870.250                    21338878.094
 107158955.530 8  83500521.565 7  20391667.898                    20391675.059
 116221990.881 7  90562655.65545  22116300.094                    22116308.551
 127234649.309 6  99143877.62143  24211969.453                    24211979.957
 116193624.193 7  90540517.12445  22110909.484                    22110916.059
 116003724.568 7  90392531.34344  22074781.234                    22074790.473
 11  7 27 19 30  0.0000000  0  8G28G24G08G07G11G23G19G13
 118827521.427 7  92592953.18644  22612126.383                    22612134.246
 123638847.919 6  96342042.11543  23527689.430                    23527702.461
 112070624.886 8  87327787.66545  21326318.789                    21326327.121
 107138886.339 8  83484883.232 7  20387848.953                    20387856.172
 116168546.497 7  90521010.71045  22106129.781                    22106138.273
 127349880.048 6  99233667.59243  24233897.625                    24233907.941
 116272572.617 7  90602035.35645  22125933.078                    22125940.121
 116102481.258 7  90469484.51544  22093574.477                    22093582.801
 11  7 27 19 30 30.0000000  0  9G28G24G08G07G11G17G23G19G13
 118791536.304 7  92564912.86645  22605278.688                    22605286.563
 123565159.858 7  96284622.93443  23513667.664                    23513679.824
 112004831.443 8  87276520.06845  21313799.172                    21313807.070
 107119167.498 8  83469517.894 7  20384096.508                    20384103.707
 116115498.514 7  90479674.66845  22096034.773                    22096043.379
 129522108.38716 100926429.58917  24647249.773                    24647263.910
 127465112.824 6  99323459.09443  24255824.766                    24255836.023
 116351905.930 7  90663853.49545  22141030.039                    22141036.508
 116201520.243 7  90546657.64844  22112420.867                    22112429.762
 11  7 27 19 31  0.0000000  0  9G28G24G08G07G11G17G23G19G13
 118755689.191 7  92536980.07745  22598457.242                    22598465.336
 123491585.250 6  96227292.23443  23499666.836                    23499678.637
 111939202.556 8  87225380.70045  21301309.953                    21301318.332
 107099800.664 8  83454426.847 7  20380411.422                    20380418.863
 116062849.717 7  90438649.67445  22086016.344                    22086024.891
 129416996.254 5 100844524.289 6  24627247.539                    24627262.258
 127580345.025 6  99413250.20043  24277752.992                    24277763.953
 116431621.629 7  90725969.60245  22156198.891                    22156205.648
 116300838.440 7  90624048.36044  22131320.406                    22131329.781
 11  7 27 19 31 30.0000000  0  9G28G24G08G07G11G17G23G19G13
 118719979.535 7  92509154.39745  22591661.867                    22591669.773
 123418127.649 6  96170052.65543  23485687.945                    23485700.742
 111873740.578 8  87174371.38545  21288853.430                    21288861.180
 107080787.725 8  83439611.557 7  20376793.133                    20376800.578
 116010602.816 7  90397937.83844  22076073.656                    22076081.879
 129311982.435 6 100762695.521 6  24607263.953                    24607278.188
 127695573.137 6  99503038.11443  24299680.633                    24299691.707
 116511716.833 7  90788381.44045  22171441.086                    22171447.477
 116400432.984 7  90701654.40644  22150272.883                    22150281.699
 11  7 27 19 32  0.0000000  0  9G28G24G08G07G11G17G23G19G13
 118684406.583 7  92481435.24645  22584892.359                    22584900.523
 123344790.163 6  96112906.65143  23471731.164                    23471743.965
 111808447.851 8  87123493.95045  21276428.414                    21276436.492
 107062130.879 8  83425073.746 8  20373242.797                    20373249.863
 115958760.445 7  90357541.22845  22066208.594                    22066216.977
 129207069.215 6 100680945.094 6  24587299.609                    24587313.188
 127810795.211 6  99592821.29443  24321607.602                    24321617.957
 116592189.131 7  90851087.10745  22186754.148                    22186760.270
 116500301.009 7  90779473.55244  22169276.828                    22169285.883
 11  7 27 19 32 30.0000000  0  9G28G24G08G07G11G17G23G19G13
 118648969.319 7  92453821.82145  22578148.922                    22578157.121
 123271575.675 6  96055856.51043  23457800.078                    23457812.395
 111743326.604 8  87072750.13546  21264036.391                    21264044.180
 107043831.603 8  83410814.556 7  20369760.625                    20369767.570
 115907325.111 7  90317461.79144  22056421.172                    22056429.453
 129102258.570 6 100599274.554 6  24567355.234                    24567368.207
 127926008.319 6  99682597.55643  24343530.117                    24343542.438
 116673035.432 7  90914084.20145  22202139.000                    22202145.453
 116600439.390 7  90857503.35744  22188332.461                    22188341.652
 11  7 27 19 33  0.0000000  0  9G28G24G08G07G11G17G23G19G13
 118613666.897 7  92426313.47745  22571431.266                    22571439.129
 123198487.012 7  95998904.42143  23443891.750                    23443903.254
 111678378.679 8  87022141.37545  21251677.117                    21251685.063
 107025891.208 8  83396835.027 7  20366346.773                    20366353.863
 115856299.616 7  90277701.71444  22046710.688                    22046719.152
 128997552.501 6 100517685.553 5  24547429.070                    24547442.996
 128041209.702 6  99772364.58543  24365452.656                    24365464.801
 116754252.865 7  90977370.48945  22217594.313                    22217600.484
 116700845.061 7  90935741.44144  22207439.070                    22207448.195
 11  7 27 19 33 30.0000000  0  9G28G24G08G07G11G17G23G19G13
 118578498.795 7  92398909.79745  22564738.867                    22564747.410
 123125527.758 7  95942053.16743  23430007.336                    23430019.629
 111613606.931 8  86971669.90545  21239351.570                    21239359.250
 107008312.185 8  83383137.073 7  20363001.617                    20363008.988
 115805686.610 7  90238263.04545  22037079.414                    22037087.613
 128892953.121 6 100436179.701 5  24527524.906                    24527537.844
 128156397.190 6  99862120.75743  24387373.266                    24387384.672
 116835838.939 7  91040944.03945  22233119.633                    22233126.020
 116801515.178 7  91014185.59344  22226595.961                    22226605.199
 11  7 27 19 34  0.0000000  0  9G28G24G08G07G11G17G23G19G13
 118543463.621 7  92371609.68345  22558071.891                    22558079.918
 123052700.577 6  95885304.82643  23416148.938                    23416161.199
 111549013.181 8  86921337.12446  21227059.883                    21227067.660
 106991095.449 8  83369721.431 7  20359725.305                    20359732.594
 115755488.356 7  90199147.57344  22027526.969                    22027535.199
 128788462.547 6 100354758.528 5  24507641.227                    24507653.777
 128271567.197 6  99951863.41343  24409289.813                    24409300.855
 116917790.639 7  91104802.46845  22248714.266                    22248721.234
 116902446.172 7  91092833.01744  22245802.898                    22245811.977
 11  7 27 19 34 30.0000000  0  9G28G24G08G07G11G17G23G19G13
 118508560.852 7  92344412.74144  22551430.086                    22551438.031
 122980008.574 7  95828661.80143  23402316.945                    23402327.914
 111484599.454 8  86871144.63646  21214802.078                    21214810.148
 106974242.891 8  83356589.550 8  20356518.594                    20356525.891
 115705707.601 7  90160357.40744  22018054.000                    22018062.582
 128684082.537 6 100273423.544 5  24487778.648                    24487790.961
 128386717.316 6 100041590.45943  24431203.422                    24431213.645
 117000105.212 7  91168943.66345  22264378.305                    22264384.883
 117003635.264 7  91171681.55944  22265058.922                    22265068.031
 11  7 27 19 35  0.0000000  0  8G28G24G08G07G11G17G19G13
 118473789.984 7  92317318.57945  22544813.328                    22544821.512
 122907455.466 7  95772127.02744  23388509.961                    23388522.285
 111420368.980 8  86821094.93246  21202579.242                    21202587.113
 106957757.052 8  83343743.435 8  20353381.508                    20353388.957
 115656347.510 7  90121895.04045  22008660.695                    22008669.574
 128579816.118 6 100192177.134 6  24467936.734                    24467950.102
 117082780.653 7  91233366.06445  22280111.102                    22280117.086
 117105080.199 7  91250729.45144  22284363.055                    22284372.910
 11  7 27 19 35 30.0000000  0  8G28G24G08G07G11G17G19G13
 118439150.220 7  92290326.57045  22538221.789                    22538229.980
 122835044.357 6  95715702.90243  23374729.984                    23374741.426
 111356323.017 8  86771189.00946  21190391.836                    21190400.176
 106941639.112 8  83331183.987 7  20350314.297                    20350321.422
 115607410.350 7  90083762.23544  21999348.906                    21999356.941
 128475664.661 6 100111020.318 6  24448117.859                    24448130.590
 117165813.517 7  91298066.98845  22295911.898                    22295918.250
 117206777.358 7  91329973.87544  22303715.094                    22303725.262
 11  7 27 19 36  0.0000000  0  8G28G24G08G07G11G17G19G13
 118404640.544 7  92263435.93645  22531654.570                    22531663.262
 122762778.741 6  95659392.17443  23360978.883                    23360990.793
 111292464.299 8  86721428.99246  21178239.531                    21178248.188
 106925891.150 8  83318912.835 7  20347317.250                    20347324.938
 115558898.796 7  90045961.05145  21990116.852                    21990125.230
 128371630.888 6 100029955.173 6  24428320.102                    24428333.305
 117249201.456 7  91363044.56545  22311780.156                    22311786.750
 117308724.023 7  91409412.72044  22323115.258                    22323124.910
 11  7 27 19 36 30.0000000  0  8G28G24G08G07G11G17G19G13
 118370259.599 7  92236645.61545  22525111.680                    22525120.168
 122690660.493 6  95603196.22843  23347254.422                    23347266.980
 111228794.070 8  86671815.83445  21166124.070                    21166132.375
 106910514.223 8  83306930.806 7  20344391.258                    20344399.113
 115510814.441 7  90008492.75145  21980967.094                    21980974.859
 128267715.628 6  99948982.363 5  24408546.211                    24408558.297
 117332940.764 7  91428295.94745  22327715.164                    22327721.289
 117410915.925 7  91489042.65444  22342561.875                    22342571.254
 11  7 27 19 37  0.0000000  0  8G28G24G08G07G11G17G19G13
 118336006.943 7  92209955.25945  22518594.180                    22518602.313
 122618693.393 7  95547118.11144  23333560.094                    23333571.445
 111165315.638 8  86622352.13446  21154044.391                    21154052.590
 106895510.543 8  83295239.621 7  20341536.164                    20341543.566
 115463160.705 7  89971360.00644  21971898.844                    21971906.750
 128163921.846 6  99868104.228 6  24388793.656                    24388807.000
 117417029.409 7  91493819.55245  22343716.180                    22343722.715
 117513351.105 7  91568862.16944  22362054.930                    22362064.395
 11  7 27 19 37 30.0000000  0  8G28G24G08G07G11G17G19G13
 118301880.917 7  92183363.58045  22512100.180                    22512108.406
 122546879.610 6  95491159.48544  23319893.820                    23319906.508
 111102030.155 8  86573038.78846  21142001.758                    21142010.156
 106880880.750 8  83283839.773 7  20338752.289                    20338759.688
 115415938.992 7  89934563.89345  21962912.906                    21962921.039
 128060250.742 6  99787321.730 6  24369065.164                    24369079.207
 117501463.859 7  91559612.59745  22359783.820                    22359790.680
 117616025.334 7  91648867.94744  22381593.414                    22381602.547
 11  7 27 19 38  0.0000000  0  8G28G24G08G07G11G17G19G13
 118267881.805 7  92156870.80245  22505630.313                    22505638.328
 122475223.383 6  95435323.54543  23306258.180                    23306269.684
 111038940.556 7  86523878.07246  21129995.695                    21130003.906
 106866627.582 8  83272733.404 7  20336040.148                    20336047.289
 115369152.859 7  89898107.20845  21954009.383                    21954018.086
 127956705.215 6  99706637.112 6  24349362.867                    24349375.387
 117586241.834 7  91625673.33745  22375916.680                    22375923.035
 117718936.953 7  91729058.71644  22401176.234                    22401185.871
 11  7 27 19 38 30.0000000  0  8G28G24G08G07G11G17G19G13
 118234008.119 7  92130475.73545  22499184.445                    22499192.102
 122403727.759 6  95379612.79843  23292652.922                    23292665.648
 110976049.291 8  86474871.91146  21118028.258                    21118035.965
 106852752.231 8  83261921.436 7  20333399.469                    20333406.883
 115322804.169 7  89861991.39045  21945190.008                    21945197.727
 127853287.061 6  99626051.750 6  24329681.891                    24329694.785
 117671360.332 7  91691999.43044  22392113.727                    22392120.020
 117822082.153 7  91809431.47844  22420804.891                    22420814.719
 11  7 27 19 39  0.0000000  0  8G28G24G08G07G11G17G19G13
 118200259.002 7  92104177.75545  22492762.000                    22492770.039
 122332394.856 6  95324028.81443  23279078.586                    23279090.230
 110913357.678 8  86426021.31346  21106098.320                    21106106.328
 106839255.974 8  83251404.865 8  20330831.156                    20330838.328
 115276895.321 7  89826218.28545  21936453.648                    21936461.828
 127749997.665 6  99545566.688 6  24310025.875                    24310039.406
 117756816.373 7  91758588.53745  22408375.609                    22408381.723
 117925457.461 7  91889983.54444  22440476.836                    22440486.203
 11  7 27 19 39 30.0000000  0  9G28G24G08G07G11G17G26G19G13
 118166634.013 7  92077976.48845  22486363.125                    22486371.477
 122261228.786 6  95268574.84643  23265536.477                    23265547.754
 110850869.244 8  86377329.03746  21094207.125                    21094215.215
 106826141.545 8  83241185.822 8  20328335.844                    20328343.168
 115231429.494 7  89790790.40545  21927801.758                    21927809.984
 127646840.018 6  99465184.287 6  24290396.633                    24290409.207
 127401740.97116  99273977.47153  24243709.516                    24243719.590
 117842607.680 7  91825438.90645  22424701.453                    22424707.957
 118029060.709 7  91970713.23344  22460191.406                    22460200.953
 11  7 27 19 40  0.0000000  0  9G28G24G08G07G11G17G26G19G13
 118133132.183 7  92051871.21345  22479988.344                    22479995.910
 122190232.297 6  95213253.02943  23252025.250                    23252037.980
 110788585.843 8  86328796.54246  21082354.773                    21082362.902
 106813409.847 8  83231265.010 8  20325912.828                    20325920.113
 115186408.544 7  89755709.18245  21919234.477                    21919242.832
 127543815.943 6  99384905.955 6  24270791.648                    24270803.805
 127312372.483 6  99204339.70743  24226703.984                    24226714.082
 117928731.016 7  91892547.97045  22441089.953                    22441096.668
 118132888.117 7  92051617.58244  22479949.500                    22479958.973
 11  7 27 19 40 30.0000000  0  9G28G24G08G07G11G17G26G19G13
 118099752.425 7  92025861.04445  22473635.969                    22473644.434
 122119408.542 6  95158065.73043  23238548.734                    23238559.523
 110726509.889 8  86280425.67946  21070542.438                    21070550.316
 106801062.593 8  83221643.753 8  20323563.328                    20323570.895
 115141834.848 7  89720976.45845  21910752.516                    21910760.781
 127440926.971 6  99304732.972 6  24251211.898                    24251224.688
 127223379.335 6  99134994.43942  24209768.391                    24209778.789
 118015183.563 7  91959913.57145  22457541.609                    22457547.492
 118236936.808 7  92132694.35344  22499749.070                    22499759.051
 11  7 27 19 41  0.0000000  0  9G28G24G08G07G11G17G26G19G13
 118066494.227 7  91999945.59845  22467307.117                    22467315.230
 122048760.537 6  95103015.47343  23225104.102                    23225116.395
 110664643.322 8  86232217.98346  21058769.352                    21058777.379
 106789101.481 8  83212323.402 8  20321287.320                    20321294.480
 115097710.795 7  89686594.12445  21902355.445                    21902364.309
 127338175.378 6  99224666.988 6  24231659.023                    24231671.844
 127134764.292 6  99065943.79543  24192906.672                    24192916.316
 118101962.690 7  92027533.67745  22474055.102                    22474061.426
 118341204.016 7  92213941.40244  22519590.594                    22519600.770
 11  7 27 19 41 30.0000000  0  9G28G24G08G07G11G17G26G19G13
 118033356.388 7  91974123.93245  22461001.656                    22461009.559
 121978291.153 6  95048104.31344  23211694.688                    23211706.012
 110602988.449 8  86184175.23945  21047036.859                    21047044.617
 106777527.684 8  83203304.849 7  20319084.672                    20319092.141
 115054038.645 7  89652563.90445  21894045.555                    21894053.648
 127235563.212 6  99144709.656 6  24212132.813                    24212144.930
 127046530.327 6  98997190.08842  24176115.844                    24176126.199
 118189065.229 7  92095405.75045  22490630.188                    22490637.008
 118445686.121 7  92295355.90544  22539472.789                    22539483.125
 11  7 27 19 42  0.0000000  0  9G28G24G08G07G11G17G26G19G13
 118000337.948 7  91948395.31145  22454718.133                    22454726.043
 121908003.811 6  94993335.07244  23198319.555                    23198330.859
 110541547.738 8  86136299.37046  21035345.164                    21035353.391
 106766343.362 8  83194589.774 8  20316956.531                    20316964.020
 115010820.994 7  89618887.83145  21885821.117                    21885829.324
 127133092.575 6  99064862.625 6  24192632.328                    24192645.539
 126958680.103 5  98928735.32742  24159397.898                    24159409.387
 118276488.723 7  92163527.90845  22507266.453                    22507273.012
 118550380.370 7  92376935.69844  22559395.914                    22559405.488
 11  7 27 19 42 30.0000000  0  9G28G24G08G07G11G17G26G19G13
 117967438.355 7  91922759.27945  22448457.289                    22448465.910
 121837901.736 6  94938710.18443  23184979.266                    23184990.750
 110480323.487 8  86088592.18146  21023694.508                    21023702.527
 106755549.844 8  83186179.237 7  20314902.367                    20314910.148
 114968060.201 7  89585567.76745  21877684.367                    21877692.152
 127030766.059 6  98985127.865 6  24173160.023                    24173173.117
 126871216.577 5                  24142752.820
 118364230.194 7  92231897.88045  22523963.375                    22523969.766
 118655283.785 7  92458678.49444  22579358.188                    22579368.266
 11  7 27 19 43  0.0000000  0  9G28G24G08G07G11G17G26G19G13
 117934656.329 7  91897214.88445  22442219.117                    22442227.715
 121767987.557 7  94884231.68444  23171675.234                    23171686.340
 110419317.731 8  86041055.24746  21012085.563                    21012093.227
 106745148.676 8  83178074.410 7  20312923.469                    20312930.781
 114925758.172 7  89552605.17745  21869634.617                    21869642.387
 126928584.579 6  98905506.100 6  24153716.203                    24153728.000
 126784142.486 6                  24126183.602
 118452286.532 7  92300513.18445  22540719.531                    22540726.359
 118760392.817 7  92540581.50444  22599360.383                    22599369.980
 11  7 27 19 43 30.0000000  0  9G28G24G08G07G11G17G26G19G13
 117901991.864 7  91871762.07745  22436003.656                    22436011.449
 121698264.909 6  94829902.44943  23158406.914                    23158418.051
 110358533.130 8  85993690.63046  21000518.422                    21000526.602
 106735141.819 8  83170276.850 7  20311019.039                    20311026.477
 114883917.750 7  89520002.27045  21861671.578                    21861680.074
 126826550.416 6  98825999.121 6  24134299.102                    24134311.301
 126697461.021 6  98725189.12753  24109689.195                    24109699.988
 118540655.419 7  92369372.01345  22557535.430                    22557542.375
 118865704.626 7  92622642.53144  22619400.109                    22619410.070
 11  7 27 19 44  0.0000000  0  9G28G24G08G07G11G17G26G19G13
 117869443.925 7  91846400.07945  22429809.969                    22429817.523
 121628736.691 6  94775724.69443  23145175.828                    23145187.883
 110297972.050 8  85946500.19546  20988993.875                    20989001.883
 106725530.844 8  83162787.773 8  20309190.094                    20309197.746
 114842541.151 7  89487760.79445  21853798.461                    21853806.535
 126724665.945 6  98746608.846 6  24114910.273                    24114923.113
 126611174.719 6  98657953.08643  24093270.047                    24093280.719
 118629334.096 7  92438472.24745  22574410.086                    22574417.273
 118971216.469 7  92704859.42944  22639478.688                    22639488.395
 11  7 27 19 44 30.0000000  0  9G28G24G08G07G11G17G26G19G13
 117837011.319 7  91821127.94445  22423637.742                    22423645.871
 121559405.856 6  94721700.77343  23131982.484                    23131993.672
 110237636.650 8  85899485.61146  20977512.789                    20977520.852
 106716317.051 8  83155608.191 7  20307436.852                    20307444.129
 114801630.326 7  89455882.26045  21846013.367                    21846021.770
 126622933.010 6  98667336.640 6  24095551.695                    24095564.207
 126525285.970 6  98591026.82743  24076925.352                    24076936.492
 118718319.204 7  92507811.27044  22591344.094                    22591350.105
 119076924.831 7  92787229.45544  22659594.648                    22659604.055
 11  7 27 19 45  0.0000000  0  9G28G24G08G07G11G17G26G19G13
 117804693.612 7  91795945.36445  22417488.172                    22417495.906
 121490275.752 7  94667833.28244  23118827.742                    23118839.031
 110177529.485 8  85852648.87246  20966074.383                    20966082.430
 106707502.076 8  83148739.365 7  20305759.672                    20305766.664
 114761188.037 7  89424368.81545  21838317.383                    21838325.656
 126521353.913 6  98588184.304 6  24076221.453                    24076233.832
 126439798.036 6  98524412.93343  24060658.477                    24060668.586
 118807608.253 7  92577387.12445  22608334.867                    22608341.574
 119182826.993 7  92869750.49144  22679747.008                    22679756.629
 11  7 27 19 45 30.0000000  0  9G28G24G08G07G11G17G26G19G13
 117772489.124 7  91770850.97645  22411359.406                    22411367.617
 121421349.001 6  94614124.25744  23105711.727                    23105723.570
 110117652.494 8  85805991.48546  20954680.195                    20954688.516
 106699086.723 8  83142181.935 7  20304158.125                    20304165.699
 114721215.740 7  89393221.60345  21830711.203                    21830719.512
 126419929.681 6  98509152.592 6  24056920.742                    24056933.652
 126354712.913 6  98458112.90843  24044466.688                    24044477.570
 118897197.860 7  92647197.17245  22625383.609                    22625390.215
 119288919.645 7  92952419.95844  22699935.258                    22699945.500
 11  7 27 19 46  0.0000000  0  9G28G24G08G07G11G17G26G19G13
 117740397.736 7  91745844.74145  22405253.391                    22405260.707
 121352629.553 6  94560576.67343  23092634.820                    23092645.371
 110058008.770 8  85759515.87246  20943330.781                    20943338.574
 106691073.750 8  83135938.043 7  20302632.836                    20302640.512
 114681716.332 7  89362442.87345  21823194.078                    21823202.945
 126318663.101 6  98430243.726 6  24037650.539                    24037663.000
 126270034.105 6  98392129.44643  24028352.414                    24028363.543
 118987086.037 7  92717239.87844  22642488.930                    22642494.621
 119395199.344 7  93035235.17244  22720160.391                    22720169.883
 11  7 27 19 46 30.0000000  0  9G28G24G08G07G11G17G26G19G13
 117708418.794 7  91720926.10845  22399168.039                    22399175.410
 121284120.184 6  94507192.88843  23079597.492                    23079609.031
 109998600.286 8  85713223.55646  20932025.531                    20932033.762
 106683464.529 8  83130008.774 7  20301185.297                    20301192.523
 114642692.178 7  89332034.47445  21815767.930                    21815776.672
 126217556.258 6  98351459.358 6  24018410.359                    24018422.961
 126185764.531 7  98326464.91143  24012317.297                    24012327.914
 119077269.790 7  92787512.92245  22659650.219                    22659656.191
 119501663.679 7  93118194.25744  22740420.055                    22740430.012
